| time (UTC) | temp F | wind direction | speed MPH | gust MPH | rain 1hr in | rain 24hr in | rain mn in | humidity % | barometer mb |
| 20260906165409 | 78 | 217 | 7.0 | 12.0 | 0.00 | 0.00 | 0.00 | 78 | 1020.0 |
| 20260906165314 | 77 | 202 | 7.0 | 12.0 | 0.00 | 0.00 | 0.00 | 78 | 1020.0 |
| 20260906165203 | 78 | 230 | 8.0 | 12.0 | 0.00 | 0.00 | 0.00 | 77 | 1020.0 |
| 20260906165108 | 78 | 186 | 8.0 | 12.0 | 0.00 | 0.00 | 0.00 | 78 | 1020.0 |
| 20260906165033 | 78 | 202 | 8.0 | 12.0 | 0.00 | 0.00 | 0.00 | 78 | 1019.9 |
| 20260906164857 | 78 | 182 | 7.0 | 12.0 | 0.00 | 0.00 | 0.00 | 78 | 1019.9 |
| 20260906164802 | 78 | 201 | 8.0 | 12.0 | 0.00 | 0.00 | 0.00 | 78 | 1019.9 |
| 20260906164705 | 77 | 192 | 8.0 | 12.0 | 0.00 | 0.00 | 0.00 | 78 | 1019.9 |
| 20260906164610 | 77 | 192 | 9.0 | 14.0 | 0.00 | 0.00 | 0.00 | 78 | 1019.9 |
| 20260906164458 | 77 | 229 | 10.0 | 13.0 | 0.00 | 0.00 | 0.00 | 78 | 1019.9 |
| 20260906164423 | 77 | 227 | 11.0 | 13.0 | 0.00 | 0.00 | 0.00 | 78 | 1019.9 |
| 20260906164300 | 77 | 237 | 9.0 | 13.0 | 0.00 | 0.00 | 0.00 | 80 | 1020.0 |
| 20260906164205 | 77 | 202 | 8.0 | 13.0 | 0.00 | 0.00 | 0.00 | 80 | 1020.0 |
| 20260906164110 | 77 | 199 | 8.0 | 13.0 | 0.00 | 0.00 | 0.00 | 80 | 1020.0 |
| 20260906163958 | 77 | 184 | 8.0 | 13.0 | 0.00 | 0.00 | 0.00 | 79 | 1020.1 |
| 20260906163903 | 77 | 194 | 9.0 | 13.0 | 0.00 | 0.00 | 0.00 | 79 | 1020.1 |
| 20260906163828 | 77 | 179 | 10.0 | 13.0 | 0.00 | 0.00 | 0.00 | 79 | 1020.1 |
| 20260906163713 | 77 | 198 | 10.0 | 13.0 | 0.00 | 0.00 | 0.00 | 79 | 1020.2 |
| 20260906163616 | 77 | 198 | 7.0 | 13.0 | 0.00 | 0.00 | 0.00 | 80 | 1020.2 |
| 20260906163521 | 77 | 214 | 7.0 | 12.0 | 0.00 | 0.00 | 0.00 | 79 | 1020.2 |
| 20260906163358 | 77 | 195 | 8.0 | 12.0 | 0.00 | 0.00 | 0.00 | 80 | 1020.1 |
| 20260906163307 | 77 | 194 | 7.0 | 13.0 | 0.00 | 0.00 | 0.00 | 80 | 1020.1 |
| 20260906163211 | 76 | 215 | 7.0 | 13.0 | 0.00 | 0.00 | 0.00 | 80 | 1020.1 |
| 20260906163135 | 76 | 247 | 9.0 | 13.0 | 0.00 | 0.00 | 0.00 | 80 | 1020.2 |
| 20260906163019 | 76 | 240 | 10.0 | 13.0 | 0.00 | 0.00 | 0.00 | 80 | 1020.2 |
| 20260906162903 | 76 | 238 | 9.0 | 12.0 | 0.00 | 0.00 | 0.00 | 80 | 1020.1 |
| 20260906162808 | 76 | 249 | 8.0 | 11.0 | 0.00 | 0.00 | 0.00 | 80 | 1020.1 |
| 20260906162657 | 76 | 264 | 7.0 | 12.0 | 0.00 | 0.00 | 0.00 | 80 | 1020.2 |
| 20260906162600 | 76 | 235 | 8.0 | 12.0 | 0.00 | 0.00 | 0.00 | 80 | 1020.2 |
| 20260906162505 | 76 | 217 | 9.0 | 12.0 | 0.00 | 0.00 | 0.00 | 80 | 1020.2 |
| 20260906162430 | 76 | 246 | 8.0 | 12.0 | 0.00 | 0.00 | 0.00 | 81 | 1020.2 |
| 20260906162314 | 76 | 233 | 7.0 | 12.0 | 0.00 | 0.00 | 0.00 | 80 | 1020.2 |
| 20260906162159 | 76 | 259 | 7.0 | 12.0 | 0.00 | 0.00 | 0.00 | 80 | 1020.2 |
| 20260906162105 | 76 | 218 | 9.0 | 12.0 | 0.00 | 0.00 | 0.00 | 79 | 1020.3 |
| 20260906162012 | 76 | 249 | 9.0 | 12.0 | 0.00 | 0.00 | 0.00 | 79 | 1020.3 |
| 20260906161857 | 76 | 228 | 8.0 | 13.0 | 0.00 | 0.00 | 0.00 | 81 | 1020.2 |
| 20260906161801 | 76 | 204 | 8.0 | 12.0 | 0.00 | 0.00 | 0.00 | 80 | 1020.2 |
| 20260906161705 | 76 | 250 | 9.0 | 12.0 | 0.00 | 0.00 | 0.00 | 80 | 1020.2 |
| 20260906161610 | 76 | 231 | 8.0 | 13.0 | 0.00 | 0.00 | 0.00 | 80 | 1020.2 |
| 20260906161458 | 76 | 223 | 7.0 | 11.0 | 0.00 | 0.00 | 0.00 | 81 | 1020.2 |
| 20260906161423 | 76 | 234 | 7.0 | 11.0 | 0.00 | 0.00 | 0.00 | 81 | 1020.3 |
| 20260906161307 | 76 | 207 | 8.0 | 11.0 | 0.00 | 0.00 | 0.00 | 81 | 1020.3 |
| 20260906161212 | 76 | 188 | 8.0 | 11.0 | 0.00 | 0.00 | 0.00 | 80 | 1020.3 |
| 20260906161116 | 76 | 172 | 7.0 | 12.0 | 0.00 | 0.00 | 0.00 | 81 | 1020.3 |
| 20260906161001 | 76 | 233 | 5.0 | 12.0 | 0.00 | 0.00 | 0.00 | 81 | 1020.4 |
| 20260906160904 | 76 | 206 | 6.0 | 12.0 | 0.00 | 0.00 | 0.00 | 82 | 1020.4 |
| 20260906160812 | 76 | 244 | 7.0 | 12.0 | 0.00 | 0.00 | 0.00 | 82 | 1020.4 |
| 20260906160657 | 76 | 224 | 8.0 | 12.0 | 0.00 | 0.00 | 0.00 | 82 | 1020.5 |
| 20260906160602 | 76 | 190 | 7.0 | 12.0 | 0.00 | 0.00 | 0.00 | 81 | 1020.5 |
| 20260906160507 | 76 | 262 | 7.0 | 12.0 | 0.00 | 0.00 | 0.00 | 81 | 1020.5 |
| 20260906160432 | 76 | 239 | 8.0 | 12.0 | 0.00 | 0.00 | 0.00 | 81 | 1020.5 |
| 20260906160316 | 76 | 254 | 7.0 | 12.0 | 0.00 | 0.00 | 0.00 | 82 | 1020.5 |
| 20260906160205 | 76 | 209 | 6.0 | 10.0 | 0.00 | 0.00 | 0.00 | 82 | 1020.5 |
| 20260906160110 | 76 | 233 | 6.0 | 10.0 | 0.00 | 0.00 | 0.00 | 82 | 1020.5 |
| 20260906160035 | 75 | 202 | 7.0 | 10.0 | 0.00 | 0.00 | 0.00 | 82 | 1020.5 |
| 20260906155919 | 75 | 227 | 7.0 | 10.0 | 0.00 | 0.00 | 0.00 | 82 | 1020.5 |
| 20260906155803 | 75 | 200 | 6.0 | 11.0 | 0.00 | 0.00 | 0.00 | 82 | 1020.5 |
| 20260906155706 | 75 | 254 | 6.0 | 11.0 | 0.00 | 0.00 | 0.00 | 82 | 1020.5 |
| 20260906155631 | 75 | 232 | 6.0 | 10.0 | 0.00 | 0.00 | 0.00 | 82 | 1020.5 |
| 20260906155459 | 75 | 215 | 7.0 | 10.0 | 0.00 | 0.00 | 0.00 | 82 | 1020.5 |
| 20260906155423 | 75 | 215 | 8.0 | 11.0 | 0.00 | 0.00 | 0.00 | 83 | 1020.5 |
| 20260906155259 | 75 | 227 | 8.0 | 11.0 | 0.00 | 0.00 | 0.00 | 84 | 1020.4 |
| 20260906155204 | 75 | 248 | 6.0 | 11.0 | 0.00 | 0.00 | 0.00 | 84 | 1020.3 |
| 20260906155109 | 75 | 311 | 6.0 | 12.0 | 0.00 | 0.00 | 0.00 | 84 | 1020.3 |
| 20260906155014 | 75 | 229 | 8.0 | 12.0 | 0.00 | 0.00 | 0.00 | 84 | 1020.3 |
| 20260906154903 | 74 | 232 | 7.0 | 12.0 | 0.00 | 0.00 | 0.00 | 84 | 1020.2 |
| 20260906154827 | 75 | 257 | 7.0 | 12.0 | 0.00 | 0.00 | 0.00 | 84 | 1020.2 |
| 20260906154711 | 74 | 239 | 6.0 | 12.0 | 0.00 | 0.00 | 0.00 | 84 | 1020.2 |
| 20260906154616 | 74 | 247 | 7.0 | 12.0 | 0.00 | 0.00 | 0.00 | 84 | 1020.1 |
| 20260906154521 | 74 | 242 | 8.0 | 12.0 | 0.00 | 0.00 | 0.00 | 85 | 1020.2 |
| 20260906154424 | 74 | 237 | 7.0 | 12.0 | 0.00 | 0.00 | 0.00 | 85 | 1020.2 |
| 20260906154308 | 74 | 194 | 6.0 | 12.0 | 0.00 | 0.00 | 0.00 | 86 | 1020.2 |
| 20260906154233 | 74 | 286 | 5.0 | 12.0 | 0.00 | 0.00 | 0.00 | 86 | 1020.1 |
| 20260906154120 | 74 | 249 | 6.0 | 12.0 | 0.00 | 0.00 | 0.00 | 86 | 1020.2 |
| 20260906153958 | 74 | 215 | 7.0 | 12.0 | 0.00 | 0.00 | 0.00 | 86 | 1020.1 |
| 20260906153922 | 74 | 226 | 8.0 | 12.0 | 0.00 | 0.00 | 0.00 | 86 | 1020.1 |
| 20260906153759 | 73 | 229 | 8.0 | 12.0 | 0.00 | 0.00 | 0.00 | 86 | 1020.3 |
| 20260906153723 | 73 | 222 | 8.0 | 12.0 | 0.00 | 0.00 | 0.00 | 86 | 1020.3 |
| 20260906153600 | 73 | 236 | 9.0 | 12.0 | 0.00 | 0.00 | 0.00 | 86 | 1020.3 |
| 20260906153508 | 73 | 200 | 8.0 | 12.0 | 0.00 | 0.00 | 0.00 | 86 | 1020.3 |
| 20260906153413 | 73 | 221 | 7.0 | 12.0 | 0.00 | 0.00 | 0.00 | 86 | 1020.3 |
| 20260906153318 | 73 | 276 | 7.0 | 10.0 | 0.00 | 0.00 | 0.00 | 86 | 1020.5 |
| 20260906153223 | 73 | 228 | 6.0 | 10.0 | 0.00 | 0.00 | 0.00 | 86 | 1020.5 |
| 20260906153100 | 73 | 227 | 6.0 | 11.0 | 0.00 | 0.00 | 0.00 | 86 | 1020.4 |
| 20260906153004 | 73 | 227 | 7.0 | 11.0 | 0.00 | 0.00 | 0.00 | 86 | 1020.5 |
| 20260906152908 | 73 | 247 | 7.0 | 11.0 | 0.00 | 0.00 | 0.00 | 87 | 1020.5 |
| 20260906152757 | 73 | 252 | 7.0 | 11.0 | 0.00 | 0.00 | 0.00 | 87 | 1020.5 |
| 20260906152702 | 73 | 230 | 7.0 | 11.0 | 0.00 | 0.00 | 0.00 | 87 | 1020.5 |
| 20260906152606 | 73 | 226 | 7.0 | 11.0 | 0.00 | 0.00 | 0.00 | 87 | 1020.5 |
| 20260906152511 | 73 | 208 | 7.0 | 11.0 | 0.00 | 0.00 | 0.00 | 87 | 1020.5 |
| 20260906152416 | 73 | 202 | 8.0 | 11.0 | 0.00 | 0.00 | 0.00 | 86 | 1020.5 |
| 20260906152307 | 73 | 229 | 8.0 | 12.0 | 0.00 | 0.00 | 0.00 | 87 | 1020.5 |
| 20260906152229 | 73 | 234 | 8.0 | 12.0 | 0.00 | 0.00 | 0.00 | 87 | 1020.5 |
| 20260906152113 | 73 | 227 | 8.0 | 12.0 | 0.00 | 0.00 | 0.00 | 87 | 1020.6 |
| 20260906152018 | 73 | 233 | 6.0 | 12.0 | 0.00 | 0.00 | 0.00 | 88 | 1020.6 |
| 20260906151922 | 73 | 243 | 7.0 | 12.0 | 0.00 | 0.00 | 0.00 | 88 | 1020.5 |
| 20260906151805 | 72 | 211 | 8.0 | 12.0 | 0.00 | 0.00 | 0.00 | 88 | 1020.5 |
| 20260906151710 | 72 | 228 | 8.0 | 12.0 | 0.00 | 0.00 | 0.00 | 88 | 1020.5 |
| 20260906151559 | 72 | 210 | 9.0 | 12.0 | 0.00 | 0.00 | 0.00 | 87 | 1020.5 |
| 20260906151523 | 72 | 249 | 9.0 | 12.0 | 0.00 | 0.00 | 0.00 | 87 | 1020.5 |
| 20260906151400 | 72 | 221 | 8.0 | 11.0 | 0.00 | 0.00 | 0.00 | 88 | 1020.5 |
| 20260906151305 | 72 | 225 | 7.0 | 11.0 | 0.00 | 0.00 | 0.00 | 88 | 1020.5 |
| 20260906151207 | 72 | 246 | 7.0 | 12.0 | 0.00 | 0.00 | 0.00 | 89 | 1020.5 |
| 20260906151111 | 72 | 209 | 6.0 | 12.0 | 0.00 | 0.00 | 0.00 | 89 | 1020.5 |
| 20260906151016 | 72 | 246 | 8.0 | 12.0 | 0.00 | 0.00 | 0.00 | 89 | 1020.5 |
| 20260906150923 | 72 | 234 | 8.0 | 12.0 | 0.00 | 0.00 | 0.00 | 89 | 1020.5 |
| 20260906150800 | 72 | 224 | 7.0 | 14.0 | 0.00 | 0.00 | 0.00 | 89 | 1020.5 |
| 20260906150705 | 72 | 197 | 6.0 | 14.0 | 0.00 | 0.00 | 0.00 | 89 | 1020.4 |
| 20260906150609 | 72 | 234 | 7.0 | 14.0 | 0.00 | 0.00 | 0.00 | 89 | 1020.4 |
| 20260906150533 | 72 | 196 | 8.0 | 14.0 | 0.00 | 0.00 | 0.00 | 89 | 1020.5 |
| 20260906150437 | 72 | 218 | 9.0 | 14.0 | 0.00 | 0.00 | 0.00 | 89 | 1020.5 |
| 20260906150321 | 72 | 231 | 7.0 | 14.0 | 0.00 | 0.00 | 0.00 | 90 | 1020.4 |
| 20260906150207 | 72 | 203 | 8.0 | 14.0 | 0.00 | 0.00 | 0.00 | 90 | 1020.4 |
| 20260906150131 | 72 | 202 | 8.0 | 14.0 | 0.00 | 0.00 | 0.00 | 90 | 1020.4 |
| 20260906150014 | 72 | 242 | 8.0 | 14.0 | 0.00 | 0.00 | 0.00 | 90 | 1020.3 |
| 20260906145859 | 71 | 213 | 7.0 | 11.0 | 0.00 | 0.00 | 0.00 | 90 | 1020.4 |
| 20260906145803 | 71 | 228 | 7.0 | 10.0 | 0.00 | 0.00 | 0.00 | 91 | 1020.3 |
| 20260906145727 | 71 | 238 | 7.0 | 10.0 | 0.00 | 0.00 | 0.00 | 91 | 1020.4 |
| 20260906145611 | 71 | 244 | 7.0 | 11.0 | 0.00 | 0.00 | 0.00 | 91 | 1020.4 |
| 20260906145520 | 71 | 227 | 6.0 | 10.0 | 0.00 | 0.00 | 0.00 | 91 | 1020.4 |
| 20260906145444 | 71 | 227 | 8.0 | 10.0 | 0.00 | 0.00 | 0.00 | 91 | 1020.4 |
| 20260906145300 | 71 | 198 | 8.0 | 10.0 | 0.00 | 0.00 | 0.00 | 91 | 1020.4 |
| 20260906145201 | 71 | 240 | 8.0 | 10.0 | 0.00 | 0.00 | 0.00 | 91 | 1020.4 |
| 20260906145104 | 71 | 263 | 9.0 | 10.0 | 0.00 | 0.00 | 0.00 | 91 | 1020.4 |
| 20260906145009 | 71 | 243 | 8.0 | 10.0 | 0.00 | 0.00 | 0.00 | 91 | 1020.4 |
| 20260906144914 | 71 | 241 | 6.0 | 10.0 | 0.00 | 0.00 | 0.00 | 92 | 1020.4 |
| 20260906144803 | 71 | 224 | 6.0 | 10.0 | 0.00 | 0.00 | 0.00 | 92 | 1020.5 |
| 20260906144707 | 71 | 215 | 8.0 | 10.0 | 0.00 | 0.00 | 0.00 | 92 | 1020.5 |
| 20260906144613 | 71 | 212 | 8.0 | 10.0 | 0.00 | 0.00 | 0.00 | 92 | 1020.4 |
| 20260906144516 | 71 | 210 | 6.0 | 10.0 | 0.00 | 0.00 | 0.00 | 92 | 1020.4 |
| 20260906144420 | 71 | 225 | 5.0 | 10.0 | 0.00 | 0.00 | 0.00 | 92 | 1020.4 |
| 20260906144257 | 70 | 232 | 5.0 | 10.0 | 0.00 | 0.00 | 0.00 | 92 | 1020.4 |
| 20260906144226 | 70 | 247 | 6.0 | 10.0 | 0.00 | 0.00 | 0.00 | 92 | 1020.4 |
| 20260906144128 | 70 | 228 | 8.0 | 10.0 | 0.00 | 0.00 | 0.00 | 92 | 1020.4 |
| 20260906144012 | 70 | 217 | 8.0 | 10.0 | 0.00 | 0.00 | 0.00 | 92 | 1020.4 |
| 20260906143916 | 70 | 194 | 8.0 | 10.0 | 0.00 | 0.00 | 0.00 | 92 | 1020.4 |
| 20260906143822 | 70 | 215 | 7.0 | 10.0 | 0.00 | 0.00 | 0.00 | 92 | 1020.4 |
| 20260906143700 | 70 | 219 | 7.0 | 10.0 | 0.00 | 0.00 | 0.00 | 92 | 1020.4 |
| 20260906143605 | 70 | 231 | 7.0 | 12.0 | 0.00 | 0.00 | 0.00 | 92 | 1020.5 |
| 20260906143514 | 70 | 218 | 7.0 | 12.0 | 0.00 | 0.00 | 0.00 | 92 | 1020.5 |
| 20260906143419 | 70 | 213 | 8.0 | 12.0 | 0.00 | 0.00 | 0.00 | 92 | 1020.4 |
| 20260906143323 | 70 | 199 | 7.0 | 12.0 | 0.00 | 0.00 | 0.00 | 92 | 1020.4 |
| 20260906143200 | 70 | 194 | 8.0 | 12.0 | 0.00 | 0.00 | 0.00 | 92 | 1020.4 |
| 20260906143104 | 70 | 213 | 9.0 | 12.0 | 0.00 | 0.00 | 0.00 | 92 | 1020.4 |
| 20260906143008 | 70 | 187 | 8.0 | 12.0 | 0.00 | 0.00 | 0.00 | 92 | 1020.4 |
| 20260906142916 | 70 | 202 | 8.0 | 12.0 | 0.00 | 0.00 | 0.00 | 92 | 1020.4 |
| 20260906142801 | 70 | 205 | 10.0 | 12.0 | 0.00 | 0.00 | 0.00 | 91 | 1020.4 |
| 20260906142705 | 71 | 194 | 9.0 | 12.0 | 0.00 | 0.00 | 0.00 | 92 | 1020.5 |
| 20260906142610 | 71 | 186 | 9.0 | 12.0 | 0.00 | 0.00 | 0.00 | 92 | 1020.5 |
| 20260906142535 | 71 | 198 | 8.0 | 10.0 | 0.00 | 0.00 | 0.00 | 92 | 1020.4 |
| 20260906142359 | 71 | 209 | 9.0 | 10.0 | 0.00 | 0.00 | 0.00 | 92 | 1020.4 |
| 20260906142323 | 71 | 186 | 8.0 | 11.0 | 0.00 | 0.00 | 0.00 | 92 | 1020.4 |
| 20260906142211 | 71 | 192 | 7.0 | 9.0 | 0.00 | 0.00 | 0.00 | 92 | 1020.4 |
| 20260906142116 | 71 | 218 | 7.0 | 9.0 | 0.00 | 0.00 | 0.00 | 92 | 1020.3 |
| 20260906142001 | 71 | 194 | 6.0 | 8.0 | 0.00 | 0.00 | 0.00 | 92 | 1020.4 |
| 20260906141905 | 71 | 192 | 6.0 | 9.0 | 0.00 | 0.00 | 0.00 | 92 | 1020.4 |
| 20260906141810 | 71 | 217 | 5.0 | 9.0 | 0.00 | 0.00 | 0.00 | 92 | 1020.4 |
| 20260906141658 | 71 | 227 | 6.0 | 10.0 | 0.00 | 0.00 | 0.00 | 92 | 1020.4 |
| 20260906141622 | 71 | 229 | 6.0 | 10.0 | 0.00 | 0.00 | 0.00 | 92 | 1020.4 |
| 20260906141459 | 71 | 231 | 6.0 | 10.0 | 0.00 | 0.00 | 0.00 | 92 | 1020.4 |
| 20260906141404 | 71 | 234 | 6.0 | 10.0 | 0.00 | 0.00 | 0.00 | 92 | 1020.3 |
| 20260906141327 | 70 | 220 | 6.0 | 10.0 | 0.00 | 0.00 | 0.00 | 92 | 1020.3 |
| 20260906141231 | 70 | 219 | 7.0 | 10.0 | 0.00 | 0.00 | 0.00 | 92 | 1020.3 |
| 20260906141114 | 70 | 217 | 7.0 | 10.0 | 0.00 | 0.00 | 0.00 | 93 | 1020.3 |
| 20260906141003 | 70 | 201 | 6.0 | 10.0 | 0.00 | 0.00 | 0.00 | 93 | 1020.3 |
| 20260906140907 | 70 | 213 | 6.0 | 10.0 | 0.00 | 0.00 | 0.00 | 93 | 1020.3 |
| 20260906140811 | 70 | 198 | 7.0 | 10.0 | 0.00 | 0.00 | 0.00 | 93 | 1020.3 |
| 20260906140716 | 70 | 209 | 8.0 | 10.0 | 0.00 | 0.00 | 0.00 | 93 | 1020.3 |
| 20260906140621 | 70 | 232 | 6.0 | 10.0 | 0.00 | 0.00 | 0.00 | 93 | 1020.4 |
| 20260906140504 | 70 | 246 | 5.0 | 11.0 | 0.00 | 0.00 | 0.00 | 93 | 1020.4 |
| 20260906140408 | 70 | 228 | 5.0 | 11.0 | 0.00 | 0.00 | 0.00 | 93 | 1020.4 |
| 20260906140317 | 70 | 204 | 6.0 | 11.0 | 0.00 | 0.00 | 0.00 | 93 | 1020.3 |
| 20260906140201 | 70 | 225 | 7.0 | 11.0 | 0.00 | 0.00 | 0.00 | 93 | 1020.3 |
| 20260906140124 | 70 | 192 | 6.0 | 11.0 | 0.00 | 0.00 | 0.00 | 93 | 1020.4 |
| 20260906140008 | 70 | 267 | 6.0 | 11.0 | 0.00 | 0.00 | 0.00 | 93 | 1020.4 |
| 20260906135913 | 70 | 227 | 7.0 | 11.0 | 0.00 | 0.00 | 0.00 | 93 | 1020.3 |
| 20260906135837 | 70 | 260 | 7.0 | 11.0 | 0.00 | 0.00 | 0.00 | 93 | 1020.2 |
| 20260906135704 | 70 | 229 | 8.0 | 11.0 | 0.00 | 0.00 | 0.00 | 93 | 1020.3 |
| 20260906135629 | 70 | 228 | 7.0 | 11.0 | 0.00 | 0.00 | 0.00 | 93 | 1020.3 |
| 20260906135512 | 70 | 223 | 5.0 | 12.0 | 0.00 | 0.00 | 0.00 | 93 | 1020.3 |
| 20260906135416 | 70 | 252 | 4.0 | 10.0 | 0.00 | 0.00 | 0.00 | 94 | 1020.3 |
| 20260906135321 | 70 | 229 | 6.0 | 10.0 | 0.00 | 0.00 | 0.00 | 94 | 1020.3 |
| 20260906135224 | 70 | 239 | 6.0 | 10.0 | 0.00 | 0.00 | 0.00 | 94 | 1020.2 |
| 20260906135106 | 70 | 254 | 6.0 | 10.0 | 0.00 | 0.00 | 0.00 | 94 | 1020.2 |
| 20260906135010 | 70 | 227 | 6.0 | 10.0 | 0.00 | 0.00 | 0.00 | 94 | 1020.2 |
| 20260906134859 | 70 | 267 | 7.0 | 10.0 | 0.00 | 0.00 | 0.00 | 94 | 1020.2 |
| 20260906134803 | 70 | 229 | 7.0 | 10.0 | 0.00 | 0.00 | 0.00 | 94 | 1020.2 |
| 20260906134707 | 70 | 213 | 6.0 | 9.0 | 0.00 | 0.00 | 0.00 | 94 | 1020.1 |
| 20260906134630 | 70 | 212 | 7.0 | 9.0 | 0.00 | 0.00 | 0.00 | 94 | 1020.1 |
| 20260906134534 | 70 | 221 | 6.0 | 9.0 | 0.00 | 0.00 | 0.00 | 94 | 1020.2 |
| 20260906134416 | 70 | 202 | 5.0 | 9.0 | 0.00 | 0.00 | 0.00 | 94 | 1020.2 |
| 20260906134301 | 70 | 205 | 6.0 | 9.0 | 0.00 | 0.00 | 0.00 | 94 | 1020.2 |
| 20260906134209 | 70 | 196 | 6.0 | 9.0 | 0.00 | 0.00 | 0.00 | 94 | 1020.2 |
| 20260906134135 | 70 | 209 | 5.0 | 9.0 | 0.00 | 0.00 | 0.00 | 94 | 1020.1 |
| 20260906133958 | 70 | 217 | 6.0 | 9.0 | 0.00 | 0.00 | 0.00 | 94 | 1020.2 |
| 20260906133903 | 70 | 198 | 6.0 | 9.0 | 0.00 | 0.00 | 0.00 | 95 | 1020.1 |
| 20260906133808 | 70 | 238 | 6.0 | 9.0 | 0.00 | 0.00 | 0.00 | 95 | 1020.1 |
| 20260906133713 | 70 | 238 | 6.0 | 9.0 | 0.00 | 0.00 | 0.00 | 95 | 1020.1 |
| 20260906133600 | 70 | 197 | 6.0 | 9.0 | 0.00 | 0.00 | 0.00 | 95 | 1020.1 |
| 20260906133505 | 70 | 211 | 6.0 | 9.0 | 0.00 | 0.00 | 0.00 | 95 | 1020.0 |
| 20260906133410 | 70 | 209 | 6.0 | 9.0 | 0.00 | 0.00 | 0.00 | 95 | 1020.0 |
| 20260906133315 | 70 | 195 | 6.0 | 8.0 | 0.00 | 0.00 | 0.00 | 95 | 1020.0 |
| 20260906133220 | 70 | 201 | 6.0 | 8.0 | 0.00 | 0.00 | 0.00 | 95 | 1020.0 |
| 20260906133104 | 70 | 205 | 5.0 | 8.0 | 0.00 | 0.00 | 0.00 | 95 | 1020.0 |
| 20260906133008 | 69 | 242 | 4.0 | 8.0 | 0.00 | 0.00 | 0.00 | 96 | 1020.0 |
| 20260906132937 | 69 | 192 | 4.0 | 8.0 | 0.00 | 0.00 | 0.00 | 95 | 1020.1 |
| 20260906132800 | 69 | 184 | 6.0 | 8.0 | 0.00 | 0.00 | 0.00 | 96 | 1019.9 |
| 20260906132705 | 69 | 199 | 6.0 | 8.0 | 0.00 | 0.00 | 0.00 | 95 | 1020.0 |
| 20260906132630 | 69 | 190 | 6.0 | 8.0 | 0.00 | 0.00 | 0.00 | 96 | 1020.0 |
| 20260906132533 | 69 | 207 | 6.0 | 8.0 | 0.00 | 0.00 | 0.00 | 96 | 1020.0 |
| 20260906132416 | 69 | 211 | 6.0 | 8.0 | 0.00 | 0.00 | 0.00 | 96 | 1020.0 |
| 20260906132301 | 69 | 196 | 6.0 | 8.0 | 0.00 | 0.00 | 0.00 | 96 | 1020.0 |
| 20260906132229 | 69 | 199 | 6.0 | 8.0 | 0.00 | 0.00 | 0.00 | 96 | 1020.0 |
| 20260906132133 | 69 | 205 | 5.0 | 8.0 | 0.00 | 0.00 | 0.00 | 96 | 1019.9 |
| 20260906132037 | 69 | 202 | 5.0 | 8.0 | 0.00 | 0.00 | 0.00 | 96 | 1019.9 |
| 20260906131921 | 69 | 205 | 6.0 | 8.0 | 0.00 | 0.00 | 0.00 | 96 | 1019.9 |
| 20260906131804 | 69 | 200 | 7.0 | 8.0 | 0.00 | 0.00 | 0.00 | 96 | 1019.9 |
| 20260906131708 | 69 | 205 | 6.0 | 8.0 | 0.00 | 0.00 | 0.00 | 96 | 1019.9 |
| 20260906131613 | 69 | 190 | 5.0 | 7.0 | 0.00 | 0.00 | 0.00 | 96 | 1020.0 |
| 20260906131502 | 69 | 192 | 5.0 | 8.0 | 0.00 | 0.00 | 0.00 | 96 | 1020.0 |
| 20260906131427 | 68 | 198 | 5.0 | 8.0 | 0.00 | 0.00 | 0.00 | 96 | 1019.9 |
| 20260906131331 | 68 | 212 | 5.0 | 8.0 | 0.00 | 0.00 | 0.00 | 96 | 1019.9 |
| 20260906131234 | 68 | 202 | 6.0 | 8.0 | 0.00 | 0.00 | 0.00 | 96 | 1020.0 |
| 20260906131057 | 68 | 204 | 6.0 | 8.0 | 0.00 | 0.00 | 0.00 | 96 | 1020.0 |
| 20260906131001 | 68 | 189 | 5.0 | 8.0 | 0.00 | 0.00 | 0.00 | 96 | 1019.9 |
| 20260906130905 | 68 | 201 | 5.0 | 8.0 | 0.00 | 0.00 | 0.00 | 96 | 1019.9 |
| 20260906130810 | 68 | 200 | 5.0 | 8.0 | 0.00 | 0.00 | 0.00 | 96 | 1019.9 |
| 20260906130718 | 68 | 197 | 6.0 | 8.0 | 0.00 | 0.00 | 0.00 | 96 | 1019.9 |
| 20260906130600 | 68 | 192 | 6.0 | 8.0 | 0.00 | 0.00 | 0.00 | 96 | 1019.9 |
| 20260906130505 | 68 | 186 | 6.0 | 8.0 | 0.00 | 0.00 | 0.00 | 96 | 1019.9 |
| 20260906130410 | 68 | 201 | 6.0 | 8.0 | 0.00 | 0.00 | 0.00 | 96 | 1019.9 |
| 20260906130314 | 68 | 209 | 5.0 | 8.0 | 0.00 | 0.00 | 0.00 | 96 | 1019.9 |
| 20260906130159 | 68 | 192 | 5.0 | 8.0 | 0.00 | 0.00 | 0.00 | 96 | 1020.0 |
| 20260906130108 | 68 | 194 | 5.0 | 8.0 | 0.00 | 0.00 | 0.00 | 96 | 1020.0 |
| 20260906130012 | 68 | 186 | 6.0 | 8.0 | 0.00 | 0.00 | 0.00 | 97 | 1020.0 |
| 20260906125857 | 68 | 193 | 5.0 | 8.0 | 0.00 | 0.00 | 0.00 | 96 | 1020.0 |
| 20260906125802 | 68 | 199 | 5.0 | 8.0 | 0.00 | 0.00 | 0.00 | 97 | 1019.9 |
| 20260906125707 | 68 | 201 | 5.0 | 8.0 | 0.00 | 0.00 | 0.00 | 97 | 1019.9 |
| 20260906125612 | 68 | 204 | 5.0 | 8.0 | 0.00 | 0.00 | 0.00 | 97 | 1020.0 |
| 20260906125521 | 68 | 196 | 6.0 | 8.0 | 0.00 | 0.00 | 0.00 | 97 | 1020.0 |
| 20260906125404 | 68 | 194 | 5.0 | 8.0 | 0.00 | 0.00 | 0.00 | 97 | 1020.0 |
| 20260906125306 | 68 | 200 | 5.0 | 8.0 | 0.00 | 0.00 | 0.00 | 97 | 1019.9 |
| 20260906125209 | 68 | 199 | 5.0 | 8.0 | 0.00 | 0.00 | 0.00 | 97 | 1019.9 |
| 20260906125134 | 68 | 178 | 5.0 | 7.0 | 0.00 | 0.00 | 0.00 | 97 | 1020.0 |
| 20260906125018 | 68 | 184 | 5.0 | 7.0 | 0.00 | 0.00 | 0.00 | 97 | 1020.0 |
| 20260906124901 | 68 | 184 | 4.0 | 7.0 | 0.00 | 0.00 | 0.00 | 97 | 1019.9 |
| 20260906124810 | 68 | 187 | 4.0 | 7.0 | 0.00 | 0.00 | 0.00 | 97 | 1019.9 |
| 20260906124735 | 68 | 188 | 4.0 | 7.0 | 0.00 | 0.00 | 0.00 | 97 | 1019.9 |
| 20260906124617 | 68 | 194 | 5.0 | 7.0 | 0.00 | 0.00 | 0.00 | 97 | 1019.9 |
| 20260906124501 | 68 | 194 | 5.0 | 7.0 | 0.00 | 0.00 | 0.00 | 97 | 1019.9 |
| 20260906124426 | 68 | 199 | 5.0 | 7.0 | 0.00 | 0.00 | 0.00 | 97 | 1019.9 |
| 20260906124310 | 68 | 197 | 4.0 | 6.0 | 0.00 | 0.00 | 0.00 | 97 | 1019.9 |
| 20260906124213 | 68 | 197 | 4.0 | 6.0 | 0.00 | 0.00 | 0.00 | 97 | 1019.9 |
| 20260906124102 | 68 | 197 | 4.0 | 6.0 | 0.00 | 0.00 | 0.00 | 97 | 1019.9 |
| 20260906124005 | 68 | 192 | 4.0 | 6.0 | 0.00 | 0.00 | 0.00 | 97 | 1019.9 |
| 20260906123909 | 68 | 192 | 4.0 | 6.0 | 0.00 | 0.00 | 0.00 | 97 | 1019.9 |
| 20260906123832 | 68 | 192 | 4.0 | 5.0 | 0.00 | 0.00 | 0.00 | 97 | 1019.9 |
| 20260906123716 | 68 | 193 | 3.0 | 5.0 | 0.00 | 0.00 | 0.00 | 97 | 1020.0 |
| 20260906123600 | 68 | 194 | 4.0 | 5.0 | 0.00 | 0.00 | 0.00 | 97 | 1019.9 |
| 20260906123509 | 68 | 194 | 4.0 | 5.0 | 0.00 | 0.00 | 0.00 | 97 | 1019.9 |
| 20260906123413 | 68 | 194 | 4.0 | 5.0 | 0.00 | 0.00 | 0.00 | 97 | 1020.0 |
| 20260906123258 | 68 | 202 | 4.0 | 5.0 | 0.00 | 0.00 | 0.00 | 97 | 1020.1 |
| 20260906123203 | 67 | 202 | 4.0 | 5.0 | 0.00 | 0.00 | 0.00 | 97 | 1019.9 |
| 20260906123108 | 67 | 199 | 3.0 | 5.0 | 0.00 | 0.00 | 0.00 | 97 | 1019.9 |
| 20260906123032 | 67 | 203 | 3.0 | 5.0 | 0.00 | 0.00 | 0.00 | 97 | 1020.0 |
| 20260906122900 | 67 | 203 | 3.0 | 5.0 | 0.00 | 0.00 | 0.00 | 97 | 1020.0 |
| 20260906122804 | 67 | 203 | 3.0 | 5.0 | 0.00 | 0.00 | 0.00 | 97 | 1019.9 |
| 20260906122709 | 67 | 204 | 3.0 | 5.0 | 0.00 | 0.00 | 0.00 | 97 | 1019.9 |
| 20260906122634 | 67 | 204 | 3.0 | 5.0 | 0.00 | 0.00 | 0.00 | 97 | 1020.0 |
| 20260906122459 | 67 | 204 | 3.0 | 6.0 | 0.00 | 0.00 | 0.00 | 97 | 1019.9 |
| 20260906122402 | 67 | 205 | 2.0 | 6.0 | 0.00 | 0.00 | 0.00 | 97 | 1019.9 |
| 20260906122327 | 67 | 205 | 3.0 | 6.0 | 0.00 | 0.00 | 0.00 | 97 | 1019.8 |
| 20260906122209 | 67 | 205 | 3.0 | 6.0 | 0.00 | 0.00 | 0.00 | 97 | 1019.8 |
| 20260906122119 | 67 | 205 | 3.0 | 6.0 | 0.00 | 0.00 | 0.00 | 97 | 1019.8 |
| 20260906122002 | 67 | 206 | 4.0 | 6.0 | 0.00 | 0.00 | 0.00 | 97 | 1019.8 |
| 20260906121907 | 67 | 205 | 4.0 | 6.0 | 0.00 | 0.00 | 0.00 | 97 | 1019.8 |
| 20260906121812 | 67 | 205 | 4.0 | 6.0 | 0.00 | 0.00 | 0.00 | 97 | 1019.8 |
| 20260906121716 | 67 | 205 | 4.0 | 6.0 | 0.00 | 0.00 | 0.00 | 97 | 1019.8 |
| 20260906121601 | 67 | 203 | 4.0 | 6.0 | 0.00 | 0.00 | 0.00 | 97 | 1019.6 |
| 20260906121509 | 67 | 203 | 4.0 | 6.0 | 0.00 | 0.00 | 0.00 | 97 | 1019.6 |
| 20260906121413 | 67 | 215 | 3.0 | 5.0 | 0.00 | 0.00 | 0.00 | 97 | 1019.7 |
| 20260906121318 | 66 | 205 | 3.0 | 5.0 | 0.00 | 0.00 | 0.00 | 97 | 1019.7 |
| 20260906121202 | 66 | 205 | 3.0 | 5.0 | 0.00 | 0.00 | 0.00 | 97 | 1019.7 |
| 20260906121127 | 66 | 205 | 3.0 | 5.0 | 0.00 | 0.00 | 0.00 | 97 | 1019.7 |
| 20260906121010 | 66 | 205 | 3.0 | 5.0 | 0.00 | 0.00 | 0.00 | 97 | 1019.7 |
| 20260906120935 | 66 | 205 | 3.0 | 5.0 | 0.00 | 0.00 | 0.00 | 97 | 1019.8 |
| 20260906120803 | 66 | 205 | 3.0 | 5.0 | 0.00 | 0.00 | 0.00 | 97 | 1019.7 |
| 20260906120728 | 66 | 205 | 3.0 | 4.0 | 0.00 | 0.00 | 0.00 | 97 | 1019.7 |
| 20260906120610 | 66 | 205 | 2.0 | 3.0 | 0.00 | 0.00 | 0.00 | 96 | 1019.7 |
| 20260906120534 | 66 | 205 | 2.0 | 3.0 | 0.00 | 0.00 | 0.00 | 96 | 1019.7 |
| 20260906120358 | 66 | 205 | 2.0 | 3.0 | 0.00 | 0.00 | 0.00 | 96 | 1019.7 |
| 20260906120303 | 66 | 205 | 2.0 | 3.0 | 0.00 | 0.00 | 0.00 | 96 | 1019.7 |
| 20260906120206 | 66 | 205 | 2.0 | 3.0 | 0.00 | 0.00 | 0.00 | 97 | 1019.7 |
| 20260906120114 | 66 | 205 | 3.0 | 3.0 | 0.00 | 0.00 | 0.00 | 97 | 1019.7 |
| 20260906115959 | 66 | 205 | 3.0 | 3.0 | 0.00 | 0.00 | 0.00 | 97 | 1019.7 |
| 20260906115923 | 66 | 205 | 3.0 | 3.0 | 0.00 | 0.00 | 0.00 | 97 | 1019.6 |
| 20260906115807 | 66 | 205 | 2.0 | 3.0 | 0.00 | 0.00 | 0.00 | 97 | 1019.6 |
| 20260906115712 | 66 | 205 | 2.0 | 3.0 | 0.00 | 0.00 | 0.00 | 97 | 1019.6 |
| 20260906115637 | 66 | 205 | 2.0 | 3.0 | 0.00 | 0.00 | 0.00 | 96 | 1019.6 |
| 20260906115504 | 66 | 205 | 2.0 | 3.0 | 0.00 | 0.00 | 0.00 | 96 | 1019.7 |
| 20260906115409 | 66 | 205 | 2.0 | 3.0 | 0.00 | 0.00 | 0.00 | 96 | 1019.7 |
| 20260906115314 | 66 | 205 | 2.0 | 3.0 | 0.00 | 0.00 | 0.00 | 96 | 1019.7 |
| 20260906115158 | 66 | 205 | 2.0 | 3.0 | 0.00 | 0.00 | 0.00 | 96 | 1019.7 |
| 20260906115103 | 66 | 205 | 2.0 | 3.0 | 0.00 | 0.00 | 0.00 | 96 | 1019.7 |
| 20260906115026 | 66 | 205 | 2.0 | 3.0 | 0.00 | 0.00 | 0.00 | 96 | 1019.6 |
| 20260906114910 | 66 | 205 | 2.0 | 3.0 | 0.00 | 0.00 | 0.00 | 96 | 1019.6 |
| 20260906114758 | 66 | 205 | 2.0 | 3.0 | 0.00 | 0.00 | 0.00 | 96 | 1019.6 |
| 20260906114703 | 66 | 205 | 2.0 | 3.0 | 0.00 | 0.00 | 0.00 | 96 | 1019.6 |
| 20260906114628 | 66 | 205 | 2.0 | 3.0 | 0.00 | 0.00 | 0.00 | 96 | 1019.6 |
| 20260906114512 | 66 | 205 | 2.0 | 3.0 | 0.00 | 0.00 | 0.00 | 96 | 1019.5 |
| 20260906114416 | 66 | 205 | 2.0 | 3.0 | 0.00 | 0.00 | 0.00 | 96 | 1019.6 |
| 20260906114301 | 66 | 205 | 2.0 | 3.0 | 0.00 | 0.00 | 0.00 | 96 | 1019.5 |
| 20260906114210 | 67 | 205 | 2.0 | 3.0 | 0.00 | 0.00 | 0.00 | 97 | 1019.5 |
| 20260906114114 | 67 | 205 | 2.0 | 3.0 | 0.00 | 0.00 | 0.00 | 97 | 1019.5 |
| 20260906113959 | 67 | 205 | 2.0 | 3.0 | 0.00 | 0.00 | 0.00 | 97 | 1019.5 |
| 20260906113904 | 66 | 205 | 1.0 | 3.0 | 0.00 | 0.00 | 0.00 | 97 | 1019.5 |
| 20260906113809 | 66 | 205 | 2.0 | 3.0 | 0.00 | 0.00 | 0.00 | 97 | 1019.5 |
| 20260906113658 | 66 | 205 | 2.0 | 3.0 | 0.00 | 0.00 | 0.00 | 97 | 1019.5 |
| 20260906113602 | 66 | 205 | 2.0 | 3.0 | 0.00 | 0.00 | 0.00 | 97 | 1019.5 |
| 20260906113507 | 66 | 205 | 2.0 | 3.0 | 0.00 | 0.00 | 0.00 | 96 | 1019.5 |
| 20260906113432 | 66 | 205 | 2.0 | 3.0 | 0.00 | 0.00 | 0.00 | 96 | 1019.5 |
| 20260906113335 | 66 | 205 | 2.0 | 3.0 | 0.00 | 0.00 | 0.00 | 96 | 1019.4 |
| 20260906113218 | 66 | 205 | 2.0 | 3.0 | 0.00 | 0.00 | 0.00 | 96 | 1019.4 |
| 20260906113122 | 66 | 205 | 2.0 | 3.0 | 0.00 | 0.00 | 0.00 | 96 | 1019.4 |
| 20260906112959 | 66 | 205 | 2.0 | 3.0 | 0.00 | 0.00 | 0.00 | 96 | 1019.4 |
| 20260906112904 | 66 | 205 | 2.0 | 3.0 | 0.00 | 0.00 | 0.00 | 96 | 1019.4 |
| 20260906112809 | 66 | 205 | 2.0 | 3.0 | 0.00 | 0.00 | 0.00 | 96 | 1019.4 |
| 20260906112714 | 66 | 205 | 2.0 | 4.0 | 0.00 | 0.00 | 0.00 | 96 | 1019.4 |
| 20260906112559 | 66 | 205 | 2.0 | 4.0 | 0.00 | 0.00 | 0.00 | 96 | 1019.4 |
| 20260906112523 | 66 | 205 | 2.0 | 4.0 | 0.00 | 0.00 | 0.00 | 96 | 1019.4 |
| 20260906112426 | 66 | 205 | 2.0 | 4.0 | 0.00 | 0.00 | 0.00 | 96 | 1019.4 |
| 20260906112330 | 67 | 205 | 2.0 | 4.0 | 0.00 | 0.00 | 0.00 | 96 | 1019.4 |
| 20260906112158 | 67 | 205 | 2.0 | 4.0 | 0.00 | 0.00 | 0.00 | 96 | 1019.4 |
| 20260906112103 | 67 | 205 | 2.0 | 4.0 | 0.00 | 0.00 | 0.00 | 96 | 1019.4 |
| 20260906112008 | 67 | 205 | 3.0 | 4.0 | 0.00 | 0.00 | 0.00 | 96 | 1019.4 |
| 20260906111913 | 67 | 205 | 3.0 | 4.0 | 0.00 | 0.00 | 0.00 | 96 | 1019.4 |
| 20260906111758 | 67 | 205 | 2.0 | 4.0 | 0.00 | 0.00 | 0.00 | 96 | 1019.4 |
| 20260906111702 | 67 | 205 | 2.0 | 4.0 | 0.00 | 0.00 | 0.00 | 96 | 1019.4 |
| 20260906111610 | 67 | 205 | 2.0 | 4.0 | 0.00 | 0.00 | 0.00 | 96 | 1019.4 |
| 20260906111515 | 67 | 205 | 3.0 | 5.0 | 0.00 | 0.00 | 0.00 | 96 | 1019.4 |
| 20260906111400 | 67 | 205 | 3.0 | 5.0 | 0.00 | 0.00 | 0.00 | 96 | 1019.4 |
| 20260906111325 | 67 | 205 | 3.0 | 5.0 | 0.00 | 0.00 | 0.00 | 96 | 1019.3 |
| 20260906111209 | 67 | 205 | 3.0 | 5.0 | 0.00 | 0.00 | 0.00 | 96 | 1019.3 |
| 20260906111113 | 67 | 204 | 3.0 | 5.0 | 0.00 | 0.00 | 0.00 | 96 | 1019.2 |
| 20260906111002 | 67 | 204 | 3.0 | 5.0 | 0.00 | 0.00 | 0.00 | 96 | 1019.2 |
| 20260906110906 | 67 | 204 | 3.0 | 5.0 | 0.00 | 0.00 | 0.00 | 96 | 1019.4 |
| 20260906110811 | 67 | 203 | 4.0 | 5.0 | 0.00 | 0.00 | 0.00 | 96 | 1019.4 |
| 20260906110716 | 67 | 200 | 4.0 | 4.0 | 0.00 | 0.00 | 0.00 | 96 | 1019.3 |
| 20260906110620 | 67 | 200 | 3.0 | 4.0 | 0.00 | 0.00 | 0.00 | 96 | 1019.2 |
| 20260906110524 | 67 | 200 | 3.0 | 4.0 | 0.00 | 0.00 | 0.00 | 96 | 1019.3 |
| 20260906110426 | 67 | 200 | 3.0 | 4.0 | 0.00 | 0.00 | 0.00 | 96 | 1019.3 |
| 20260906110330 | 67 | 200 | 3.0 | 4.0 | 0.00 | 0.00 | 0.00 | 96 | 1019.3 |
| 20260906110158 | 67 | 199 | 3.0 | 4.0 | 0.00 | 0.00 | 0.00 | 96 | 1019.3 |
| 20260906110027 | 67 | 199 | 3.0 | 4.0 | 0.00 | 0.00 | 0.00 | 96 | 1019.2 |
| 20260906105911 | 67 | 199 | 3.0 | 4.0 | 0.00 | 0.00 | 0.00 | 96 | 1019.2 |
| 20260906105814 | 67 | 199 | 3.0 | 4.0 | 0.00 | 0.00 | 0.00 | 95 | 1019.3 |
| 20260906105659 | 67 | 199 | 3.0 | 3.0 | 0.00 | 0.00 | 0.00 | 95 | 1019.2 |
| 20260906105624 | 67 | 199 | 3.0 | 4.0 | 0.00 | 0.00 | 0.00 | 95 | 1019.3 |
| 20260906105512 | 67 | 199 | 3.0 | 4.0 | 0.00 | 0.00 | 0.00 | 95 | 1019.3 |
| 20260906105357 | 67 | 199 | 3.0 | 4.0 | 0.00 | 0.00 | 0.00 | 96 | 1019.2 |
| 20260906105321 | 67 | 199 | 3.0 | 4.0 | 0.00 | 0.00 | 0.00 | 96 | 1019.2 |
| 20260906105225 | 67 | 199 | 2.0 | 4.0 | 0.00 | 0.00 | 0.00 | 96 | 1019.2 |
| 20260906105108 | 67 | 199 | 2.0 | 4.0 | 0.00 | 0.00 | 0.00 | 96 | 1019.2 |
| 20260906105013 | 67 | 199 | 2.0 | 4.0 | 0.00 | 0.00 | 0.00 | 96 | 1019.2 |
| 20260906104902 | 67 | 199 | 3.0 | 4.0 | 0.00 | 0.00 | 0.00 | 96 | 1019.2 |
| 20260906104807 | 67 | 199 | 3.0 | 4.0 | 0.00 | 0.00 | 0.00 | 95 | 1019.2 |
| 20260906104712 | 67 | 199 | 3.0 | 4.0 | 0.00 | 0.00 | 0.00 | 96 | 1019.2 |
| 20260906104616 | 67 | 199 | 3.0 | 4.0 | 0.00 | 0.00 | 0.00 | 96 | 1019.1 |
| 20260906104520 | 67 | 199 | 3.0 | 4.0 | 0.00 | 0.00 | 0.00 | 95 | 1019.2 |
| 20260906104404 | 67 | 199 | 3.0 | 4.0 | 0.00 | 0.00 | 0.00 | 95 | 1019.2 |
| 20260906104329 | 67 | 199 | 2.0 | 4.0 | 0.00 | 0.00 | 0.00 | 95 | 1019.2 |
| 20260906104233 | 68 | 199 | 2.0 | 4.0 | 0.00 | 0.00 | 0.00 | 96 | 1019.1 |
| 20260906104122 | 68 | 199 | 2.0 | 4.0 | 0.00 | 0.00 | 0.00 | 96 | 1019.1 |
| 20260906103959 | 68 | 199 | 3.0 | 4.0 | 0.00 | 0.00 | 0.00 | 96 | 1019.1 |
| 20260906103903 | 68 | 199 | 3.0 | 4.0 | 0.00 | 0.00 | 0.00 | 96 | 1019.1 |
| 20260906103806 | 68 | 199 | 3.0 | 4.0 | 0.00 | 0.00 | 0.00 | 96 | 1019.1 |
| 20260906103711 | 68 | 199 | 2.0 | 4.0 | 0.00 | 0.00 | 0.00 | 96 | 1019.1 |
| 20260906103558 | 68 | 199 | 2.0 | 4.0 | 0.00 | 0.00 | 0.00 | 96 | 1019.2 |
| 20260906103503 | 68 | 199 | 3.0 | 4.0 | 0.00 | 0.00 | 0.00 | 96 | 1019.1 |
| 20260906103408 | 68 | 199 | 3.0 | 4.0 | 0.00 | 0.00 | 0.00 | 96 | 1019.1 |
| 20260906103313 | 68 | 199 | 3.0 | 4.0 | 0.00 | 0.00 | 0.00 | 96 | 1019.1 |
| 20260906103218 | 68 | 199 | 3.0 | 4.0 | 0.00 | 0.00 | 0.00 | 96 | 1019.1 |
| 20260906103102 | 67 | 199 | 3.0 | 4.0 | 0.00 | 0.00 | 0.00 | 96 | 1019.1 |
| 20260906103007 | 67 | 199 | 3.0 | 4.0 | 0.00 | 0.00 | 0.00 | 96 | 1019.1 |
| 20260906102916 | 67 | 199 | 3.0 | 4.0 | 0.00 | 0.00 | 0.00 | 96 | 1019.2 |
| 20260906102819 | 68 | 199 | 3.0 | 4.0 | 0.00 | 0.00 | 0.00 | 96 | 1019.1 |
| 20260906102657 | 68 | 199 | 3.0 | 4.0 | 0.00 | 0.00 | 0.00 | 96 | 1019.1 |
| 20260906102602 | 68 | 199 | 3.0 | 4.0 | 0.00 | 0.00 | 0.00 | 96 | 1019.1 |
| 20260906102507 | 68 | 199 | 2.0 | 4.0 | 0.00 | 0.00 | 0.00 | 96 | 1019.1 |
| 20260906102411 | 68 | 199 | 3.0 | 4.0 | 0.00 | 0.00 | 0.00 | 96 | 1019.1 |
| 20260906102301 | 68 | 199 | 3.0 | 4.0 | 0.00 | 0.00 | 0.00 | 96 | 1019.2 |
| 20260906102205 | 68 | 199 | 3.0 | 4.0 | 0.00 | 0.00 | 0.00 | 96 | 1019.2 |
| 20260906102110 | 68 | 199 | 2.0 | 4.0 | 0.00 | 0.00 | 0.00 | 96 | 1019.2 |
| 20260906102015 | 68 | 199 | 2.0 | 4.0 | 0.00 | 0.00 | 0.00 | 96 | 1019.1 |
| 20260906101920 | 67 | 199 | 2.0 | 4.0 | 0.00 | 0.00 | 0.00 | 96 | 1019.1 |
| 20260906101804 | 68 | 199 | 2.0 | 4.0 | 0.00 | 0.00 | 0.00 | 96 | 1019.2 |
| 20260906101731 | 67 | 199 | 2.0 | 4.0 | 0.00 | 0.00 | 0.00 | 96 | 1019.2 |
| 20260906101614 | 67 | 198 | 2.0 | 4.0 | 0.00 | 0.00 | 0.00 | 96 | 1019.1 |
| 20260906101519 | 67 | 198 | 3.0 | 4.0 | 0.00 | 0.00 | 0.00 | 96 | 1019.1 |
| 20260906101403 | 67 | 198 | 3.0 | 4.0 | 0.00 | 0.00 | 0.00 | 95 | 1019.1 |
| 20260906101327 | 67 | 198 | 3.0 | 4.0 | 0.00 | 0.00 | 0.00 | 95 | 1019.1 |
| 20260906101210 | 67 | 198 | 3.0 | 4.0 | 0.00 | 0.00 | 0.00 | 95 | 1019.0 |
| 20260906101115 | 67 | 198 | 3.0 | 4.0 | 0.00 | 0.00 | 0.00 | 95 | 1019.0 |
| 20260906101024 | 67 | 198 | 2.0 | 4.0 | 0.00 | 0.00 | 0.00 | 95 | 1019.0 |
| 20260906100906 | 67 | 198 | 2.0 | 4.0 | 0.00 | 0.00 | 0.00 | 95 | 1019.0 |
| 20260906100811 | 67 | 198 | 3.0 | 4.0 | 0.00 | 0.00 | 0.00 | 95 | 1019.1 |
| 20260906100716 | 68 | 198 | 3.0 | 4.0 | 0.00 | 0.00 | 0.00 | 95 | 1019.1 |
| 20260906100619 | 68 | 198 | 3.0 | 4.0 | 0.00 | 0.00 | 0.00 | 95 | 1019.1 |
| 20260906100457 | 68 | 198 | 3.0 | 4.0 | 0.00 | 0.00 | 0.00 | 96 | 1019.1 |
| 20260906100405 | 68 | 198 | 3.0 | 4.0 | 0.00 | 0.00 | 0.00 | 96 | 1019.1 |
| 20260906100309 | 68 | 198 | 3.0 | 4.0 | 0.00 | 0.00 | 0.00 | 95 | 1019.1 |
| 20260906100211 | 68 | 198 | 2.0 | 4.0 | 0.00 | 0.00 | 0.00 | 96 | 1019.0 |
| 20260906100115 | 68 | 198 | 2.0 | 4.0 | 0.00 | 0.00 | 0.00 | 96 | 1019.0 |
| 20260906100040 | 68 | 198 | 2.0 | 4.0 | 0.00 | 0.00 | 0.00 | 96 | 1019.0 |
| 20260906095856 | 68 | 198 | 2.0 | 4.0 | 0.00 | 0.00 | 0.00 | 95 | 1019.0 |
| 20260906095802 | 67 | 198 | 2.0 | 4.0 | 0.00 | 0.00 | 0.00 | 95 | 1018.9 |
| 20260906095710 | 67 | 198 | 2.0 | 4.0 | 0.00 | 0.00 | 0.00 | 95 | 1018.9 |
| 20260906095615 | 67 | 196 | 2.0 | 4.0 | 0.00 | 0.00 | 0.00 | 95 | 1018.9 |
| 20260906095540 | 67 | 196 | 2.0 | 4.0 | 0.00 | 0.00 | 0.00 | 95 | 1018.9 |
| 20260906095357 | 68 | 196 | 2.0 | 4.0 | 0.00 | 0.00 | 0.00 | 95 | 1018.8 |
| 20260906095305 | 68 | 196 | 2.0 | 4.0 | 0.00 | 0.00 | 0.00 | 95 | 1018.8 |
| 20260906095206 | 68 | 196 | 2.0 | 4.0 | 0.00 | 0.00 | 0.00 | 95 | 1018.8 |
| 20260906095130 | 68 | 196 | 2.0 | 4.0 | 0.00 | 0.00 | 0.00 | 96 | 1018.8 |
| 20260906094957 | 68 | 196 | 2.0 | 4.0 | 0.00 | 0.00 | 0.00 | 95 | 1018.7 |
| 20260906094921 | 68 | 196 | 2.0 | 4.0 | 0.00 | 0.00 | 0.00 | 95 | 1018.7 |
| 20260906094759 | 68 | 196 | 3.0 | 4.0 | 0.00 | 0.00 | 0.00 | 95 | 1018.5 |
| 20260906094704 | 68 | 196 | 3.0 | 4.0 | 0.00 | 0.00 | 0.00 | 95 | 1018.6 |
| 20260906094609 | 68 | 196 | 3.0 | 4.0 | 0.00 | 0.00 | 0.00 | 95 | 1018.6 |
| 20260906094458 | 68 | 196 | 3.0 | 4.0 | 0.00 | 0.00 | 0.00 | 95 | 1018.5 |
| 20260906094403 | 68 | 196 | 3.0 | 4.0 | 0.00 | 0.00 | 0.00 | 95 | 1018.5 |
| 20260906094308 | 68 | 196 | 3.0 | 4.0 | 0.00 | 0.00 | 0.00 | 95 | 1018.5 |
| 20260906094213 | 68 | 196 | 3.0 | 4.0 | 0.00 | 0.00 | 0.00 | 95 | 1018.5 |
| 20260906094138 | 68 | 196 | 3.0 | 4.0 | 0.00 | 0.00 | 0.00 | 95 | 1018.6 |
| 20260906094042 | 68 | 196 | 2.0 | 4.0 | 0.00 | 0.00 | 0.00 | 95 | 1018.5 |
| 20260906093859 | 68 | 196 | 2.0 | 4.0 | 0.00 | 0.00 | 0.00 | 95 | 1018.6 |
| 20260906093823 | 68 | 196 | 2.0 | 4.0 | 0.00 | 0.00 | 0.00 | 95 | 1018.6 |
| 20260906093711 | 68 | 196 | 2.0 | 4.0 | 0.00 | 0.00 | 0.00 | 95 | 1018.6 |
| 20260906093615 | 68 | 196 | 2.0 | 4.0 | 0.00 | 0.00 | 0.00 | 95 | 1018.7 |
| 20260906093500 | 68 | 196 | 3.0 | 4.0 | 0.00 | 0.00 | 0.00 | 95 | 1018.7 |
| 20260906093404 | 68 | 196 | 3.0 | 4.0 | 0.00 | 0.00 | 0.00 | 95 | 1018.6 |
| 20260906093309 | 68 | 196 | 3.0 | 4.0 | 0.00 | 0.00 | 0.00 | 95 | 1018.6 |
| 20260906093234 | 68 | 196 | 3.0 | 4.0 | 0.00 | 0.00 | 0.00 | 95 | 1018.6 |
| 20260906093121 | 68 | 196 | 3.0 | 4.0 | 0.00 | 0.00 | 0.00 | 95 | 1018.5 |
| 20260906093023 | 68 | 196 | 3.0 | 4.0 | 0.00 | 0.00 | 0.00 | 95 | 1018.5 |
| 20260906092901 | 68 | 196 | 3.0 | 4.0 | 0.00 | 0.00 | 0.00 | 95 | 1018.4 |
| 20260906092805 | 68 | 196 | 2.0 | 4.0 | 0.00 | 0.00 | 0.00 | 96 | 1018.5 |
| 20260906092710 | 68 | 196 | 2.0 | 4.0 | 0.00 | 0.00 | 0.00 | 96 | 1018.5 |
| 20260906092634 | 68 | 196 | 1.0 | 5.0 | 0.00 | 0.00 | 0.00 | 96 | 1018.4 |
| 20260906092458 | 68 | 196 | 2.0 | 5.0 | 0.00 | 0.00 | 0.00 | 96 | 1018.4 |
| 20260906092406 | 68 | 196 | 2.0 | 5.0 | 0.00 | 0.00 | 0.00 | 96 | 1018.4 |
| 20260906092311 | 68 | 196 | 2.0 | 5.0 | 0.00 | 0.00 | 0.00 | 96 | 1018.4 |
| 20260906092216 | 68 | 196 | 3.0 | 5.0 | 0.00 | 0.00 | 0.00 | 96 | 1018.4 |
| 20260906092120 | 68 | 196 | 3.0 | 5.0 | 0.00 | 0.00 | 0.00 | 96 | 1018.3 |
| 20260906092004 | 68 | 196 | 3.0 | 5.0 | 0.00 | 0.00 | 0.00 | 96 | 1018.3 |
| 20260906091908 | 68 | 196 | 4.0 | 5.0 | 0.00 | 0.00 | 0.00 | 96 | 1018.3 |
| 20260906091757 | 68 | 196 | 4.0 | 5.0 | 0.00 | 0.00 | 0.00 | 96 | 1018.3 |
| 20260906091722 | 68 | 196 | 4.0 | 5.0 | 0.00 | 0.00 | 0.00 | 96 | 1018.3 |
| 20260906091605 | 68 | 192 | 4.0 | 5.0 | 0.00 | 0.00 | 0.00 | 96 | 1018.2 |
| 20260906091509 | 68 | 192 | 4.0 | 5.0 | 0.00 | 0.00 | 0.00 | 96 | 1018.2 |
| 20260906091434 | 68 | 191 | 3.0 | 5.0 | 0.00 | 0.00 | 0.00 | 96 | 1018.3 |
| 20260906091258 | 68 | 191 | 3.0 | 5.0 | 0.00 | 0.00 | 0.00 | 96 | 1018.3 |
| 20260906091202 | 68 | 191 | 3.0 | 5.0 | 0.00 | 0.00 | 0.00 | 96 | 1018.3 |
| 20260906091111 | 68 | 191 | 3.0 | 5.0 | 0.00 | 0.00 | 0.00 | 96 | 1018.3 |
| 20260906091016 | 68 | 190 | 3.0 | 5.0 | 0.00 | 0.00 | 0.00 | 96 | 1018.3 |
| 20260906090920 | 68 | 190 | 3.0 | 5.0 | 0.00 | 0.00 | 0.00 | 96 | 1018.3 |
| 20260906090757 | 68 | 190 | 3.0 | 5.0 | 0.00 | 0.00 | 0.00 | 96 | 1018.4 |
| 20260906090722 | 68 | 190 | 3.0 | 5.0 | 0.00 | 0.00 | 0.00 | 96 | 1018.3 |
| 20260906090605 | 68 | 190 | 3.0 | 5.0 | 0.00 | 0.00 | 0.00 | 96 | 1018.4 |
| 20260906090530 | 68 | 190 | 2.0 | 5.0 | 0.00 | 0.00 | 0.00 | 96 | 1018.4 |
| 20260906090418 | 68 | 190 | 3.0 | 5.0 | 0.00 | 0.00 | 0.00 | 96 | 1018.4 |
| 20260906090302 | 68 | 190 | 3.0 | 5.0 | 0.00 | 0.00 | 0.00 | 96 | 1018.4 |
| 20260906090206 | 68 | 190 | 3.0 | 5.0 | 0.00 | 0.00 | 0.00 | 96 | 1018.4 |
| 20260906090111 | 68 | 194 | 3.0 | 5.0 | 0.00 | 0.00 | 0.00 | 96 | 1018.4 |
| 20260906090035 | 68 | 194 | 3.0 | 5.0 | 0.00 | 0.00 | 0.00 | 96 | 1018.5 |
| 20260906085900 | 68 | 194 | 4.0 | 5.0 | 0.00 | 0.00 | 0.00 | 96 | 1018.5 |
| 20260906085809 | 68 | 193 | 3.0 | 5.0 | 0.00 | 0.00 | 0.00 | 96 | 1018.5 |
| 20260906085713 | 68 | 192 | 3.0 | 5.0 | 0.00 | 0.00 | 0.00 | 96 | 1018.4 |
| 20260906085558 | 68 | 192 | 3.0 | 5.0 | 0.00 | 0.00 | 0.00 | 96 | 1018.3 |
| 20260906085522 | 68 | 192 | 3.0 | 5.0 | 0.00 | 0.00 | 0.00 | 96 | 1018.4 |
| 20260906085406 | 68 | 192 | 3.0 | 4.0 | 0.00 | 0.00 | 0.00 | 96 | 1018.4 |
| 20260906085331 | 68 | 192 | 3.0 | 4.0 | 0.00 | 0.00 | 0.00 | 96 | 1018.3 |
| 20260906085234 | 68 | 192 | 3.0 | 4.0 | 0.00 | 0.00 | 0.00 | 96 | 1018.3 |
| 20260906085102 | 68 | 192 | 2.0 | 4.0 | 0.00 | 0.00 | 0.00 | 96 | 1018.3 |
| 20260906085007 | 68 | 192 | 2.0 | 4.0 | 0.00 | 0.00 | 0.00 | 96 | 1018.3 |
| 20260906084931 | 68 | 192 | 2.0 | 4.0 | 0.00 | 0.00 | 0.00 | 96 | 1018.3 |
| 20260906084816 | 67 | 192 | 3.0 | 4.0 | 0.00 | 0.00 | 0.00 | 96 | 1018.3 |
| 20260906084721 | 67 | 192 | 2.0 | 4.0 | 0.00 | 0.00 | 0.00 | 96 | 1018.3 |
| 20260906084558 | 67 | 192 | 2.0 | 4.0 | 0.00 | 0.00 | 0.00 | 96 | 1018.3 |
| 20260906084523 | 67 | 192 | 3.0 | 4.0 | 0.00 | 0.00 | 0.00 | 96 | 1018.3 |
| 20260906084410 | 67 | 192 | 3.0 | 4.0 | 0.00 | 0.00 | 0.00 | 96 | 1018.3 |
| 20260906084315 | 67 | 192 | 3.0 | 4.0 | 0.00 | 0.00 | 0.00 | 96 | 1018.3 |
| 20260906084159 | 67 | 191 | 2.0 | 3.0 | 0.00 | 0.00 | 0.00 | 96 | 1018.2 |
| 20260906084104 | 67 | 191 | 2.0 | 3.0 | 0.00 | 0.00 | 0.00 | 96 | 1018.2 |
| 20260906084009 | 67 | 191 | 2.0 | 3.0 | 0.00 | 0.00 | 0.00 | 96 | 1018.2 |
| 20260906083913 | 67 | 191 | 2.0 | 3.0 | 0.00 | 0.00 | 0.00 | 96 | 1018.3 |
| 20260906083801 | 67 | 191 | 2.0 | 3.0 | 0.00 | 0.00 | 0.00 | 96 | 1018.3 |
| 20260906083706 | 67 | 191 | 2.0 | 3.0 | 0.00 | 0.00 | 0.00 | 96 | 1018.3 |
| 20260906083611 | 67 | 191 | 2.0 | 3.0 | 0.00 | 0.00 | 0.00 | 96 | 1018.3 |
| 20260906083515 | 67 | 191 | 1.0 | 2.0 | 0.00 | 0.00 | 0.00 | 96 | 1018.3 |
| 20260906083419 | 67 | 191 | 1.0 | 2.0 | 0.00 | 0.00 | 0.00 | 95 | 1018.3 |
| 20260906083257 | 67 | 191 | 2.0 | 2.0 | 0.00 | 0.00 | 0.00 | 95 | 1018.4 |
| 20260906083205 | 67 | 191 | 1.0 | 2.0 | 0.00 | 0.00 | 0.00 | 95 | 1018.3 |
| 20260906083110 | 67 | 191 | 1.0 | 2.0 | 0.00 | 0.00 | 0.00 | 95 | 1018.3 |
| 20260906083035 | 67 | 191 | 1.0 | 2.0 | 0.00 | 0.00 | 0.00 | 95 | 1018.4 |
| 20260906082918 | 67 | 191 | 1.0 | 2.0 | 0.00 | 0.00 | 0.00 | 95 | 1018.3 |
| 20260906082801 | 67 | 191 | 1.0 | 2.0 | 0.00 | 0.00 | 0.00 | 95 | 1018.4 |
| 20260906082706 | 67 | 191 | 1.0 | 2.0 | 0.00 | 0.00 | 0.00 | 95 | 1018.4 |
| 20260906082609 | 67 | 191 | 2.0 | 2.0 | 0.00 | 0.00 | 0.00 | 95 | 1018.3 |
| 20260906082518 | 67 | 191 | 2.0 | 2.0 | 0.00 | 0.00 | 0.00 | 95 | 1018.4 |
| 20260906082421 | 67 | 191 | 2.0 | 2.0 | 0.00 | 0.00 | 0.00 | 95 | 1018.4 |
| 20260906082259 | 67 | 191 | 1.0 | 3.0 | 0.00 | 0.00 | 0.00 | 95 | 1018.3 |
| 20260906082204 | 67 | 191 | 1.0 | 3.0 | 0.00 | 0.00 | 0.00 | 95 | 1018.4 |
| 20260906082109 | 67 | 191 | 0.0 | 3.0 | 0.00 | 0.00 | 0.00 | 95 | 1018.4 |
| 20260906082013 | 67 | 191 | 0.0 | 3.0 | 0.00 | 0.00 | 0.00 | 95 | 1018.4 |
| 20260906081916 | 67 | 191 | 1.0 | 3.0 | 0.00 | 0.00 | 0.00 | 95 | 1018.4 |
| 20260906081804 | 67 | 191 | 0.0 | 3.0 | 0.00 | 0.00 | 0.00 | 95 | 1018.4 |
| 20260906081708 | 67 | 191 | 1.0 | 3.0 | 0.00 | 0.00 | 0.00 | 95 | 1018.4 |
| 20260906081611 | 67 | 191 | 1.0 | 3.0 | 0.00 | 0.00 | 0.00 | 95 | 1018.4 |
| 20260906081516 | 67 | 191 | 2.0 | 3.0 | 0.00 | 0.00 | 0.00 | 95 | 1018.5 |
| 20260906081422 | 67 | 191 | 2.0 | 3.0 | 0.00 | 0.00 | 0.00 | 96 | 1018.5 |
| 20260906081259 | 67 | 192 | 2.0 | 3.0 | 0.00 | 0.00 | 0.00 | 96 | 1018.4 |
| 20260906081207 | 67 | 192 | 2.0 | 3.0 | 0.00 | 0.00 | 0.00 | 96 | 1018.4 |
| 20260906081132 | 67 | 192 | 2.0 | 3.0 | 0.00 | 0.00 | 0.00 | 95 | 1018.5 |
| 20260906081016 | 67 | 192 | 2.0 | 3.0 | 0.00 | 0.00 | 0.00 | 95 | 1018.4 |
| 20260906080920 | 67 | 192 | 2.0 | 3.0 | 0.00 | 0.00 | 0.00 | 95 | 1018.4 |
| 20260906080825 | 67 | 192 | 2.0 | 3.0 | 0.00 | 0.00 | 0.00 | 95 | 1018.3 |
| 20260906080708 | 67 | 192 | 2.0 | 3.0 | 0.00 | 0.00 | 0.00 | 95 | 1018.3 |
| 20260906080613 | 67 | 192 | 2.0 | 3.0 | 0.00 | 0.00 | 0.00 | 95 | 1018.3 |
| 20260906080518 | 67 | 192 | 2.0 | 3.0 | 0.00 | 0.00 | 0.00 | 95 | 1018.4 |
| 20260906080406 | 67 | 192 | 2.0 | 3.0 | 0.00 | 0.00 | 0.00 | 95 | 1018.4 |
| 20260906080311 | 67 | 192 | 2.0 | 3.0 | 0.00 | 0.00 | 0.00 | 95 | 1018.4 |
| 20260906080215 | 67 | 192 | 1.0 | 3.0 | 0.00 | 0.00 | 0.00 | 95 | 1018.4 |
| 20260906080120 | 67 | 192 | 2.0 | 3.0 | 0.00 | 0.00 | 0.00 | 95 | 1018.4 |
| 20260906080004 | 67 | 192 | 2.0 | 3.0 | 0.00 | 0.00 | 0.00 | 95 | 1018.4 |
| 20260906075909 | 67 | 192 | 1.0 | 3.0 | 0.00 | 0.00 | 0.00 | 95 | 1018.4 |
| 20260906075819 | 67 | 192 | 2.0 | 3.0 | 0.00 | 0.00 | 0.00 | 95 | 1018.4 |
| 20260906075657 | 67 | 192 | 2.0 | 3.0 | 0.00 | 0.00 | 0.00 | 95 | 1018.4 |
| 20260906075602 | 67 | 192 | 2.0 | 3.0 | 0.00 | 0.00 | 0.00 | 94 | 1018.4 |
| 20260906075507 | 67 | 192 | 2.0 | 3.0 | 0.00 | 0.00 | 0.00 | 94 | 1018.4 |
| 20260906075412 | 67 | 192 | 2.0 | 3.0 | 0.00 | 0.00 | 0.00 | 94 | 1018.3 |
| 20260906075316 | 67 | 192 | 2.0 | 3.0 | 0.00 | 0.00 | 0.00 | 94 | 1018.3 |
| 20260906075203 | 67 | 192 | 2.0 | 3.0 | 0.00 | 0.00 | 0.00 | 94 | 1018.4 |
| 20260906075128 | 67 | 192 | 2.0 | 3.0 | 0.00 | 0.00 | 0.00 | 94 | 1018.4 |
| 20260906075012 | 67 | 192 | 1.0 | 3.0 | 0.00 | 0.00 | 0.00 | 94 | 1018.4 |
| 20260906074914 | 67 | 192 | 1.0 | 3.0 | 0.00 | 0.00 | 0.00 | 94 | 1018.4 |
| 20260906074819 | 67 | 192 | 1.0 | 3.0 | 0.00 | 0.00 | 0.00 | 94 | 1018.5 |
| 20260906074657 | 67 | 192 | 2.0 | 3.0 | 0.00 | 0.00 | 0.00 | 95 | 1018.4 |
| 20260906074606 | 67 | 192 | 2.0 | 3.0 | 0.00 | 0.00 | 0.00 | 94 | 1018.4 |
| 20260906074531 | 67 | 192 | 2.0 | 3.0 | 0.00 | 0.00 | 0.00 | 95 | 1018.5 |
| 20260906074434 | 67 | 192 | 1.0 | 3.0 | 0.00 | 0.00 | 0.00 | 94 | 1018.4 |
| 20260906074258 | 67 | 192 | 2.0 | 3.0 | 0.00 | 0.00 | 0.00 | 95 | 1018.4 |
| 20260906074203 | 68 | 192 | 2.0 | 3.0 | 0.00 | 0.00 | 0.00 | 95 | 1018.4 |
| 20260906074107 | 68 | 192 | 2.0 | 3.0 | 0.00 | 0.00 | 0.00 | 95 | 1018.4 |
| 20260906074011 | 68 | 192 | 2.0 | 3.0 | 0.00 | 0.00 | 0.00 | 94 | 1018.5 |
| 20260906073921 | 68 | 192 | 2.0 | 3.0 | 0.00 | 0.00 | 0.00 | 94 | 1018.4 |
| 20260906073803 | 68 | 192 | 2.0 | 3.0 | 0.00 | 0.00 | 0.00 | 94 | 1018.4 |
| 20260906073727 | 68 | 192 | 1.0 | 3.0 | 0.00 | 0.00 | 0.00 | 94 | 1018.4 |
| 20260906073610 | 68 | 192 | 1.0 | 3.0 | 0.00 | 0.00 | 0.00 | 94 | 1018.5 |
| 20260906073515 | 68 | 192 | 2.0 | 3.0 | 0.00 | 0.00 | 0.00 | 94 | 1018.4 |
| 20260906073421 | 68 | 192 | 2.0 | 3.0 | 0.00 | 0.00 | 0.00 | 94 | 1018.4 |
| 20260906073258 | 68 | 192 | 2.0 | 3.0 | 0.00 | 0.00 | 0.00 | 94 | 1018.4 |
| 20260906073207 | 68 | 192 | 1.0 | 3.0 | 0.00 | 0.00 | 0.00 | 94 | 1018.4 |
| 20260906073111 | 68 | 192 | 1.0 | 2.0 | 0.00 | 0.00 | 0.00 | 94 | 1018.5 |
| 20260906073016 | 68 | 192 | 1.0 | 2.0 | 0.00 | 0.00 | 0.00 | 94 | 1018.4 |
| 20260906072942 | 68 | 192 | 2.0 | 2.0 | 0.00 | 0.00 | 0.00 | 94 | 1018.4 |
| 20260906072759 | 68 | 192 | 1.0 | 2.0 | 0.00 | 0.00 | 0.00 | 94 | 1018.4 |
| 20260906072704 | 68 | 192 | 2.0 | 2.0 | 0.00 | 0.00 | 0.00 | 94 | 1018.5 |
| 20260906072609 | 68 | 192 | 1.0 | 2.0 | 0.00 | 0.00 | 0.00 | 94 | 1018.5 |
| 20260906072457 | 68 | 192 | 1.0 | 2.0 | 0.00 | 0.00 | 0.00 | 94 | 1018.6 |
| 20260906072421 | 68 | 192 | 1.0 | 2.0 | 0.00 | 0.00 | 0.00 | 94 | 1018.6 |
| 20260906072259 | 68 | 192 | 0.0 | 1.0 | 0.00 | 0.00 | 0.00 | 94 | 1018.6 |
| 20260906072204 | 68 | 192 | 0.0 | 2.0 | 0.00 | 0.00 | 0.00 | 94 | 1018.6 |
| 20260906072108 | 68 | 192 | 0.0 | 2.0 | 0.00 | 0.00 | 0.00 | 94 | 1018.6 |
| 20260906071957 | 68 | 192 | 0.0 | 2.0 | 0.00 | 0.00 | 0.00 | 94 | 1018.6 |
| 20260906071901 | 68 | 192 | 0.0 | 3.0 | 0.00 | 0.00 | 0.00 | 94 | 1018.6 |
| 20260906071807 | 68 | 192 | 0.0 | 3.0 | 0.00 | 0.00 | 0.00 | 94 | 1018.6 |
| 20260906071712 | 68 | 192 | 0.0 | 3.0 | 0.00 | 0.00 | 0.00 | 94 | 1018.6 |
| 20260906071637 | 68 | 192 | 0.0 | 3.0 | 0.00 | 0.00 | 0.00 | 94 | 1018.6 |
| 20260906071520 | 68 | 192 | 0.0 | 3.0 | 0.00 | 0.00 | 0.00 | 94 | 1018.6 |
| 20260906071404 | 68 | 192 | 1.0 | 3.0 | 0.00 | 0.00 | 0.00 | 94 | 1018.6 |
| 20260906071313 | 68 | 192 | 2.0 | 3.0 | 0.00 | 0.00 | 0.00 | 94 | 1018.6 |
| 20260906071157 | 68 | 192 | 2.0 | 3.0 | 0.00 | 0.00 | 0.00 | 94 | 1018.6 |
| 20260906071102 | 68 | 192 | 2.0 | 3.0 | 0.00 | 0.00 | 0.00 | 94 | 1018.6 |
| 20260906071007 | 68 | 192 | 2.0 | 3.0 | 0.00 | 0.00 | 0.00 | 94 | 1018.6 |
| 20260906070911 | 68 | 192 | 2.0 | 3.0 | 0.00 | 0.00 | 0.00 | 94 | 1018.6 |
| 20260906070815 | 68 | 192 | 2.0 | 3.0 | 0.00 | 0.00 | 0.00 | 94 | 1018.6 |
| 20260906070704 | 68 | 192 | 2.0 | 3.0 | 0.00 | 0.00 | 0.00 | 94 | 1018.6 |
| 20260906070628 | 68 | 192 | 1.0 | 3.0 | 0.00 | 0.00 | 0.00 | 94 | 1018.6 |
| 20260906070533 | 68 | 192 | 2.0 | 3.0 | 0.00 | 0.00 | 0.00 | 94 | 1018.6 |
| 20260906070417 | 68 | 192 | 2.0 | 3.0 | 0.00 | 0.00 | 0.00 | 94 | 1018.6 |
| 20260906070342 | 68 | 192 | 2.0 | 3.0 | 0.00 | 0.00 | 0.00 | 94 | 1018.7 |
| 20260906070158 | 68 | 192 | 2.0 | 3.0 | 0.00 | 0.00 | 0.00 | 94 | 1018.6 |
| 20260906070123 | 68 | 192 | 2.0 | 3.0 | 0.00 | 0.00 | 0.00 | 94 | 1018.7 |
| 20260906070006 | 68 | 192 | 2.0 | 3.0 | 0.00 | 0.00 | 0.00 | 94 | 1018.7 |
| 20260906065932 | 68 | 192 | 3.0 | 3.0 | 0.00 | 0.00 | 0.00 | 94 | 1018.8 |
| 20260906065819 | 68 | 192 | 2.0 | 3.0 | 0.00 | 0.00 | 0.00 | 94 | 1018.8 |
| 20260906065723 | 68 | 192 | 2.0 | 3.0 | 0.00 | 0.00 | 0.00 | 94 | 1018.8 |
| 20260906065607 | 68 | 192 | 1.0 | 3.0 | 0.00 | 0.00 | 0.00 | 94 | 1018.8 |
| 20260906065512 | 68 | 192 | 1.0 | 3.0 | 0.00 | 0.00 | 0.00 | 94 | 1018.9 |
| 20260906065416 | 68 | 192 | 1.0 | 3.0 | 0.00 | 0.00 | 0.00 | 94 | 1018.8 |
| 20260906065342 | 68 | 192 | 1.0 | 3.0 | 0.00 | 0.00 | 0.00 | 94 | 1018.8 |
| 20260906065158 | 68 | 192 | 2.0 | 3.0 | 0.00 | 0.00 | 0.00 | 94 | 1018.9 |
| 20260906065106 | 68 | 192 | 2.0 | 3.0 | 0.00 | 0.00 | 0.00 | 94 | 1018.9 |
| 20260906065010 | 68 | 192 | 2.0 | 3.0 | 0.00 | 0.00 | 0.00 | 94 | 1018.8 |
| 20260906064915 | 68 | 192 | 2.0 | 3.0 | 0.00 | 0.00 | 0.00 | 94 | 1018.8 |
| 20260906064821 | 68 | 192 | 2.0 | 4.0 | 0.00 | 0.00 | 0.00 | 93 | 1018.9 |
| 20260906064659 | 68 | 192 | 1.0 | 4.0 | 0.00 | 0.00 | 0.00 | 94 | 1018.8 |
| 20260906064604 | 68 | 192 | 1.0 | 4.0 | 0.00 | 0.00 | 0.00 | 94 | 1018.9 |
| 20260906064532 | 68 | 192 | 1.0 | 4.0 | 0.00 | 0.00 | 0.00 | 94 | 1018.9 |
| 20260906064415 | 68 | 192 | 0.0 | 4.0 | 0.00 | 0.00 | 0.00 | 94 | 1018.8 |
| 20260906064320 | 68 | 192 | 0.0 | 4.0 | 0.00 | 0.00 | 0.00 | 94 | 1018.8 |
| 20260906064203 | 68 | 192 | 1.0 | 4.0 | 0.00 | 0.00 | 0.00 | 94 | 1018.9 |
| 20260906064127 | 68 | 192 | 2.0 | 4.0 | 0.00 | 0.00 | 0.00 | 94 | 1018.9 |
| 20260906064031 | 68 | 192 | 2.0 | 4.0 | 0.00 | 0.00 | 0.00 | 94 | 1018.8 |
| 20260906063915 | 68 | 192 | 2.0 | 4.0 | 0.00 | 0.00 | 0.00 | 94 | 1018.8 |
| 20260906063819 | 68 | 192 | 1.0 | 4.0 | 0.00 | 0.00 | 0.00 | 94 | 1018.8 |
| 20260906063705 | 68 | 192 | 2.0 | 4.0 | 0.00 | 0.00 | 0.00 | 94 | 1018.8 |
| 20260906063610 | 68 | 192 | 2.0 | 4.0 | 0.00 | 0.00 | 0.00 | 94 | 1018.8 |
| 20260906063515 | 68 | 192 | 3.0 | 4.0 | 0.00 | 0.00 | 0.00 | 94 | 1018.8 |
| 20260906063419 | 68 | 192 | 3.0 | 4.0 | 0.00 | 0.00 | 0.00 | 94 | 1018.8 |
| 20260906063322 | 68 | 192 | 3.0 | 4.0 | 0.00 | 0.00 | 0.00 | 93 | 1018.8 |
| 20260906063158 | 68 | 192 | 3.0 | 4.0 | 0.00 | 0.00 | 0.00 | 93 | 1018.8 |
| 20260906063108 | 68 | 192 | 3.0 | 4.0 | 0.00 | 0.00 | 0.00 | 93 | 1018.8 |
| 20260906063012 | 68 | 192 | 3.0 | 4.0 | 0.00 | 0.00 | 0.00 | 93 | 1018.8 |
| 20260906062857 | 68 | 192 | 4.0 | 4.0 | 0.00 | 0.00 | 0.00 | 93 | 1018.8 |
| 20260906062822 | 68 | 192 | 4.0 | 4.0 | 0.00 | 0.00 | 0.00 | 93 | 1018.8 |
| 20260906062706 | 68 | 192 | 3.0 | 4.0 | 0.00 | 0.00 | 0.00 | 93 | 1018.8 |
| 20260906062610 | 68 | 192 | 4.0 | 4.0 | 0.00 | 0.00 | 0.00 | 93 | 1018.8 |
| 20260906062458 | 68 | 192 | 3.0 | 4.0 | 0.00 | 0.00 | 0.00 | 94 | 1018.7 |
| 20260906062421 | 68 | 192 | 4.0 | 4.0 | 0.00 | 0.00 | 0.00 | 94 | 1018.7 |
| 20260906062259 | 68 | 192 | 3.0 | 4.0 | 0.00 | 0.00 | 0.00 | 94 | 1018.8 |
| 20260906062223 | 68 | 192 | 3.0 | 4.0 | 0.00 | 0.00 | 0.00 | 94 | 1018.8 |
| 20260906062105 | 68 | 192 | 3.0 | 4.0 | 0.00 | 0.00 | 0.00 | 93 | 1018.7 |
| 20260906062010 | 68 | 192 | 3.0 | 4.0 | 0.00 | 0.00 | 0.00 | 93 | 1018.7 |
| 20260906061915 | 68 | 192 | 3.0 | 4.0 | 0.00 | 0.00 | 0.00 | 93 | 1018.8 |
| 20260906061804 | 68 | 192 | 3.0 | 4.0 | 0.00 | 0.00 | 0.00 | 93 | 1018.8 |
| 20260906061708 | 68 | 191 | 3.0 | 4.0 | 0.00 | 0.00 | 0.00 | 92 | 1018.8 |
| 20260906061614 | 68 | 191 | 3.0 | 4.0 | 0.00 | 0.00 | 0.00 | 92 | 1018.7 |
| 20260906061457 | 68 | 191 | 3.0 | 4.0 | 0.00 | 0.00 | 0.00 | 92 | 1018.8 |
| 20260906061401 | 68 | 191 | 3.0 | 4.0 | 0.00 | 0.00 | 0.00 | 93 | 1018.8 |
| 20260906061326 | 69 | 191 | 2.0 | 4.0 | 0.00 | 0.00 | 0.00 | 93 | 1018.8 |
| 20260906061209 | 69 | 191 | 2.0 | 3.0 | 0.00 | 0.00 | 0.00 | 93 | 1018.8 |
| 20260906061138 | 69 | 191 | 2.0 | 3.0 | 0.00 | 0.00 | 0.00 | 93 | 1018.8 |
| 20260906061041 | 69 | 191 | 2.0 | 3.0 | 0.00 | 0.00 | 0.00 | 94 | 1018.8 |
| 20260906060859 | 69 | 191 | 2.0 | 3.0 | 0.00 | 0.00 | 0.00 | 93 | 1018.9 |
| 20260906060823 | 69 | 191 | 2.0 | 3.0 | 0.00 | 0.00 | 0.00 | 93 | 1018.9 |
| 20260906060701 | 69 | 191 | 2.0 | 4.0 | 0.00 | 0.00 | 0.00 | 93 | 1018.9 |
| 20260906060626 | 69 | 191 | 2.0 | 4.0 | 0.00 | 0.00 | 0.00 | 93 | 1018.9 |
| 20260906060509 | 69 | 191 | 2.0 | 4.0 | 0.00 | 0.00 | 0.00 | 93 | 1018.9 |
| 20260906060419 | 69 | 191 | 2.0 | 4.0 | 0.00 | 0.00 | 0.00 | 93 | 1018.9 |
| 20260906060257 | 69 | 191 | 2.0 | 4.0 | 0.00 | 0.00 | 0.00 | 94 | 1018.8 |
| 20260906060221 | 69 | 191 | 2.0 | 4.0 | 0.00 | 0.00 | 0.00 | 94 | 1018.8 |
| 20260906060059 | 69 | 191 | 2.0 | 4.0 | 0.00 | 0.00 | 0.00 | 93 | 1018.8 |
| 20260906060003 | 69 | 191 | 2.0 | 4.0 | 0.00 | 0.00 | 0.00 | 93 | 1018.8 |
| 20260906055906 | 69 | 191 | 3.0 | 4.0 | 0.00 | 0.00 | 0.00 | 93 | 1018.8 |
| 20260906055831 | 69 | 191 | 3.0 | 3.0 | 0.00 | 0.00 | 0.00 | 93 | 1018.8 |
| 20260906055718 | 69 | 191 | 2.0 | 3.0 | 0.00 | 0.00 | 0.00 | 93 | 1018.8 |
| 20260906055622 | 69 | 191 | 2.0 | 3.0 | 0.00 | 0.00 | 0.00 | 93 | 1018.8 |
| 20260906055501 | 69 | 191 | 2.0 | 3.0 | 0.00 | 0.00 | 0.00 | 93 | 1018.7 |
| 20260906055426 | 69 | 191 | 2.0 | 3.0 | 0.00 | 0.00 | 0.00 | 93 | 1018.9 |
| 20260906055329 | 69 | 191 | 2.0 | 3.0 | 0.00 | 0.00 | 0.00 | 93 | 1018.9 |
| 20260906055235 | 69 | 191 | 2.0 | 3.0 | 0.00 | 0.00 | 0.00 | 93 | 1018.8 |
| 20260906055119 | 69 | 191 | 1.0 | 3.0 | 0.00 | 0.00 | 0.00 | 93 | 1018.8 |
| 20260906055003 | 69 | 191 | 1.0 | 3.0 | 0.00 | 0.00 | 0.00 | 93 | 1018.8 |
| 20260906054912 | 69 | 191 | 1.0 | 3.0 | 0.00 | 0.00 | 0.00 | 94 | 1018.8 |
| 20260906054837 | 69 | 191 | 1.0 | 3.0 | 0.00 | 0.00 | 0.00 | 94 | 1018.8 |
| 20260906054720 | 69 | 191 | 1.0 | 3.0 | 0.00 | 0.00 | 0.00 | 94 | 1018.9 |
| 20260906054558 | 69 | 191 | 2.0 | 3.0 | 0.00 | 0.00 | 0.00 | 94 | 1018.8 |
| 20260906054503 | 69 | 191 | 2.0 | 3.0 | 0.00 | 0.00 | 0.00 | 94 | 1018.8 |
| 20260906054407 | 69 | 191 | 1.0 | 3.0 | 0.00 | 0.00 | 0.00 | 94 | 1018.8 |
| 20260906054333 | 69 | 191 | 2.0 | 3.0 | 0.00 | 0.00 | 0.00 | 94 | 1018.8 |
| 20260906054219 | 69 | 191 | 2.0 | 3.0 | 0.00 | 0.00 | 0.00 | 94 | 1018.8 |
| 20260906054057 | 69 | 191 | 1.0 | 3.0 | 0.00 | 0.00 | 0.00 | 94 | 1018.8 |
| 20260906054001 | 69 | 192 | 1.0 | 2.0 | 0.00 | 0.00 | 0.00 | 94 | 1018.8 |
| 20260906053926 | 69 | 191 | 1.0 | 2.0 | 0.00 | 0.00 | 0.00 | 94 | 1018.8 |
| 20260906053809 | 69 | 191 | 0.0 | 2.0 | 0.00 | 0.00 | 0.00 | 94 | 1018.8 |
| 20260906053714 | 69 | 191 | 0.0 | 0.0 | 0.00 | 0.00 | 0.00 | 94 | 1018.8 |
| 20260906053603 | 69 | 191 | 0.0 | 0.0 | 0.00 | 0.00 | 0.00 | 94 | 1018.8 |
| 20260906053507 | 69 | 191 | 0.0 | 0.0 | 0.00 | 0.00 | 0.00 | 94 | 1018.8 |
| 20260906053412 | 69 | 191 | 0.0 | 0.0 | 0.00 | 0.00 | 0.00 | 94 | 1018.8 |
| 20260906053257 | 69 | 191 | 0.0 | 0.0 | 0.00 | 0.00 | 0.00 | 94 | 1018.8 |
| 20260906053201 | 69 | 191 | 0.0 | 0.0 | 0.00 | 0.00 | 0.00 | 94 | 1018.8 |
| 20260906053107 | 69 | 191 | 0.0 | 0.0 | 0.00 | 0.00 | 0.00 | 94 | 1018.8 |
| 20260906053031 | 69 | 191 | 0.0 | 0.0 | 0.00 | 0.00 | 0.00 | 94 | 1018.7 |
| 20260906052919 | 69 | 191 | 0.0 | 0.0 | 0.00 | 0.00 | 0.00 | 94 | 1018.8 |
| 20260906052757 | 69 | 191 | 0.0 | 0.0 | 0.00 | 0.00 | 0.00 | 93 | 1018.8 |
| 20260906052721 | 69 | 191 | 0.0 | 1.0 | 0.00 | 0.00 | 0.00 | 93 | 1018.8 |
| 20260906052558 | 69 | 191 | 0.0 | 1.0 | 0.00 | 0.00 | 0.00 | 93 | 1018.8 |
| 20260906052504 | 69 | 191 | 0.0 | 2.0 | 0.00 | 0.00 | 0.00 | 93 | 1018.9 |
| 20260906052409 | 69 | 191 | 0.0 | 2.0 | 0.00 | 0.00 | 0.00 | 93 | 1018.9 |
| 20260906052257 | 69 | 191 | 0.0 | 2.0 | 0.00 | 0.00 | 0.00 | 94 | 1018.8 |
| 20260906052221 | 69 | 191 | 0.0 | 3.0 | 0.00 | 0.00 | 0.00 | 94 | 1018.8 |
| 20260906052058 | 69 | 191 | 0.0 | 3.0 | 0.00 | 0.00 | 0.00 | 94 | 1018.9 |
| 20260906052004 | 69 | 191 | 0.0 | 3.0 | 0.00 | 0.00 | 0.00 | 94 | 1018.9 |
| 20260906051909 | 69 | 191 | 0.0 | 3.0 | 0.00 | 0.00 | 0.00 | 94 | 1018.9 |
| 20260906051833 | 69 | 191 | 1.0 | 3.0 | 0.00 | 0.00 | 0.00 | 94 | 1018.9 |
| 20260906051721 | 69 | 191 | 1.0 | 3.0 | 0.00 | 0.00 | 0.00 | 94 | 1018.9 |
| 20260906051559 | 69 | 191 | 1.0 | 3.0 | 0.00 | 0.00 | 0.00 | 94 | 1018.8 |
| 20260906051523 | 69 | 191 | 2.0 | 3.0 | 0.00 | 0.00 | 0.00 | 94 | 1018.8 |
| 20260906051401 | 69 | 191 | 2.0 | 3.0 | 0.00 | 0.00 | 0.00 | 94 | 1018.8 |
| 20260906051305 | 69 | 191 | 2.0 | 3.0 | 0.00 | 0.00 | 0.00 | 94 | 1018.8 |
| 20260906051231 | 69 | 191 | 2.0 | 3.0 | 0.00 | 0.00 | 0.00 | 94 | 1018.8 |
| 20260906051135 | 69 | 192 | 2.0 | 3.0 | 0.00 | 0.00 | 0.00 | 94 | 1018.8 |
| 20260906051001 | 69 | 192 | 2.0 | 3.0 | 0.00 | 0.00 | 0.00 | 94 | 1018.7 |
| 20260906050906 | 69 | 192 | 1.0 | 2.0 | 0.00 | 0.00 | 0.00 | 94 | 1018.7 |
| 20260906050831 | 69 | 192 | 1.0 | 2.0 | 0.00 | 0.00 | 0.00 | 94 | 1018.7 |
| 20260906050735 | 69 | 192 | 0.0 | 1.0 | 0.00 | 0.00 | 0.00 | 94 | 1018.8 |
| 20260906050618 | 69 | 192 | 0.0 | 2.0 | 0.00 | 0.00 | 0.00 | 94 | 1018.7 |
| 20260906050542 | 69 | 192 | 0.0 | 2.0 | 0.00 | 0.00 | 0.00 | 94 | 1018.7 |
| 20260906050358 | 69 | 192 | 0.0 | 2.0 | 0.00 | 0.00 | 0.00 | 94 | 1018.7 |
| 20260906050302 | 69 | 192 | 0.0 | 2.0 | 0.00 | 0.00 | 0.00 | 94 | 1018.7 |
| 20260906050211 | 69 | 192 | 0.0 | 2.0 | 0.00 | 0.00 | 0.00 | 94 | 1018.7 |
| 20260906050107 | 69 | 192 | 0.0 | 2.0 | 0.00 | 0.00 | 0.00 | 94 | 1018.8 |
| 20260906050012 | 69 | 192 | 1.0 | 2.0 | 0.00 | 0.00 | 0.00 | 94 | 1018.8 |
| 20260906045937 | 69 | 192 | 1.0 | 2.0 | 0.00 | 0.00 | 0.00 | 94 | 1018.7 |
| 20260906045800 | 68 | 192 | 1.0 | 2.0 | 0.00 | 0.00 | 0.00 | 94 | 1018.7 |
| 20260906045705 | 69 | 192 | 0.0 | 2.0 | 0.00 | 0.00 | 0.00 | 94 | 1018.7 |
| 20260906045614 | 68 | 192 | 0.0 | 2.0 | 0.00 | 0.00 | 0.00 | 94 | 1018.7 |
| 20260906045458 | 68 | 192 | 0.0 | 2.0 | 0.00 | 0.00 | 0.00 | 94 | 1018.8 |
| 20260906045424 | 68 | 192 | 0.0 | 2.0 | 0.00 | 0.00 | 0.00 | 93 | 1018.7 |
| 20260906045326 | 68 | 192 | 0.0 | 2.0 | 0.00 | 0.00 | 0.00 | 94 | 1018.7 |
| 20260906045209 | 68 | 192 | 0.0 | 2.0 | 0.00 | 0.00 | 0.00 | 93 | 1018.7 |
| 20260906045112 | 68 | 192 | 1.0 | 2.0 | 0.00 | 0.00 | 0.00 | 93 | 1018.8 |
| 20260906045016 | 68 | 192 | 1.0 | 2.0 | 0.00 | 0.00 | 0.00 | 94 | 1018.8 |
| 20260906044905 | 68 | 192 | 1.0 | 2.0 | 0.00 | 0.00 | 0.00 | 93 | 1018.8 |
| 20260906044809 | 68 | 192 | 1.0 | 2.0 | 0.00 | 0.00 | 0.00 | 93 | 1018.8 |
| 20260906044713 | 68 | 192 | 1.0 | 2.0 | 0.00 | 0.00 | 0.00 | 93 | 1018.8 |
| 20260906044618 | 68 | 192 | 0.0 | 2.0 | 0.00 | 0.00 | 0.00 | 93 | 1018.8 |
| 20260906044521 | 68 | 192 | 0.0 | 2.0 | 0.00 | 0.00 | 0.00 | 93 | 1018.8 |
| 20260906044400 | 68 | 192 | 0.0 | 2.0 | 0.00 | 0.00 | 0.00 | 93 | 1018.8 |
| 20260906044304 | 68 | 192 | 1.0 | 2.0 | 0.00 | 0.00 | 0.00 | 93 | 1018.9 |
| 20260906044213 | 68 | 192 | 1.0 | 2.0 | 0.00 | 0.00 | 0.00 | 93 | 1018.9 |
| 20260906044117 | 68 | 192 | 1.0 | 2.0 | 0.00 | 0.00 | 0.00 | 93 | 1018.8 |
| 20260906044042 | 68 | 192 | 1.0 | 2.0 | 0.00 | 0.00 | 0.00 | 93 | 1018.8 |
| 20260906043859 | 68 | 192 | 1.0 | 2.0 | 0.00 | 0.00 | 0.00 | 93 | 1018.8 |
| 20260906043805 | 68 | 192 | 1.0 | 2.0 | 0.00 | 0.00 | 0.00 | 93 | 1018.8 |
| 20260906043709 | 68 | 192 | 1.0 | 2.0 | 0.00 | 0.00 | 0.00 | 93 | 1018.8 |
| 20260906043558 | 68 | 192 | 1.0 | 2.0 | 0.00 | 0.00 | 0.00 | 93 | 1018.8 |
| 20260906043523 | 68 | 192 | 1.0 | 2.0 | 0.00 | 0.00 | 0.00 | 93 | 1018.8 |
| 20260906043426 | 68 | 192 | 1.0 | 2.0 | 0.00 | 0.00 | 0.00 | 93 | 1018.8 |
| 20260906043309 | 68 | 192 | 1.0 | 2.0 | 0.00 | 0.00 | 0.00 | 93 | 1018.8 |
| 20260906043215 | 68 | 192 | 1.0 | 1.0 | 0.00 | 0.00 | 0.00 | 93 | 1018.9 |
| 20260906043058 | 68 | 192 | 1.0 | 1.0 | 0.00 | 0.00 | 0.00 | 93 | 1018.9 |
| 20260906043023 | 68 | 192 | 0.0 | 1.0 | 0.00 | 0.00 | 0.00 | 93 | 1018.9 |
| 20260906042906 | 68 | 192 | 0.0 | 0.0 | 0.00 | 0.00 | 0.00 | 93 | 1018.9 |
| 20260906042814 | 68 | 192 | 0.0 | 0.0 | 0.00 | 0.00 | 0.00 | 93 | 1018.9 |
| 20260906042659 | 68 | 192 | 0.0 | 0.0 | 0.00 | 0.00 | 0.00 | 93 | 1018.9 |
| 20260906042603 | 68 | 192 | 0.0 | 0.0 | 0.00 | 0.00 | 0.00 | 93 | 1018.9 |
| 20260906042527 | 68 | 192 | 0.0 | 0.0 | 0.00 | 0.00 | 0.00 | 93 | 1018.9 |
| 20260906042411 | 68 | 192 | 0.0 | 0.0 | 0.00 | 0.00 | 0.00 | 93 | 1018.9 |
| 20260906042315 | 68 | 192 | 0.0 | 0.0 | 0.00 | 0.00 | 0.00 | 93 | 1018.9 |
| 20260906042205 | 68 | 192 | 0.0 | 0.0 | 0.00 | 0.00 | 0.00 | 92 | 1018.9 |
| 20260906042109 | 68 | 192 | 0.0 | 1.0 | 0.00 | 0.00 | 0.00 | 92 | 1018.9 |
| 20260906042014 | 68 | 192 | 0.0 | 1.0 | 0.00 | 0.00 | 0.00 | 92 | 1018.9 |
| 20260906041858 | 68 | 192 | 0.0 | 2.0 | 0.00 | 0.00 | 0.00 | 92 | 1018.9 |
| 20260906041804 | 68 | 192 | 0.0 | 2.0 | 0.00 | 0.00 | 0.00 | 92 | 1018.9 |
| 20260906041707 | 68 | 192 | 0.0 | 2.0 | 0.00 | 0.00 | 0.00 | 92 | 1018.9 |
| 20260906041631 | 68 | 192 | 0.0 | 2.0 | 0.00 | 0.00 | 0.00 | 92 | 1018.9 |
| 20260906041520 | 68 | 192 | 0.0 | 2.0 | 0.00 | 0.00 | 0.00 | 92 | 1018.9 |
| 20260906041358 | 68 | 192 | 0.0 | 2.0 | 0.00 | 0.00 | 0.00 | 92 | 1018.9 |
| 20260906041302 | 68 | 192 | 1.0 | 2.0 | 0.00 | 0.00 | 0.00 | 92 | 1018.9 |
| 20260906041228 | 68 | 192 | 1.0 | 2.0 | 0.00 | 0.00 | 0.00 | 92 | 1018.9 |
| 20260906041111 | 69 | 192 | 1.0 | 2.0 | 0.00 | 0.00 | 0.00 | 92 | 1018.9 |
| 20260906041015 | 69 | 192 | 1.0 | 2.0 | 0.00 | 0.00 | 0.00 | 92 | 1018.9 |
| 20260906040904 | 69 | 192 | 1.0 | 2.0 | 0.00 | 0.00 | 0.00 | 92 | 1018.9 |
| 20260906040809 | 69 | 192 | 1.0 | 2.0 | 0.00 | 0.00 | 0.00 | 92 | 1018.9 |
| 20260906040713 | 69 | 192 | 0.0 | 2.0 | 0.00 | 0.00 | 0.00 | 92 | 1018.9 |
| 20260906040618 | 69 | 192 | 1.0 | 2.0 | 0.00 | 0.00 | 0.00 | 92 | 1018.9 |
| 20260906040502 | 69 | 192 | 1.0 | 2.0 | 0.00 | 0.00 | 0.00 | 92 | 1018.8 |
| 20260906040408 | 69 | 192 | 1.0 | 2.0 | 0.00 | 0.00 | 0.00 | 92 | 1018.8 |
| 20260906040311 | 69 | 192 | 1.0 | 2.0 | 0.00 | 0.00 | 0.00 | 92 | 1018.8 |
| 20260906040220 | 69 | 192 | 1.0 | 2.0 | 0.00 | 0.00 | 0.00 | 92 | 1018.9 |
| 20260906040057 | 69 | 192 | 0.0 | 2.0 | 0.00 | 0.00 | 0.00 | 92 | 1018.9 |
| 20260906040002 | 69 | 192 | 0.0 | 2.0 | 0.00 | 0.00 | 0.00 | 92 | 1018.9 |
| 20260906035906 | 69 | 192 | 0.0 | 2.0 | 0.00 | 0.00 | 0.00 | 92 | 1018.9 |
| 20260906035811 | 69 | 192 | 0.0 | 2.0 | 0.00 | 0.00 | 0.00 | 92 | 1018.9 |
| 20260906035700 | 69 | 192 | 1.0 | 2.0 | 0.00 | 0.00 | 0.00 | 92 | 1018.9 |
| 20260906035603 | 69 | 192 | 1.0 | 2.0 | 0.00 | 0.00 | 0.00 | 92 | 1018.9 |
| 20260906035508 | 69 | 192 | 1.0 | 2.0 | 0.00 | 0.00 | 0.00 | 92 | 1018.9 |
| 20260906035432 | 69 | 192 | 1.0 | 2.0 | 0.00 | 0.00 | 0.00 | 92 | 1018.9 |
| 20260906035315 | 69 | 192 | 1.0 | 2.0 | 0.00 | 0.00 | 0.00 | 92 | 1018.8 |
| 20260906035220 | 69 | 192 | 1.0 | 2.0 | 0.00 | 0.00 | 0.00 | 92 | 1018.9 |
| 20260906035057 | 69 | 192 | 1.0 | 1.0 | 0.00 | 0.00 | 0.00 | 92 | 1018.8 |
| 20260906035026 | 69 | 192 | 0.0 | 1.0 | 0.00 | 0.00 | 0.00 | 92 | 1018.9 |
| 20260906034909 | 69 | 192 | 0.0 | 0.0 | 0.00 | 0.00 | 0.00 | 92 | 1018.9 |
| 20260906034813 | 69 | 192 | 0.0 | 0.0 | 0.00 | 0.00 | 0.00 | 92 | 1018.8 |
| 20260906034736 | 69 | 192 | 0.0 | 0.0 | 0.00 | 0.00 | 0.00 | 92 | 1018.9 |
| 20260906034601 | 69 | 192 | 0.0 | 0.0 | 0.00 | 0.00 | 0.00 | 91 | 1018.9 |
| 20260906034505 | 69 | 192 | 0.0 | 1.0 | 0.00 | 0.00 | 0.00 | 91 | 1018.9 |
| 20260906034430 | 69 | 192 | 0.0 | 2.0 | 0.00 | 0.00 | 0.00 | 91 | 1018.9 |
| 20260906034258 | 69 | 192 | 0.0 | 2.0 | 0.00 | 0.00 | 0.00 | 91 | 1018.9 |
| 20260906034203 | 69 | 192 | 0.0 | 2.0 | 0.00 | 0.00 | 0.00 | 91 | 1018.9 |
| 20260906034106 | 69 | 192 | 0.0 | 2.0 | 0.00 | 0.00 | 0.00 | 91 | 1018.9 |
| 20260906034012 | 69 | 192 | 0.0 | 2.0 | 0.00 | 0.00 | 0.00 | 91 | 1018.9 |
| 20260906033936 | 69 | 192 | 0.0 | 2.0 | 0.00 | 0.00 | 0.00 | 91 | 1018.9 |
| 20260906033800 | 69 | 192 | 1.0 | 2.0 | 0.00 | 0.00 | 0.00 | 91 | 1018.9 |
| 20260906033708 | 69 | 192 | 1.0 | 2.0 | 0.00 | 0.00 | 0.00 | 91 | 1018.9 |
| 20260906033612 | 69 | 192 | 1.0 | 2.0 | 0.00 | 0.00 | 0.00 | 91 | 1018.9 |
| 20260906033517 | 69 | 192 | 2.0 | 2.0 | 0.00 | 0.00 | 0.00 | 91 | 1019.0 |
| 20260906033402 | 69 | 192 | 2.0 | 2.0 | 0.00 | 0.00 | 0.00 | 91 | 1018.9 |
| 20260906033327 | 69 | 192 | 2.0 | 2.0 | 0.00 | 0.00 | 0.00 | 91 | 1018.9 |
| 20260906033209 | 69 | 192 | 2.0 | 2.0 | 0.00 | 0.00 | 0.00 | 91 | 1018.9 |
| 20260906033113 | 69 | 192 | 2.0 | 2.0 | 0.00 | 0.00 | 0.00 | 90 | 1018.9 |
| 20260906033021 | 69 | 192 | 1.0 | 2.0 | 0.00 | 0.00 | 0.00 | 90 | 1018.9 |
| 20260906032926 | 69 | 192 | 1.0 | 2.0 | 0.00 | 0.00 | 0.00 | 90 | 1019.0 |
| 20260906032809 | 69 | 192 | 1.0 | 2.0 | 0.00 | 0.00 | 0.00 | 90 | 1019.0 |
| 20260906032713 | 69 | 192 | 0.0 | 2.0 | 0.00 | 0.00 | 0.00 | 90 | 1019.0 |
| 20260906032558 | 69 | 192 | 0.0 | 0.0 | 0.00 | 0.00 | 0.00 | 90 | 1019.0 |
| 20260906032504 | 69 | 192 | 0.0 | 0.0 | 0.00 | 0.00 | 0.00 | 90 | 1019.0 |
| 20260906032428 | 69 | 192 | 0.0 | 1.0 | 0.00 | 0.00 | 0.00 | 90 | 1019.0 |
| 20260906032256 | 69 | 192 | 0.0 | 1.0 | 0.00 | 0.00 | 0.00 | 90 | 1019.1 |
| 20260906032202 | 69 | 192 | 0.0 | 1.0 | 0.00 | 0.00 | 0.00 | 89 | 1019.0 |
| 20260906032107 | 69 | 192 | 0.0 | 1.0 | 0.00 | 0.00 | 0.00 | 89 | 1019.1 |
| 20260906032011 | 69 | 192 | 0.0 | 1.0 | 0.00 | 0.00 | 0.00 | 89 | 1019.1 |
| 20260906031936 | 69 | 192 | 0.0 | 1.0 | 0.00 | 0.00 | 0.00 | 89 | 1019.1 |
| 20260906031800 | 69 | 192 | 0.0 | 1.0 | 0.00 | 0.00 | 0.00 | 89 | 1019.1 |
| 20260906031708 | 69 | 192 | 0.0 | 1.0 | 0.00 | 0.00 | 0.00 | 89 | 1019.1 |
| 20260906031613 | 69 | 192 | 0.0 | 1.0 | 0.00 | 0.00 | 0.00 | 89 | 1019.2 |
| 20260906031519 | 70 | 192 | 0.0 | 1.0 | 0.00 | 0.00 | 0.00 | 89 | 1019.1 |
| 20260906031444 | 70 | 192 | 0.0 | 1.0 | 0.00 | 0.00 | 0.00 | 89 | 1019.1 |
| 20260906031300 | 70 | 192 | 0.0 | 1.0 | 0.00 | 0.00 | 0.00 | 89 | 1019.0 |
| 20260906031204 | 70 | 192 | 0.0 | 2.0 | 0.00 | 0.00 | 0.00 | 89 | 1019.1 |
| 20260906031109 | 70 | 192 | 0.0 | 2.0 | 0.00 | 0.00 | 0.00 | 89 | 1019.1 |
| 20260906031017 | 70 | 192 | 0.0 | 2.0 | 0.00 | 0.00 | 0.00 | 89 | 1019.0 |
| 20260906030942 | 70 | 192 | 0.0 | 2.0 | 0.00 | 0.00 | 0.00 | 88 | 1019.1 |
| 20260906030759 | 70 | 192 | 0.0 | 2.0 | 0.00 | 0.00 | 0.00 | 89 | 1019.1 |
| 20260906030704 | 70 | 192 | 0.0 | 2.0 | 0.00 | 0.00 | 0.00 | 89 | 1019.0 |
| 20260906030608 | 70 | 192 | 1.0 | 2.0 | 0.00 | 0.00 | 0.00 | 89 | 1019.0 |
| 20260906030514 | 70 | 192 | 1.0 | 2.0 | 0.00 | 0.00 | 0.00 | 89 | 1019.1 |
| 20260906030422 | 70 | 192 | 1.0 | 2.0 | 0.00 | 0.00 | 0.00 | 89 | 1019.0 |
| 20260906030258 | 70 | 192 | 1.0 | 2.0 | 0.00 | 0.00 | 0.00 | 89 | 1019.1 |
| 20260906030202 | 70 | 192 | 1.0 | 2.0 | 0.00 | 0.00 | 0.00 | 89 | 1019.1 |
| 20260906030108 | 70 | 192 | 1.0 | 2.0 | 0.00 | 0.00 | 0.00 | 89 | 1019.0 |
| 20260906030012 | 70 | 192 | 1.0 | 2.0 | 0.00 | 0.00 | 0.00 | 89 | 1019.0 |
| 20260906025916 | 70 | 192 | 1.0 | 2.0 | 0.00 | 0.00 | 0.00 | 88 | 1019.1 |
| 20260906025804 | 70 | 192 | 1.0 | 1.0 | 0.00 | 0.00 | 0.00 | 88 | 1019.1 |
| 20260906025706 | 70 | 192 | 1.0 | 1.0 | 0.00 | 0.00 | 0.00 | 87 | 1019.1 |
| 20260906025609 | 70 | 192 | 0.0 | 1.0 | 0.00 | 0.00 | 0.00 | 87 | 1019.1 |
| 20260906025514 | 70 | 192 | 0.0 | 1.0 | 0.00 | 0.00 | 0.00 | 87 | 1019.1 |
| 20260906025401 | 70 | 192 | 0.0 | 1.0 | 0.00 | 0.00 | 0.00 | 87 | 1019.2 |
| 20260906025324 | 70 | 192 | 0.0 | 1.0 | 0.00 | 0.00 | 0.00 | 87 | 1019.2 |
| 20260906025208 | 70 | 192 | 0.0 | 1.0 | 0.00 | 0.00 | 0.00 | 87 | 1019.2 |
| 20260906025057 | 70 | 192 | 0.0 | 1.0 | 0.00 | 0.00 | 0.00 | 87 | 1019.3 |
| 20260906025022 | 70 | 192 | 0.0 | 1.0 | 0.00 | 0.00 | 0.00 | 87 | 1019.3 |
| 20260906024859 | 70 | 192 | 0.0 | 0.0 | 0.00 | 0.00 | 0.00 | 87 | 1019.4 |
| 20260906024803 | 70 | 192 | 0.0 | 0.0 | 0.00 | 0.00 | 0.00 | 87 | 1019.3 |
| 20260906024729 | 70 | 192 | 0.0 | 0.0 | 0.00 | 0.00 | 0.00 | 87 | 1019.3 |
| 20260906024632 | 70 | 192 | 0.0 | 0.0 | 0.00 | 0.00 | 0.00 | 87 | 1019.3 |
| 20260906024500 | 70 | 192 | 0.0 | 0.0 | 0.00 | 0.00 | 0.00 | 87 | 1019.2 |
| 20260906024405 | 70 | 192 | 0.0 | 0.0 | 0.00 | 0.00 | 0.00 | 87 | 1019.2 |
| 20260906024329 | 70 | 192 | 0.0 | 0.0 | 0.00 | 0.00 | 0.00 | 87 | 1019.2 |
| 20260906024213 | 70 | 192 | 0.0 | 0.0 | 0.00 | 0.00 | 0.00 | 86 | 1019.1 |
| 20260906024058 | 71 | 192 | 0.0 | 0.0 | 0.00 | 0.00 | 0.00 | 86 | 1019.1 |
| 20260906024004 | 71 | 192 | 0.0 | 0.0 | 0.00 | 0.00 | 0.00 | 86 | 1019.1 |
| 20260906023908 | 71 | 192 | 0.0 | 0.0 | 0.00 | 0.00 | 0.00 | 86 | 1019.1 |
| 20260906023837 | 71 | 192 | 0.0 | 0.0 | 0.00 | 0.00 | 0.00 | 86 | 1019.1 |
| 20260906023700 | 71 | 192 | 0.0 | 0.0 | 0.00 | 0.00 | 0.00 | 86 | 1019.0 |
| 20260906023624 | 71 | 192 | 0.0 | 0.0 | 0.00 | 0.00 | 0.00 | 86 | 1019.0 |
| 20260906023528 | 71 | 192 | 0.0 | 0.0 | 0.00 | 0.00 | 0.00 | 86 | 1018.9 |
| 20260906023412 | 71 | 192 | 0.0 | 0.0 | 0.00 | 0.00 | 0.00 | 86 | 1018.9 |
| 20260906023257 | 71 | 192 | 0.0 | 0.0 | 0.00 | 0.00 | 0.00 | 86 | 1018.9 |
| 20260906023201 | 71 | 192 | 0.0 | 0.0 | 0.00 | 0.00 | 0.00 | 86 | 1018.9 |
| 20260906023110 | 71 | 192 | 0.0 | 0.0 | 0.00 | 0.00 | 0.00 | 86 | 1018.9 |
| 20260906023014 | 71 | 192 | 0.0 | 0.0 | 0.00 | 0.00 | 0.00 | 85 | 1018.9 |
| 20260906022920 | 71 | 192 | 0.0 | 1.0 | 0.00 | 0.00 | 0.00 | 85 | 1018.8 |
| 20260906022757 | 71 | 192 | 0.0 | 1.0 | 0.00 | 0.00 | 0.00 | 85 | 1018.8 |
| 20260906022721 | 71 | 192 | 0.0 | 1.0 | 0.00 | 0.00 | 0.00 | 85 | 1018.9 |
| 20260906022604 | 71 | 192 | 0.0 | 1.0 | 0.00 | 0.00 | 0.00 | 85 | 1018.8 |
| 20260906022513 | 71 | 192 | 0.0 | 1.0 | 0.00 | 0.00 | 0.00 | 85 | 1018.8 |
| 20260906022417 | 71 | 192 | 0.0 | 2.0 | 0.00 | 0.00 | 0.00 | 84 | 1018.8 |
| 20260906022301 | 71 | 192 | 0.0 | 2.0 | 0.00 | 0.00 | 0.00 | 84 | 1018.9 |
| 20260906022206 | 71 | 192 | 0.0 | 2.0 | 0.00 | 0.00 | 0.00 | 84 | 1018.8 |
| 20260906022130 | 72 | 192 | 0.0 | 2.0 | 0.00 | 0.00 | 0.00 | 84 | 1018.7 |
| 20260906022032 | 72 | 192 | 1.0 | 2.0 | 0.00 | 0.00 | 0.00 | 84 | 1018.7 |
| 20260906021915 | 72 | 192 | 1.0 | 2.0 | 0.00 | 0.00 | 0.00 | 84 | 1018.7 |
| 20260906021805 | 72 | 192 | 1.0 | 2.0 | 0.00 | 0.00 | 0.00 | 84 | 1018.6 |
| 20260906021709 | 72 | 192 | 1.0 | 3.0 | 0.00 | 0.00 | 0.00 | 84 | 1018.6 |
| 20260906021614 | 72 | 192 | 1.0 | 3.0 | 0.00 | 0.00 | 0.00 | 84 | 1018.7 |
| 20260906021519 | 72 | 192 | 1.0 | 3.0 | 0.00 | 0.00 | 0.00 | 84 | 1018.5 |
| 20260906021357 | 72 | 192 | 1.0 | 3.0 | 0.00 | 0.00 | 0.00 | 84 | 1018.5 |
| 20260906021321 | 72 | 192 | 1.0 | 3.0 | 0.00 | 0.00 | 0.00 | 85 | 1018.5 |
| 20260906021205 | 72 | 192 | 2.0 | 3.0 | 0.00 | 0.00 | 0.00 | 85 | 1018.4 |
| 20260906021113 | 72 | 192 | 2.0 | 3.0 | 0.00 | 0.00 | 0.00 | 84 | 1018.4 |
| 20260906021016 | 72 | 192 | 2.0 | 3.0 | 0.00 | 0.00 | 0.00 | 84 | 1018.4 |
| 20260906020920 | 72 | 192 | 2.0 | 3.0 | 0.00 | 0.00 | 0.00 | 84 | 1018.4 |
| 20260906020757 | 73 | 192 | 2.0 | 3.0 | 0.00 | 0.00 | 0.00 | 84 | 1018.4 |
| 20260906020702 | 73 | 192 | 3.0 | 3.0 | 0.00 | 0.00 | 0.00 | 84 | 1018.3 |
| 20260906020627 | 73 | 192 | 2.0 | 3.0 | 0.00 | 0.00 | 0.00 | 83 | 1018.3 |
| 20260906020510 | 73 | 192 | 2.0 | 3.0 | 0.00 | 0.00 | 0.00 | 83 | 1018.3 |
| 20260906020420 | 73 | 192 | 2.0 | 2.0 | 0.00 | 0.00 | 0.00 | 83 | 1018.3 |
| 20260906020257 | 73 | 192 | 1.0 | 2.0 | 0.00 | 0.00 | 0.00 | 83 | 1018.1 |
| 20260906020221 | 73 | 192 | 1.0 | 2.0 | 0.00 | 0.00 | 0.00 | 83 | 1018.1 |
| 20260906020059 | 73 | 192 | 1.0 | 2.0 | 0.00 | 0.00 | 0.00 | 83 | 1018.0 |
| 20260906020004 | 73 | 192 | 0.0 | 1.0 | 0.00 | 0.00 | 0.00 | 82 | 1018.0 |
| 20260906015909 | 73 | 192 | 0.0 | 1.0 | 0.00 | 0.00 | 0.00 | 82 | 1018.0 |
| 20260906015757 | 73 | 192 | 0.0 | 0.0 | 0.00 | 0.00 | 0.00 | 82 | 1017.9 |
| 20260906015702 | 73 | 192 | 0.0 | 0.0 | 0.00 | 0.00 | 0.00 | 82 | 1017.9 |
| 20260906015628 | 73 | 192 | 0.0 | 0.0 | 0.00 | 0.00 | 0.00 | 82 | 1017.9 |
| 20260906015511 | 74 | 192 | 0.0 | 1.0 | 0.00 | 0.00 | 0.00 | 82 | 1017.9 |
| 20260906015357 | 74 | 192 | 0.0 | 1.0 | 0.00 | 0.00 | 0.00 | 82 | 1017.8 |
| 20260906015301 | 74 | 192 | 0.0 | 1.0 | 0.00 | 0.00 | 0.00 | 82 | 1017.8 |
| 20260906015208 | 74 | 192 | 0.0 | 1.0 | 0.00 | 0.00 | 0.00 | 82 | 1017.7 |
| 20260906015112 | 74 | 192 | 0.0 | 1.0 | 0.00 | 0.00 | 0.00 | 81 | 1017.7 |
| 20260906015018 | 74 | 192 | 0.0 | 1.0 | 0.00 | 0.00 | 0.00 | 81 | 1017.7 |
| 20260906014901 | 74 | 192 | 0.0 | 1.0 | 0.00 | 0.00 | 0.00 | 81 | 1017.7 |
| 20260906014807 | 74 | 192 | 0.0 | 1.0 | 0.00 | 0.00 | 0.00 | 81 | 1017.7 |
| 20260906014711 | 74 | 192 | 0.0 | 1.0 | 0.00 | 0.00 | 0.00 | 81 | 1017.7 |
| 20260906014600 | 74 | 192 | 0.0 | 1.0 | 0.00 | 0.00 | 0.00 | 81 | 1017.6 |
| 20260906014504 | 74 | 192 | 0.0 | 1.0 | 0.00 | 0.00 | 0.00 | 80 | 1017.6 |
| 20260906014408 | 74 | 192 | 0.0 | 1.0 | 0.00 | 0.00 | 0.00 | 80 | 1017.5 |
| 20260906014311 | 75 | 192 | 0.0 | 1.0 | 0.00 | 0.00 | 0.00 | 80 | 1017.5 |
| 20260906014215 | 75 | 192 | 1.0 | 1.0 | 0.00 | 0.00 | 0.00 | 80 | 1017.5 |
| 20260906014101 | 75 | 192 | 0.0 | 2.0 | 0.00 | 0.00 | 0.00 | 80 | 1017.4 |
| 20260906014010 | 75 | 192 | 0.0 | 2.0 | 0.00 | 0.00 | 0.00 | 80 | 1017.4 |
| 20260906013935 | 75 | 192 | 0.0 | 2.0 | 0.00 | 0.00 | 0.00 | 79 | 1017.4 |
| 20260906013759 | 75 | 192 | 0.0 | 2.0 | 0.00 | 0.00 | 0.00 | 79 | 1017.4 |
| 20260906013702 | 75 | 192 | 0.0 | 3.0 | 0.00 | 0.00 | 0.00 | 79 | 1017.3 |
| 20260906013608 | 75 | 192 | 0.0 | 3.0 | 0.00 | 0.00 | 0.00 | 79 | 1017.3 |
| 20260906013512 | 75 | 192 | 0.0 | 4.0 | 0.00 | 0.00 | 0.00 | 79 | 1017.3 |
| 20260906013422 | 75 | 192 | 0.0 | 4.0 | 0.00 | 0.00 | 0.00 | 79 | 1017.4 |
| 20260906013259 | 76 | 192 | 1.0 | 4.0 | 0.00 | 0.00 | 0.00 | 79 | 1017.2 |
| 20260906013203 | 76 | 192 | 1.0 | 4.0 | 0.00 | 0.00 | 0.00 | 79 | 1017.2 |
| 20260906013107 | 76 | 192 | 1.0 | 4.0 | 0.00 | 0.00 | 0.00 | 78 | 1017.2 |
| 20260906013011 | 76 | 192 | 1.0 | 4.0 | 0.00 | 0.00 | 0.00 | 78 | 1017.2 |
| 20260906012915 | 76 | 192 | 2.0 | 4.0 | 0.00 | 0.00 | 0.00 | 78 | 1017.2 |
| 20260906012804 | 76 | 192 | 2.0 | 4.0 | 0.00 | 0.00 | 0.00 | 78 | 1017.2 |
| 20260906012729 | 76 | 192 | 2.0 | 4.0 | 0.00 | 0.00 | 0.00 | 78 | 1017.1 |
| 20260906012612 | 76 | 215 | 2.0 | 4.0 | 0.00 | 0.00 | 0.00 | 78 | 1017.1 |
| 20260906012456 | 76 | 215 | 3.0 | 4.0 | 0.00 | 0.00 | 0.00 | 77 | 1017.1 |
| 20260906012422 | 76 | 215 | 3.0 | 4.0 | 0.00 | 0.00 | 0.00 | 77 | 1017.1 |
| 20260906012306 | 76 | 216 | 3.0 | 4.0 | 0.00 | 0.00 | 0.00 | 77 | 1017.1 |
| 20260906012210 | 76 | 216 | 3.0 | 4.0 | 0.00 | 0.00 | 0.00 | 77 | 1017.1 |
| 20260906012058 | 76 | 216 | 3.0 | 4.0 | 0.00 | 0.00 | 0.00 | 77 | 1017.1 |
| 20260906012003 | 76 | 216 | 2.0 | 4.0 | 0.00 | 0.00 | 0.00 | 77 | 1017.1 |
| 20260906011928 | 76 | 216 | 2.0 | 4.0 | 0.00 | 0.00 | 0.00 | 77 | 1017.1 |
| 20260906011811 | 76 | 216 | 2.0 | 4.0 | 0.00 | 0.00 | 0.00 | 77 | 1017.1 |
| 20260906011716 | 77 | 216 | 2.0 | 4.0 | 0.00 | 0.00 | 0.00 | 76 | 1017.1 |
| 20260906011600 | 77 | 216 | 2.0 | 5.0 | 0.00 | 0.00 | 0.00 | 76 | 1017.1 |
| 20260906011509 | 77 | 216 | 2.0 | 6.0 | 0.00 | 0.00 | 0.00 | 76 | 1017.1 |
| 20260906011414 | 77 | 216 | 3.0 | 6.0 | 0.00 | 0.00 | 0.00 | 76 | 1017.1 |
| 20260906011259 | 77 | 216 | 3.0 | 6.0 | 0.00 | 0.00 | 0.00 | 76 | 1017.1 |
| 20260906011204 | 77 | 216 | 3.0 | 6.0 | 0.00 | 0.00 | 0.00 | 76 | 1017.1 |
| 20260906011107 | 77 | 216 | 3.0 | 6.0 | 0.00 | 0.00 | 0.00 | 76 | 1017.0 |
| 20260906011011 | 77 | 216 | 3.0 | 6.0 | 0.00 | 0.00 | 0.00 | 76 | 1017.0 |
| 20260906010920 | 77 | 216 | 3.0 | 6.0 | 0.00 | 0.00 | 0.00 | 76 | 1017.1 |
| 20260906010756 | 77 | 216 | 4.0 | 6.0 | 0.00 | 0.00 | 0.00 | 76 | 1016.9 |
| 20260906010700 | 77 | 215 | 3.0 | 6.0 | 0.00 | 0.00 | 0.00 | 76 | 1016.9 |
| 20260906010605 | 77 | 217 | 3.0 | 7.0 | 0.00 | 0.00 | 0.00 | 75 | 1016.9 |
| 20260906010509 | 77 | 204 | 3.0 | 7.0 | 0.00 | 0.00 | 0.00 | 75 | 1016.9 |
| 20260906010358 | 78 | 204 | 3.0 | 7.0 | 0.00 | 0.00 | 0.00 | 75 | 1016.8 |
| 20260906010302 | 78 | 204 | 4.0 | 7.0 | 0.00 | 0.00 | 0.00 | 75 | 1016.7 |
| 20260906010207 | 78 | 203 | 3.0 | 7.0 | 0.00 | 0.00 | 0.00 | 75 | 1016.7 |
| 20260906010111 | 78 | 178 | 3.0 | 7.0 | 0.00 | 0.00 | 0.00 | 75 | 1016.7 |
| 20260906005956 | 78 | 198 | 3.0 | 7.0 | 0.00 | 0.00 | 0.00 | 75 | 1016.6 |
| 20260906005902 | 78 | 198 | 4.0 | 7.0 | 0.00 | 0.00 | 0.00 | 75 | 1016.6 |
| 20260906005810 | 78 | 199 | 5.0 | 7.0 | 0.00 | 0.00 | 0.00 | 75 | 1016.6 |
| 20260906005714 | 78 | 192 | 4.0 | 7.0 | 0.00 | 0.00 | 0.00 | 74 | 1016.6 |
| 20260906005558 | 78 | 194 | 3.0 | 7.0 | 0.00 | 0.00 | 0.00 | 74 | 1016.6 |
| 20260906005503 | 78 | 220 | 3.0 | 9.0 | 0.00 | 0.00 | 0.00 | 74 | 1016.6 |
| 20260906005407 | 78 | 221 | 3.0 | 9.0 | 0.00 | 0.00 | 0.00 | 74 | 1016.6 |
| 20260906005330 | 79 | 236 | 1.0 | 9.0 | 0.00 | 0.00 | 0.00 | 74 | 1016.6 |
| 20260906005235 | 79 | 240 | 2.0 | 9.0 | 0.00 | 0.00 | 0.00 | 74 | 1016.6 |
| 20260906005122 | 79 | 240 | 3.0 | 9.0 | 0.00 | 0.00 | 0.00 | 74 | 1016.6 |
| 20260906005005 | 79 | 213 | 4.0 | 11.0 | 0.00 | 0.00 | 0.00 | 74 | 1016.5 |
| 20260906004908 | 79 | 212 | 6.0 | 11.0 | 0.00 | 0.00 | 0.00 | 74 | 1016.5 |
| 20260906004812 | 79 | 231 | 6.0 | 11.0 | 0.00 | 0.00 | 0.00 | 74 | 1016.5 |
| 20260906004737 | 79 | 242 | 6.0 | 13.0 | 0.00 | 0.00 | 0.00 | 74 | 1016.5 |
| 20260906004601 | 79 | 260 | 7.0 | 13.0 | 0.00 | 0.00 | 0.00 | 74 | 1016.5 |
| 20260906004504 | 79 | 218 | 6.0 | 13.0 | 0.00 | 0.00 | 0.00 | 74 | 1016.4 |
| 20260906004434 | 79 | 205 | 6.0 | 13.0 | 0.00 | 0.00 | 0.00 | 74 | 1016.4 |
| 20260906004318 | 79 | 234 | 6.0 | 13.0 | 0.00 | 0.00 | 0.00 | 74 | 1016.4 |
| 20260906004240 | 79 | 224 | 6.0 | 13.0 | 0.00 | 0.00 | 0.00 | 74 | 1016.3 |
| 20260906004057 | 79 | 224 | 5.0 | 13.0 | 0.00 | 0.00 | 0.00 | 74 | 1016.2 |
| 20260906004001 | 79 | 213 | 7.0 | 13.0 | 0.00 | 0.00 | 0.00 | 74 | 1016.2 |
| 20260906003905 | 79 | 198 | 8.0 | 13.0 | 0.00 | 0.00 | 0.00 | 74 | 1016.1 |
| 20260906003830 | 79 | 207 | 7.0 | 14.0 | 0.00 | 0.00 | 0.00 | 74 | 1016.1 |
| 20260906003659 | 79 | 211 | 6.0 | 10.0 | 0.00 | 0.00 | 0.00 | 74 | 1016.0 |
| 20260906003603 | 79 | 197 | 7.0 | 10.0 | 0.00 | 0.00 | 0.00 | 74 | 1016.0 |
| 20260906003507 | 79 | 195 | 7.0 | 10.0 | 0.00 | 0.00 | 0.00 | 74 | 1016.1 |
| 20260906003431 | 79 | 193 | 7.0 | 10.0 | 0.00 | 0.00 | 0.00 | 74 | 1016.1 |
| 20260906003316 | 79 | 211 | 7.0 | 10.0 | 0.00 | 0.00 | 0.00 | 74 | 1016.1 |
| 20260906003221 | 79 | 201 | 7.0 | 10.0 | 0.00 | 0.00 | 0.00 | 73 | 1016.2 |
| 20260906003105 | 79 | 219 | 7.0 | 10.0 | 0.00 | 0.00 | 0.00 | 74 | 1016.1 |
| 20260906003013 | 79 | 207 | 8.0 | 10.0 | 0.00 | 0.00 | 0.00 | 74 | 1016.1 |
| 20260906002858 | 79 | 197 | 7.0 | 9.0 | 0.00 | 0.00 | 0.00 | 74 | 1016.1 |
| 20260906002823 | 79 | 206 | 7.0 | 9.0 | 0.00 | 0.00 | 0.00 | 74 | 1016.1 |
| 20260906002706 | 79 | 202 | 7.0 | 9.0 | 0.00 | 0.00 | 0.00 | 74 | 1016.1 |
| 20260906002610 | 80 | 218 | 6.0 | 9.0 | 0.00 | 0.00 | 0.00 | 74 | 1016.1 |
| 20260906002534 | 80 | 209 | 6.0 | 8.0 | 0.00 | 0.00 | 0.00 | 74 | 1016.1 |
| 20260906002400 | 80 | 209 | 5.0 | 8.0 | 0.00 | 0.00 | 0.00 | 73 | 1016.2 |
| 20260906002306 | 80 | 209 | 5.0 | 9.0 | 0.00 | 0.00 | 0.00 | 73 | 1016.1 |
| 20260906002229 | 80 | 213 | 5.0 | 10.0 | 0.00 | 0.00 | 0.00 | 73 | 1016.1 |
| 20260906002132 | 80 | 208 | 6.0 | 10.0 | 0.00 | 0.00 | 0.00 | 73 | 1016.1 |
| 20260906002017 | 80 | 194 | 6.0 | 10.0 | 0.00 | 0.00 | 0.00 | 73 | 1016.1 |
| 20260906001942 | 80 | 206 | 6.0 | 10.0 | 0.00 | 0.00 | 0.00 | 73 | 1016.1 |
| 20260906001758 | 80 | 202 | 6.0 | 10.0 | 0.00 | 0.00 | 0.00 | 73 | 1016.0 |
| 20260906001703 | 80 | 196 | 7.0 | 10.0 | 0.00 | 0.00 | 0.00 | 73 | 1016.0 |
| 20260906001612 | 80 | 190 | 7.0 | 10.0 | 0.00 | 0.00 | 0.00 | 73 | 1016.0 |
| 20260906001458 | 80 | 220 | 7.0 | 10.0 | 0.00 | 0.00 | 0.00 | 73 | 1016.1 |
| 20260906001401 | 80 | 205 | 8.0 | 10.0 | 0.00 | 0.00 | 0.00 | 73 | 1016.1 |
| 20260906001230 | 81 | 206 | 6.0 | 11.0 | 0.00 | 0.00 | 0.00 | 73 | 1016.1 |
| 20260906001114 | 81 | 212 | 6.0 | 10.0 | 0.00 | 0.00 | 0.00 | 73 | 1016.2 |
| 20260906001023 | 81 | 196 | 7.0 | 10.0 | 0.00 | 0.00 | 0.00 | 73 | 1016.2 |
| 20260906000900 | 81 | 201 | 6.0 | 10.0 | 0.00 | 0.00 | 0.00 | 73 | 1016.2 |
| 20260906000804 | 81 | 190 | 5.0 | 8.0 | 0.00 | 0.00 | 0.00 | 72 | 1016.2 |
| 20260906000708 | 81 | 166 | 5.0 | 8.0 | 0.00 | 0.00 | 0.00 | 73 | 1016.2 |
| 20260906000614 | 81 | 189 | 5.0 | 8.0 | 0.00 | 0.00 | 0.00 | 72 | 1016.3 |
| 20260906000519 | 81 | 193 | 5.0 | 8.0 | 0.00 | 0.00 | 0.00 | 72 | 1016.3 |
| 20260906000422 | 81 | 196 | 5.0 | 8.0 | 0.00 | 0.00 | 0.00 | 72 | 1016.2 |
| 20260906000311 | 81 | 196 | 5.0 | 8.0 | 0.00 | 0.00 | 0.00 | 72 | 1016.2 |
| 20260906000216 | 81 | 209 | 5.0 | 8.0 | 0.00 | 0.00 | 0.00 | 72 | 1016.2 |
| 20260906000121 | 81 | 224 | 5.0 | 8.0 | 0.00 | 0.00 | 0.00 | 72 | 1016.3 |
| 20260905235958 | 81 | 209 | 6.0 | 8.0 | 0.00 | 0.00 | 0.00 | 72 | 1016.3 |
| 20260905235903 | 81 | 205 | 6.0 | 8.0 | 0.00 | 0.00 | 0.00 | 72 | 1016.3 |
| 20260905235828 | 81 | 204 | 6.0 | 8.0 | 0.00 | 0.00 | 0.00 | 72 | 1016.3 |
| 20260905235716 | 81 | 198 | 5.0 | 8.0 | 0.00 | 0.00 | 0.00 | 72 | 1016.3 |
| 20260905235619 | 81 | 222 | 4.0 | 8.0 | 0.00 | 0.00 | 0.00 | 72 | 1016.4 |
| 20260905235457 | 81 | 196 | 4.0 | 11.0 | 0.00 | 0.00 | 0.00 | 72 | 1016.4 |
| 20260905235400 | 81 | 196 | 5.0 | 11.0 | 0.00 | 0.00 | 0.00 | 72 | 1016.4 |
| 20260905235306 | 81 | 178 | 5.0 | 11.0 | 0.00 | 0.00 | 0.00 | 72 | 1016.4 |
| 20260905235208 | 81 | 197 | 4.0 | 11.0 | 0.00 | 0.00 | 0.00 | 72 | 1016.4 |
| 20260905235116 | 82 | 196 | 5.0 | 11.0 | 0.00 | 0.00 | 0.00 | 72 | 1016.4 |
| 20260905235019 | 82 | 142 | 5.0 | 11.0 | 0.00 | 0.00 | 0.00 | 72 | 1016.4 |
| 20260905234856 | 82 | 171 | 5.0 | 11.0 | 0.00 | 0.00 | 0.00 | 71 | 1016.2 |
| 20260905234823 | 82 | 158 | 7.0 | 11.0 | 0.00 | 0.00 | 0.00 | 71 | 1016.2 |
| 20260905234700 | 82 | 188 | 7.0 | 11.0 | 0.00 | 0.00 | 0.00 | 71 | 1016.3 |
| 20260905234624 | 82 | 194 | 6.0 | 10.0 | 0.00 | 0.00 | 0.00 | 71 | 1016.3 |
| 20260905234508 | 82 | 183 | 6.0 | 12.0 | 0.00 | 0.00 | 0.00 | 71 | 1016.3 |
| 20260905234416 | 82 | 199 | 6.0 | 12.0 | 0.00 | 0.00 | 0.00 | 71 | 1016.3 |
| 20260905234321 | 82 | 194 | 7.0 | 12.0 | 0.00 | 0.00 | 0.00 | 71 | 1016.3 |
| 20260905234158 | 82 | 170 | 6.0 | 12.0 | 0.00 | 0.00 | 0.00 | 71 | 1016.3 |
| 20260905234104 | 82 | 161 | 5.0 | 12.0 | 0.00 | 0.00 | 0.00 | 71 | 1016.3 |
| 20260905234009 | 82 | 157 | 5.0 | 12.0 | 0.00 | 0.00 | 0.00 | 71 | 1016.3 |
| 20260905233857 | 82 | 142 | 6.0 | 12.0 | 0.00 | 0.00 | 0.00 | 71 | 1016.2 |
| 20260905233822 | 82 | 194 | 7.0 | 12.0 | 0.00 | 0.00 | 0.00 | 71 | 1016.2 |
| 20260905233659 | 82 | 159 | 7.0 | 12.0 | 0.00 | 0.00 | 0.00 | 71 | 1016.2 |
| 20260905233603 | 82 | 169 | 5.0 | 11.0 | 0.00 | 0.00 | 0.00 | 71 | 1016.2 |
| 20260905233505 | 82 | 169 | 5.0 | 8.0 | 0.00 | 0.00 | 0.00 | 71 | 1016.2 |
| 20260905233429 | 82 | 170 | 5.0 | 8.0 | 0.00 | 0.00 | 0.00 | 70 | 1016.2 |
| 20260905233313 | 82 | 187 | 6.0 | 8.0 | 0.00 | 0.00 | 0.00 | 70 | 1016.3 |
| 20260905233201 | 82 | 163 | 6.0 | 9.0 | 0.00 | 0.00 | 0.00 | 70 | 1016.3 |
| 20260905233126 | 82 | 161 | 5.0 | 9.0 | 0.00 | 0.00 | 0.00 | 70 | 1016.2 |
| 20260905233010 | 82 | 155 | 6.0 | 9.0 | 0.00 | 0.00 | 0.00 | 70 | 1016.2 |
| 20260905232914 | 82 | 165 | 6.0 | 8.0 | 0.00 | 0.00 | 0.00 | 70 | 1016.3 |
| 20260905232759 | 82 | 171 | 4.0 | 9.0 | 0.00 | 0.00 | 0.00 | 70 | 1016.2 |
| 20260905232725 | 82 | 148 | 4.0 | 9.0 | 0.00 | 0.00 | 0.00 | 70 | 1016.2 |
| 20260905232628 | 82 | 143 | 5.0 | 12.0 | 0.00 | 0.00 | 0.00 | 70 | 1016.2 |
| 20260905232511 | 82 | 186 | 5.0 | 12.0 | 0.00 | 0.00 | 0.00 | 70 | 1016.2 |
| 20260905232359 | 82 | 150 | 4.0 | 12.0 | 0.00 | 0.00 | 0.00 | 70 | 1016.1 |
| 20260905232306 | 82 | 192 | 5.0 | 12.0 | 0.00 | 0.00 | 0.00 | 70 | 1016.1 |
| 20260905232228 | 82 | 142 | 5.0 | 12.0 | 0.00 | 0.00 | 0.00 | 70 | 1016.1 |
| 20260905232111 | 82 | 186 | 5.0 | 15.0 | 0.00 | 0.00 | 0.00 | 70 | 1016.1 |
| 20260905232016 | 82 | 162 | 5.0 | 15.0 | 0.00 | 0.00 | 0.00 | 70 | 1016.1 |
| 20260905231920 | 83 | 162 | 8.0 | 15.0 | 0.00 | 0.00 | 0.00 | 70 | 1016.0 |
| 20260905231824 | 83 | 165 | 9.0 | 15.0 | 0.00 | 0.00 | 0.00 | 69 | 1016.0 |
| 20260905231711 | 83 | 160 | 8.0 | 15.0 | 0.00 | 0.00 | 0.00 | 69 | 1016.0 |
| 20260905231616 | 83 | 180 | 8.0 | 15.0 | 0.00 | 0.00 | 0.00 | 69 | 1016.0 |
| 20260905231522 | 83 | 163 | 9.0 | 15.0 | 0.00 | 0.00 | 0.00 | 69 | 1016.0 |
| 20260905231404 | 83 | 196 | 9.0 | 15.0 | 0.00 | 0.00 | 0.00 | 69 | 1016.0 |
| 20260905231307 | 83 | 216 | 6.0 | 14.0 | 0.00 | 0.00 | 0.00 | 69 | 1016.0 |
| 20260905231212 | 83 | 167 | 4.0 | 13.0 | 0.00 | 0.00 | 0.00 | 69 | 1016.0 |
| 20260905231123 | 83 | 169 | 5.0 | 13.0 | 0.00 | 0.00 | 0.00 | 69 | 1016.0 |
| 20260905231001 | 83 | 196 | 7.0 | 13.0 | 0.00 | 0.00 | 0.00 | 69 | 1016.0 |
| 20260905230906 | 83 | 207 | 7.0 | 13.0 | 0.00 | 0.00 | 0.00 | 69 | 1016.0 |
| 20260905230830 | 83 | 177 | 8.0 | 13.0 | 0.00 | 0.00 | 0.00 | 69 | 1016.0 |
| 20260905230714 | 83 | 171 | 8.0 | 13.0 | 0.00 | 0.00 | 0.00 | 69 | 1015.9 |
| 20260905230600 | 83 | 219 | 9.0 | 14.0 | 0.00 | 0.00 | 0.00 | 69 | 1016.0 |
| 20260905230508 | 83 | 207 | 9.0 | 14.0 | 0.00 | 0.00 | 0.00 | 69 | 1016.0 |
| 20260905230414 | 83 | 192 | 8.0 | 14.0 | 0.00 | 0.00 | 0.00 | 69 | 1016.0 |
| 20260905230318 | 83 | 197 | 6.0 | 14.0 | 0.00 | 0.00 | 0.00 | 69 | 1015.9 |
| 20260905230221 | 83 | 194 | 6.0 | 14.0 | 0.00 | 0.00 | 0.00 | 69 | 1015.9 |
| 20260905230058 | 83 | 168 | 7.0 | 14.0 | 0.00 | 0.00 | 0.00 | 69 | 1015.8 |
| 20260905230002 | 83 | 174 | 6.0 | 14.0 | 0.00 | 0.00 | 0.00 | 69 | 1015.8 |
| 20260905225928 | 83 | 192 | 6.0 | 14.0 | 0.00 | 0.00 | 0.00 | 69 | 1015.8 |
| 20260905225815 | 83 | 192 | 9.0 | 14.0 | 0.00 | 0.00 | 0.00 | 68 | 1015.8 |
| 20260905225720 | 83 | 168 | 11.0 | 13.0 | 0.00 | 0.00 | 0.00 | 68 | 1015.7 |
| 20260905225604 | 83 | 202 | 10.0 | 13.0 | 0.00 | 0.00 | 0.00 | 68 | 1015.7 |
| 20260905225507 | 83 | 190 | 10.0 | 13.0 | 0.00 | 0.00 | 0.00 | 68 | 1015.8 |
| 20260905225411 | 83 | 205 | 9.0 | 15.0 | 0.00 | 0.00 | 0.00 | 68 | 1015.8 |
| 20260905225314 | 83 | 198 | 9.0 | 15.0 | 0.00 | 0.00 | 0.00 | 68 | 1015.7 |
| 20260905225159 | 83 | 201 | 8.0 | 15.0 | 0.00 | 0.00 | 0.00 | 68 | 1015.8 |
| 20260905225107 | 83 | 184 | 8.0 | 15.0 | 0.00 | 0.00 | 0.00 | 68 | 1015.7 |
| 20260905225011 | 83 | 186 | 8.0 | 15.0 | 0.00 | 0.00 | 0.00 | 68 | 1015.7 |
| 20260905224915 | 83 | 196 | 8.0 | 15.0 | 0.00 | 0.00 | 0.00 | 67 | 1015.7 |
| 20260905224800 | 83 | 195 | 8.0 | 15.0 | 0.00 | 0.00 | 0.00 | 68 | 1015.8 |
| 20260905224705 | 83 | 179 | 9.0 | 15.0 | 0.00 | 0.00 | 0.00 | 68 | 1015.8 |
| 20260905224629 | 83 | 205 | 9.0 | 15.0 | 0.00 | 0.00 | 0.00 | 68 | 1015.8 |
| 20260905224516 | 83 | 213 | 8.0 | 11.0 | 0.00 | 0.00 | 0.00 | 68 | 1015.8 |
| 20260905224421 | 83 | 161 | 8.0 | 11.0 | 0.00 | 0.00 | 0.00 | 68 | 1015.8 |
| 20260905224258 | 83 | 192 | 8.0 | 12.0 | 0.00 | 0.00 | 0.00 | 68 | 1015.8 |
| 20260905224204 | 83 | 170 | 8.0 | 14.0 | 0.00 | 0.00 | 0.00 | 68 | 1015.9 |
| 20260905224108 | 83 | 194 | 8.0 | 11.0 | 0.00 | 0.00 | 0.00 | 68 | 1015.9 |
| 20260905224032 | 83 | 141 | 8.0 | 15.0 | 0.00 | 0.00 | 0.00 | 68 | 1015.9 |
| 20260905223900 | 83 | 192 | 7.0 | 15.0 | 0.00 | 0.00 | 0.00 | 68 | 1015.9 |
| 20260905223804 | 83 | 136 | 7.0 | 15.0 | 0.00 | 0.00 | 0.00 | 68 | 1016.0 |
| 20260905223709 | 83 | 180 | 8.0 | 15.0 | 0.00 | 0.00 | 0.00 | 68 | 1016.0 |
| 20260905223615 | 83 | 188 | 7.0 | 15.0 | 0.00 | 0.00 | 0.00 | 68 | 1015.9 |
| 20260905223519 | 83 | 161 | 5.0 | 15.0 | 0.00 | 0.00 | 0.00 | 68 | 1015.9 |
| 20260905223444 | 83 | 154 | 6.0 | 15.0 | 0.00 | 0.00 | 0.00 | 68 | 1016.0 |
| 20260905223300 | 83 | 196 | 10.0 | 13.0 | 0.00 | 0.00 | 0.00 | 67 | 1016.1 |
| 20260905223208 | 83 | 144 | 9.0 | 15.0 | 0.00 | 0.00 | 0.00 | 67 | 1016.1 |
| 20260905223112 | 83 | 148 | 6.0 | 13.0 | 0.00 | 0.00 | 0.00 | 68 | 1016.1 |
| 20260905223037 | 83 | 157 | 6.0 | 13.0 | 0.00 | 0.00 | 0.00 | 67 | 1016.1 |
| 20260905222922 | 83 | 163 | 9.0 | 13.0 | 0.00 | 0.00 | 0.00 | 68 | 1016.1 |
| 20260905222824 | 83 | 196 | 9.0 | 13.0 | 0.00 | 0.00 | 0.00 | 68 | 1016.1 |
| 20260905222707 | 83 | 166 | 10.0 | 13.0 | 0.00 | 0.00 | 0.00 | 68 | 1016.1 |
| 20260905222610 | 83 | 202 | 9.0 | 13.0 | 0.00 | 0.00 | 0.00 | 68 | 1016.2 |
| 20260905222514 | 83 | 191 | 8.0 | 14.0 | 0.00 | 0.00 | 0.00 | 68 | 1016.2 |
| 20260905222419 | 83 | 166 | 7.0 | 14.0 | 0.00 | 0.00 | 0.00 | 67 | 1016.1 |
| 20260905222256 | 83 | 148 | 6.0 | 14.0 | 0.00 | 0.00 | 0.00 | 67 | 1016.2 |
| 20260905222202 | 83 | 138 | 4.0 | 14.0 | 0.00 | 0.00 | 0.00 | 68 | 1016.2 |
| 20260905222105 | 83 | 165 | 5.0 | 14.0 | 0.00 | 0.00 | 0.00 | 67 | 1016.2 |
| 20260905222010 | 83 | 187 | 6.0 | 14.0 | 0.00 | 0.00 | 0.00 | 67 | 1016.2 |
| 20260905221858 | 83 | 182 | 8.0 | 14.0 | 0.00 | 0.00 | 0.00 | 67 | 1016.2 |
| 20260905221823 | 83 | 140 | 9.0 | 14.0 | 0.00 | 0.00 | 0.00 | 67 | 1016.2 |
| 20260905221701 | 83 | 200 | 8.0 | 14.0 | 0.00 | 0.00 | 0.00 | 67 | 1016.3 |
| 20260905221624 | 83 | 190 | 6.0 | 11.0 | 0.00 | 0.00 | 0.00 | 67 | 1016.3 |
| 20260905221508 | 83 | 169 | 6.0 | 10.0 | 0.00 | 0.00 | 0.00 | 67 | 1016.3 |
| 20260905221412 | 83 | 143 | 7.0 | 10.0 | 0.00 | 0.00 | 0.00 | 67 | 1016.3 |
| 20260905221300 | 83 | 149 | 7.0 | 10.0 | 0.00 | 0.00 | 0.00 | 67 | 1016.4 |
| 20260905221206 | 83 | 152 | 7.0 | 10.0 | 0.00 | 0.00 | 0.00 | 67 | 1016.4 |
| 20260905221110 | 83 | 180 | 7.0 | 10.0 | 0.00 | 0.00 | 0.00 | 67 | 1016.4 |
| 20260905221034 | 83 | 148 | 7.0 | 12.0 | 0.00 | 0.00 | 0.00 | 67 | 1016.4 |
| 20260905220857 | 83 | 200 | 7.0 | 13.0 | 0.00 | 0.00 | 0.00 | 67 | 1016.4 |
| 20260905220823 | 83 | 172 | 7.0 | 13.0 | 0.00 | 0.00 | 0.00 | 67 | 1016.4 |
| 20260905220659 | 83 | 173 | 6.0 | 13.0 | 0.00 | 0.00 | 0.00 | 67 | 1016.4 |
| 20260905220609 | 83 | 186 | 7.0 | 13.0 | 0.00 | 0.00 | 0.00 | 66 | 1016.4 |
| 20260905220533 | 83 | 150 | 7.0 | 13.0 | 0.00 | 0.00 | 0.00 | 67 | 1016.4 |
| 20260905220436 | 83 | 164 | 7.0 | 13.0 | 0.00 | 0.00 | 0.00 | 66 | 1016.4 |
| 20260905220321 | 83 | 178 | 9.0 | 13.0 | 0.00 | 0.00 | 0.00 | 66 | 1016.3 |
| 20260905220158 | 83 | 142 | 8.0 | 13.0 | 0.00 | 0.00 | 0.00 | 66 | 1016.3 |
| 20260905220007 | 83 | 165 | 6.0 | 15.0 | 0.00 | 0.00 | 0.00 | 65 | 1016.2 |
| 20260905215916 | 83 | 173 | 5.0 | 15.0 | 0.00 | 0.00 | 0.00 | 67 | 1016.3 |
| 20260905215819 | 83 | 149 | 6.0 | 15.0 | 0.00 | 0.00 | 0.00 | 66 | 1016.3 |
| 20260905215744 | 83 | 146 | 7.0 | 15.0 | 0.00 | 0.00 | 0.00 | 66 | 1016.2 |
| 20260905215600 | 83 | 161 | 8.0 | 15.0 | 0.00 | 0.00 | 0.00 | 66 | 1016.3 |
| 20260905215504 | 83 | 165 | 10.0 | 15.0 | 0.00 | 0.00 | 0.00 | 66 | 1016.3 |
| 20260905215428 | 83 | 175 | 9.0 | 15.0 | 0.00 | 0.00 | 0.00 | 66 | 1016.3 |
| 20260905215312 | 83 | 153 | 6.0 | 15.0 | 0.00 | 0.00 | 0.00 | 68 | 1016.2 |
| 20260905215221 | 83 | 134 | 4.0 | 14.0 | 0.00 | 0.00 | 0.00 | 69 | 1016.2 |
| 20260905215058 | 83 | 149 | 6.0 | 14.0 | 0.00 | 0.00 | 0.00 | 68 | 1016.2 |
| 20260905215023 | 83 | 180 | 7.0 | 14.0 | 0.00 | 0.00 | 0.00 | 68 | 1016.2 |
| 20260905214901 | 83 | 155 | 7.0 | 14.0 | 0.00 | 0.00 | 0.00 | 68 | 1016.2 |
| 20260905214805 | 83 | 137 | 7.0 | 14.0 | 0.00 | 0.00 | 0.00 | 68 | 1016.2 |
| 20260905214709 | 83 | 156 | 8.0 | 14.0 | 0.00 | 0.00 | 0.00 | 67 | 1016.2 |
| 20260905214558 | 83 | 169 | 7.0 | 12.0 | 0.00 | 0.00 | 0.00 | 68 | 1016.2 |
| 20260905214503 | 83 | 126 | 7.0 | 12.0 | 0.00 | 0.00 | 0.00 | 68 | 1016.2 |
| 20260905214428 | 83 | 155 | 7.0 | 12.0 | 0.00 | 0.00 | 0.00 | 68 | 1016.1 |
| 20260905214310 | 83 | 165 | 7.0 | 12.0 | 0.00 | 0.00 | 0.00 | 68 | 1016.1 |
| 20260905214215 | 83 | 172 | 7.0 | 12.0 | 0.00 | 0.00 | 0.00 | 67 | 1016.1 |
| 20260905214059 | 83 | 155 | 9.0 | 12.0 | 0.00 | 0.00 | 0.00 | 67 | 1016.1 |
| 20260905214007 | 83 | 160 | 8.0 | 12.0 | 0.00 | 0.00 | 0.00 | 68 | 1016.2 |
| 20260905213911 | 83 | 187 | 7.0 | 12.0 | 0.00 | 0.00 | 0.00 | 69 | 1016.2 |
| 20260905213816 | 83 | 144 | 7.0 | 13.0 | 0.00 | 0.00 | 0.00 | 69 | 1016.1 |
| 20260905213720 | 83 | 169 | 6.0 | 10.0 | 0.00 | 0.00 | 0.00 | 69 | 1016.2 |
| 20260905213604 | 83 | 158 | 6.0 | 10.0 | 0.00 | 0.00 | 0.00 | 70 | 1016.3 |
| 20260905213509 | 83 | 155 | 7.0 | 14.0 | 0.00 | 0.00 | 0.00 | 69 | 1016.3 |
| 20260905213433 | 83 | 146 | 8.0 | 14.0 | 0.00 | 0.00 | 0.00 | 69 | 1016.2 |
| 20260905213301 | 83 | 165 | 7.0 | 14.0 | 0.00 | 0.00 | 0.00 | 70 | 1016.3 |
| 20260905213205 | 83 | 202 | 8.0 | 14.0 | 0.00 | 0.00 | 0.00 | 70 | 1016.3 |
| 20260905213110 | 83 | 164 | 8.0 | 14.0 | 0.00 | 0.00 | 0.00 | 70 | 1016.3 |
| 20260905213014 | 83 | 153 | 8.0 | 14.0 | 0.00 | 0.00 | 0.00 | 70 | 1016.2 |
| 20260905212859 | 83 | 139 | 9.0 | 14.0 | 0.00 | 0.00 | 0.00 | 70 | 1016.3 |
| 20260905212823 | 83 | 131 | 10.0 | 14.0 | 0.00 | 0.00 | 0.00 | 70 | 1016.3 |
| 20260905212727 | 83 | 151 | 9.0 | 14.0 | 0.00 | 0.00 | 0.00 | 70 | 1016.3 |
| 20260905212614 | 83 | 193 | 8.0 | 13.0 | 0.00 | 0.00 | 0.00 | 70 | 1016.3 |
| 20260905212459 | 83 | 152 | 6.0 | 15.0 | 0.00 | 0.00 | 0.00 | 70 | 1016.4 |
| 20260905212402 | 83 | 184 | 5.0 | 15.0 | 0.00 | 0.00 | 0.00 | 70 | 1016.4 |
| 20260905212306 | 83 | 142 | 7.0 | 15.0 | 0.00 | 0.00 | 0.00 | 70 | 1016.5 |
| 20260905212209 | 83 | 169 | 9.0 | 15.0 | 0.00 | 0.00 | 0.00 | 70 | 1016.5 |
| 20260905212114 | 83 | 176 | 9.0 | 15.0 | 0.00 | 0.00 | 0.00 | 69 | 1016.5 |
| 20260905212003 | 83 | 156 | 8.0 | 14.0 | 0.00 | 0.00 | 0.00 | 70 | 1016.6 |
| 20260905211928 | 83 | 171 | 9.0 | 13.0 | 0.00 | 0.00 | 0.00 | 70 | 1016.6 |
| 20260905211812 | 83 | 136 | 8.0 | 13.0 | 0.00 | 0.00 | 0.00 | 71 | 1016.5 |
| 20260905211657 | 83 | 192 | 8.0 | 13.0 | 0.00 | 0.00 | 0.00 | 70 | 1016.6 |
| 20260905211602 | 83 | 169 | 7.0 | 13.0 | 0.00 | 0.00 | 0.00 | 70 | 1016.7 |
| 20260905211527 | 83 | 194 | 8.0 | 13.0 | 0.00 | 0.00 | 0.00 | 71 | 1016.7 |
| 20260905211410 | 83 | 142 | 6.0 | 13.0 | 0.00 | 0.00 | 0.00 | 71 | 1016.7 |
| 20260905211259 | 83 | 134 | 5.0 | 11.0 | 0.00 | 0.00 | 0.00 | 71 | 1016.8 |
| 20260905211223 | 83 | 153 | 7.0 | 11.0 | 0.00 | 0.00 | 0.00 | 71 | 1016.8 |
| 20260905211100 | 83 | 173 | 8.0 | 11.0 | 0.00 | 0.00 | 0.00 | 71 | 1016.9 |
| 20260905211005 | 83 | 144 | 8.0 | 11.0 | 0.00 | 0.00 | 0.00 | 71 | 1017.0 |
| 20260905210909 | 83 | 165 | 7.0 | 11.0 | 0.00 | 0.00 | 0.00 | 71 | 1017.0 |
| 20260905210813 | 83 | 196 | 7.0 | 11.0 | 0.00 | 0.00 | 0.00 | 71 | 1017.0 |
| 20260905210702 | 83 | 175 | 8.0 | 11.0 | 0.00 | 0.00 | 0.00 | 70 | 1017.1 |
| 20260905210607 | 83 | 178 | 8.0 | 11.0 | 0.00 | 0.00 | 0.00 | 70 | 1017.1 |
| 20260905210512 | 83 | 146 | 7.0 | 11.0 | 0.00 | 0.00 | 0.00 | 70 | 1017.1 |
| 20260905210417 | 83 | 200 | 6.0 | 11.0 | 0.00 | 0.00 | 0.00 | 70 | 1017.1 |
| 20260905210321 | 83 | 159 | 6.0 | 11.0 | 0.00 | 0.00 | 0.00 | 71 | 1017.1 |
| 20260905210205 | 83 | 165 | 7.0 | 11.0 | 0.00 | 0.00 | 0.00 | 71 | 1017.1 |
| 20260905210109 | 83 | 153 | 6.0 | 9.0 | 0.00 | 0.00 | 0.00 | 71 | 1017.1 |
| 20260905205957 | 83 | 147 | 4.0 | 10.0 | 0.00 | 0.00 | 0.00 | 71 | 1017.2 |
| 20260905205923 | 83 | 197 | 4.0 | 10.0 | 0.00 | 0.00 | 0.00 | 71 | 1017.2 |
| 20260905205800 | 83 | 123 | 5.0 | 11.0 | 0.00 | 0.00 | 0.00 | 71 | 1017.1 |
| 20260905205704 | 83 | 186 | 5.0 | 11.0 | 0.00 | 0.00 | 0.00 | 71 | 1017.1 |
| 20260905205609 | 83 | 157 | 6.0 | 11.0 | 0.00 | 0.00 | 0.00 | 71 | 1017.1 |
| 20260905205459 | 83 | 138 | 5.0 | 11.0 | 0.00 | 0.00 | 0.00 | 70 | 1017.1 |
| 20260905205423 | 83 | 142 | 5.0 | 11.0 | 0.00 | 0.00 | 0.00 | 70 | 1017.1 |
| 20260905205300 | 83 | 175 | 7.0 | 11.0 | 0.00 | 0.00 | 0.00 | 70 | 1017.2 |
| 20260905205205 | 83 | 173 | 7.0 | 11.0 | 0.00 | 0.00 | 0.00 | 70 | 1017.2 |
| 20260905205109 | 83 | 153 | 7.0 | 12.0 | 0.00 | 0.00 | 0.00 | 70 | 1017.2 |
| 20260905205014 | 83 | 191 | 6.0 | 12.0 | 0.00 | 0.00 | 0.00 | 71 | 1017.1 |
| 20260905204920 | 83 | 135 | 5.0 | 11.0 | 0.00 | 0.00 | 0.00 | 70 | 1017.2 |
| 20260905204827 | 83 | 180 | 7.0 | 11.0 | 0.00 | 0.00 | 0.00 | 70 | 1017.1 |
| 20260905204728 | 83 | 189 | 8.0 | 11.0 | 0.00 | 0.00 | 0.00 | 70 | 1017.2 |
| 20260905204611 | 83 | 197 | 8.0 | 12.0 | 0.00 | 0.00 | 0.00 | 70 | 1017.2 |
| 20260905204516 | 83 | 188 | 6.0 | 12.0 | 0.00 | 0.00 | 0.00 | 71 | 1017.2 |
| 20260905204440 | 83 | 148 | 5.0 | 9.0 | 0.00 | 0.00 | 0.00 | 71 | 1017.2 |
| 20260905204257 | 83 | 161 | 6.0 | 10.0 | 0.00 | 0.00 | 0.00 | 71 | 1017.2 |
| 20260905204202 | 83 | 163 | 6.0 | 10.0 | 0.00 | 0.00 | 0.00 | 70 | 1017.2 |
| 20260905204110 | 83 | 165 | 5.0 | 10.0 | 0.00 | 0.00 | 0.00 | 70 | 1017.2 |
| 20260905204035 | 83 | 187 | 4.0 | 10.0 | 0.00 | 0.00 | 0.00 | 70 | 1017.2 |
| 20260905203917 | 83 | 178 | 4.0 | 10.0 | 0.00 | 0.00 | 0.00 | 71 | 1017.2 |
| 20260905203842 | 83 | 182 | 4.0 | 10.0 | 0.00 | 0.00 | 0.00 | 70 | 1017.2 |
| 20260905203658 | 83 | 186 | 7.0 | 10.0 | 0.00 | 0.00 | 0.00 | 69 | 1017.3 |
| 20260905203602 | 83 | 178 | 7.0 | 10.0 | 0.00 | 0.00 | 0.00 | 70 | 1017.3 |
| 20260905203507 | 83 | 188 | 7.0 | 10.0 | 0.00 | 0.00 | 0.00 | 70 | 1017.4 |
| 20260905203415 | 83 | 164 | 7.0 | 10.0 | 0.00 | 0.00 | 0.00 | 70 | 1017.4 |
| 20260905203320 | 83 | 185 | 6.0 | 10.0 | 0.00 | 0.00 | 0.00 | 70 | 1017.5 |
| 20260905203204 | 83 | 184 | 6.0 | 10.0 | 0.00 | 0.00 | 0.00 | 71 | 1017.5 |
| 20260905203129 | 83 | 183 | 7.0 | 10.0 | 0.00 | 0.00 | 0.00 | 71 | 1017.5 |
| 20260905203012 | 83 | 197 | 6.0 | 10.0 | 0.00 | 0.00 | 0.00 | 72 | 1017.5 |
| 20260905202857 | 82 | 187 | 4.0 | 7.0 | 0.00 | 0.00 | 0.00 | 71 | 1017.5 |
| 20260905202801 | 82 | 207 | 3.0 | 7.0 | 0.00 | 0.00 | 0.00 | 72 | 1017.6 |
| 20260905202709 | 82 | 142 | 3.0 | 8.0 | 0.00 | 0.00 | 0.00 | 72 | 1017.6 |
| 20260905202614 | 82 | 160 | 3.0 | 8.0 | 0.00 | 0.00 | 0.00 | 71 | 1017.6 |
| 20260905202518 | 82 | 136 | 4.0 | 8.0 | 0.00 | 0.00 | 0.00 | 72 | 1017.6 |
| 20260905202444 | 82 | 180 | 5.0 | 8.0 | 0.00 | 0.00 | 0.00 | 71 | 1017.6 |
| 20260905202300 | 82 | 163 | 5.0 | 8.0 | 0.00 | 0.00 | 0.00 | 71 | 1017.7 |
| 20260905202204 | 82 | 171 | 5.0 | 8.0 | 0.00 | 0.00 | 0.00 | 71 | 1017.7 |
| 20260905202113 | 82 | 171 | 5.0 | 8.0 | 0.00 | 0.00 | 0.00 | 71 | 1017.7 |
| 20260905202019 | 82 | 191 | 5.0 | 9.0 | 0.00 | 0.00 | 0.00 | 71 | 1017.8 |
| 20260905201856 | 82 | 190 | 5.0 | 9.0 | 0.00 | 0.00 | 0.00 | 72 | 1017.8 |
| 20260905201801 | 82 | 164 | 5.0 | 9.0 | 0.00 | 0.00 | 0.00 | 71 | 1017.8 |
| 20260905201706 | 82 | 177 | 4.0 | 9.0 | 0.00 | 0.00 | 0.00 | 72 | 1017.9 |
| 20260905201610 | 82 | 132 | 5.0 | 9.0 | 0.00 | 0.00 | 0.00 | 71 | 1017.9 |
| 20260905201459 | 82 | 190 | 5.0 | 9.0 | 0.00 | 0.00 | 0.00 | 72 | 1017.8 |
| 20260905201423 | 82 | 190 | 5.0 | 9.0 | 0.00 | 0.00 | 0.00 | 72 | 1017.8 |
| 20260905201300 | 82 | 190 | 7.0 | 9.0 | 0.00 | 0.00 | 0.00 | 71 | 1017.8 |
| 20260905201223 | 82 | 173 | 6.0 | 9.0 | 0.00 | 0.00 | 0.00 | 72 | 1017.8 |
| 20260905201101 | 82 | 217 | 4.0 | 6.0 | 0.00 | 0.00 | 0.00 | 72 | 1017.8 |
| 20260905201005 | 82 | 228 | 4.0 | 7.0 | 0.00 | 0.00 | 0.00 | 73 | 1017.8 |
| 20260905200914 | 82 | 218 | 4.0 | 7.0 | 0.00 | 0.00 | 0.00 | 72 | 1017.8 |
| 20260905200818 | 82 | 254 | 4.0 | 7.0 | 0.00 | 0.00 | 0.00 | 73 | 1017.9 |
| 20260905200722 | 82 | 255 | 3.0 | 7.0 | 0.00 | 0.00 | 0.00 | 73 | 1017.9 |
| 20260905200601 | 82 | 258 | 4.0 | 7.0 | 0.00 | 0.00 | 0.00 | 73 | 1018.0 |
| 20260905200505 | 82 | 257 | 5.0 | 7.0 | 0.00 | 0.00 | 0.00 | 73 | 1018.0 |
| 20260905200410 | 82 | 252 | 4.0 | 7.0 | 0.00 | 0.00 | 0.00 | 74 | 1018.0 |
| 20260905200259 | 82 | 262 | 3.0 | 7.0 | 0.00 | 0.00 | 0.00 | 74 | 1018.0 |
| 20260905200224 | 82 | 268 | 3.0 | 7.0 | 0.00 | 0.00 | 0.00 | 73 | 1018.2 |
| 20260905200129 | 82 | 217 | 3.0 | 7.0 | 0.00 | 0.00 | 0.00 | 73 | 1018.2 |
| 20260905200012 | 82 | 217 | 4.0 | 7.0 | 0.00 | 0.00 | 0.00 | 73 | 1018.1 |
| 20260905195857 | 82 | 221 | 5.0 | 7.0 | 0.00 | 0.00 | 0.00 | 74 | 1018.2 |
| 20260905195822 | 82 | 229 | 5.0 | 8.0 | 0.00 | 0.00 | 0.00 | 73 | 1018.2 |
| 20260905195700 | 82 | 223 | 5.0 | 8.0 | 0.00 | 0.00 | 0.00 | 73 | 1018.2 |
| 20260905195609 | 82 | 245 | 6.0 | 8.0 | 0.00 | 0.00 | 0.00 | 73 | 1018.2 |
| 20260905195533 | 82 | 223 | 4.0 | 8.0 | 0.00 | 0.00 | 0.00 | 74 | 1018.2 |
| 20260905195417 | 82 | 234 | 3.0 | 8.0 | 0.00 | 0.00 | 0.00 | 73 | 1018.1 |
| 20260905195301 | 82 | 234 | 4.0 | 8.0 | 0.00 | 0.00 | 0.00 | 73 | 1018.0 |
| 20260905195206 | 82 | 235 | 4.0 | 8.0 | 0.00 | 0.00 | 0.00 | 73 | 1018.2 |
| 20260905195111 | 82 | 198 | 3.0 | 8.0 | 0.00 | 0.00 | 0.00 | 73 | 1018.2 |
| 20260905195015 | 82 | 196 | 4.0 | 8.0 | 0.00 | 0.00 | 0.00 | 74 | 1018.1 |
| 20260905194924 | 82 | 197 | 5.0 | 9.0 | 0.00 | 0.00 | 0.00 | 75 | 1018.0 |
| 20260905194808 | 81 | 233 | 3.0 | 9.0 | 0.00 | 0.00 | 0.00 | 74 | 1018.0 |
| 20260905194712 | 81 | 232 | 4.0 | 9.0 | 0.00 | 0.00 | 0.00 | 74 | 1018.1 |
| 20260905194557 | 81 | 217 | 5.0 | 9.0 | 0.00 | 0.00 | 0.00 | 74 | 1018.1 |
| 20260905194503 | 81 | 219 | 4.0 | 9.0 | 0.00 | 0.00 | 0.00 | 74 | 1018.1 |
| 20260905194427 | 81 | 212 | 3.0 | 9.0 | 0.00 | 0.00 | 0.00 | 74 | 1018.1 |
| 20260905194310 | 81 | 250 | 5.0 | 9.0 | 0.00 | 0.00 | 0.00 | 73 | 1018.1 |
| 20260905194159 | 81 | 249 | 6.0 | 9.0 | 0.00 | 0.00 | 0.00 | 74 | 1018.2 |
| 20260905194123 | 81 | 233 | 6.0 | 8.0 | 0.00 | 0.00 | 0.00 | 74 | 1018.2 |
| 20260905194001 | 81 | 200 | 5.0 | 9.0 | 0.00 | 0.00 | 0.00 | 75 | 1018.2 |
| 20260905193905 | 81 | 236 | 6.0 | 9.0 | 0.00 | 0.00 | 0.00 | 74 | 1018.2 |
| 20260905193810 | 81 | 259 | 6.0 | 9.0 | 0.00 | 0.00 | 0.00 | 73 | 1018.2 |
| 20260905193714 | 81 | 267 | 6.0 | 9.0 | 0.00 | 0.00 | 0.00 | 74 | 1018.1 |
| 20260905193603 | 81 | 223 | 5.0 | 8.0 | 0.00 | 0.00 | 0.00 | 73 | 1018.2 |
| 20260905193508 | 81 | 219 | 5.0 | 8.0 | 0.00 | 0.00 | 0.00 | 74 | 1018.2 |
| 20260905193433 | 81 | 225 | 4.0 | 8.0 | 0.00 | 0.00 | 0.00 | 75 | 1018.2 |
| 20260905193315 | 81 | 296 | 4.0 | 7.0 | 0.00 | 0.00 | 0.00 | 75 | 1018.2 |
| 20260905193218 | 81 | 209 | 2.0 | 7.0 | 0.00 | 0.00 | 0.00 | 75 | 1018.3 |
| 20260905193122 | 81 | 215 | 1.0 | 7.0 | 0.00 | 0.00 | 0.00 | 75 | 1018.3 |
| 20260905193000 | 80 | 215 | 3.0 | 7.0 | 0.00 | 0.00 | 0.00 | 75 | 1018.3 |
| 20260905192909 | 80 | 215 | 4.0 | 7.0 | 0.00 | 0.00 | 0.00 | 75 | 1018.3 |
| 20260905192833 | 81 | 214 | 4.0 | 7.0 | 0.00 | 0.00 | 0.00 | 75 | 1018.3 |
| 20260905192657 | 81 | 211 | 4.0 | 7.0 | 0.00 | 0.00 | 0.00 | 75 | 1018.3 |
| 20260905192601 | 81 | 205 | 3.0 | 7.0 | 0.00 | 0.00 | 0.00 | 75 | 1018.3 |
| 20260905192507 | 81 | 192 | 3.0 | 7.0 | 0.00 | 0.00 | 0.00 | 75 | 1018.4 |
| 20260905192411 | 81 | 199 | 4.0 | 7.0 | 0.00 | 0.00 | 0.00 | 75 | 1018.4 |
| 20260905192320 | 81 | 198 | 4.0 | 7.0 | 0.00 | 0.00 | 0.00 | 75 | 1018.3 |
| 20260905192158 | 80 | 182 | 2.0 | 7.0 | 0.00 | 0.00 | 0.00 | 75 | 1018.4 |
| 20260905192103 | 80 | 179 | 2.0 | 7.0 | 0.00 | 0.00 | 0.00 | 75 | 1018.3 |
| 20260905192008 | 80 | 179 | 3.0 | 7.0 | 0.00 | 0.00 | 0.00 | 75 | 1018.3 |
| 20260905191933 | 80 | 179 | 5.0 | 7.0 | 0.00 | 0.00 | 0.00 | 75 | 1018.3 |
| 20260905191757 | 81 | 192 | 5.0 | 7.0 | 0.00 | 0.00 | 0.00 | 75 | 1018.3 |
| 20260905191705 | 80 | 205 | 4.0 | 8.0 | 0.00 | 0.00 | 0.00 | 75 | 1018.3 |
| 20260905191610 | 80 | 229 | 4.0 | 8.0 | 0.00 | 0.00 | 0.00 | 75 | 1018.3 |
| 20260905191514 | 80 | 234 | 5.0 | 8.0 | 0.00 | 0.00 | 0.00 | 76 | 1018.3 |
| 20260905191359 | 80 | 251 | 5.0 | 8.0 | 0.00 | 0.00 | 0.00 | 76 | 1018.3 |
| 20260905191302 | 80 | 228 | 4.0 | 7.0 | 0.00 | 0.00 | 0.00 | 76 | 1018.4 |
| 20260905191207 | 80 | 169 | 4.0 | 7.0 | 0.00 | 0.00 | 0.00 | 76 | 1018.4 |
| 20260905191116 | 80 | 196 | 4.0 | 7.0 | 0.00 | 0.00 | 0.00 | 76 | 1018.3 |
| 20260905191020 | 80 | 214 | 3.0 | 6.0 | 0.00 | 0.00 | 0.00 | 76 | 1018.3 |
| 20260905190857 | 80 | 190 | 4.0 | 7.0 | 0.00 | 0.00 | 0.00 | 77 | 1018.3 |
| 20260905190800 | 80 | 182 | 2.0 | 7.0 | 0.00 | 0.00 | 0.00 | 78 | 1018.3 |
| 20260905190705 | 80 | 218 | 1.0 | 9.0 | 0.00 | 0.00 | 0.00 | 77 | 1018.3 |
| 20260905190610 | 80 | 218 | 3.0 | 9.0 | 0.00 | 0.00 | 0.00 | 77 | 1018.3 |
| 20260905190459 | 79 | 218 | 3.0 | 9.0 | 0.00 | 0.00 | 0.00 | 76 | 1018.4 |
| 20260905190404 | 79 | 217 | 3.0 | 9.0 | 0.00 | 0.00 | 0.00 | 77 | 1018.3 |
| 20260905190310 | 79 | 216 | 4.0 | 9.0 | 0.00 | 0.00 | 0.00 | 77 | 1018.3 |
| 20260905190214 | 79 | 213 | 4.0 | 9.0 | 0.00 | 0.00 | 0.00 | 77 | 1018.3 |
| 20260905190100 | 79 | 211 | 5.0 | 9.0 | 0.00 | 0.00 | 0.00 | 77 | 1018.3 |
| 20260905190024 | 79 | 224 | 6.0 | 9.0 | 0.00 | 0.00 | 0.00 | 77 | 1018.3 |
| 20260905185911 | 79 | 204 | 5.0 | 9.0 | 0.00 | 0.00 | 0.00 | 78 | 1018.3 |
| 20260905185757 | 79 | 198 | 3.0 | 10.0 | 0.00 | 0.00 | 0.00 | 78 | 1018.3 |
| 20260905185721 | 79 | 254 | 3.0 | 10.0 | 0.00 | 0.00 | 0.00 | 78 | 1018.3 |
| 20260905185604 | 79 | 244 | 4.0 | 10.0 | 0.00 | 0.00 | 0.00 | 77 | 1018.3 |
| 20260905185509 | 79 | 244 | 5.0 | 10.0 | 0.00 | 0.00 | 0.00 | 77 | 1018.3 |
| 20260905185414 | 79 | 248 | 6.0 | 10.0 | 0.00 | 0.00 | 0.00 | 77 | 1018.3 |
| 20260905185305 | 79 | 250 | 7.0 | 10.0 | 0.00 | 0.00 | 0.00 | 77 | 1018.3 |
| 20260905185207 | 79 | 243 | 7.0 | 10.0 | 0.00 | 0.00 | 0.00 | 77 | 1018.3 |
| 20260905185112 | 79 | 208 | 7.0 | 10.0 | 0.00 | 0.00 | 0.00 | 77 | 1018.3 |
| 20260905184957 | 79 | 257 | 8.0 | 10.0 | 0.00 | 0.00 | 0.00 | 77 | 1018.4 |
| 20260905184902 | 79 | 250 | 8.0 | 10.0 | 0.00 | 0.00 | 0.00 | 78 | 1018.3 |
| 20260905184826 | 79 | 263 | 5.0 | 10.0 | 0.00 | 0.00 | 0.00 | 79 | 1018.3 |
| 20260905184710 | 79 | 254 | 3.0 | 8.0 | 0.00 | 0.00 | 0.00 | 81 | 1018.3 |
| 20260905184618 | 79 | 274 | 2.0 | 6.0 | 0.00 | 0.00 | 0.00 | 80 | 1018.3 |
| 20260905184543 | 78 | 96 | 2.0 | 6.0 | 0.00 | 0.00 | 0.00 | 79 | 1018.3 |
| 20260905184401 | 78 | 114 | 3.0 | 6.0 | 0.00 | 0.00 | 0.00 | 78 | 1018.3 |
| 20260905184305 | 78 | 119 | 2.0 | 8.0 | 0.00 | 0.00 | 0.00 | 78 | 1018.3 |
| 20260905184210 | 78 | 165 | 2.0 | 8.0 | 0.00 | 0.00 | 0.00 | 79 | 1018.3 |
| 20260905184003 | 78 | 166 | 3.0 | 8.0 | 0.00 | 0.00 | 0.00 | 79 | 1018.4 |
| 20260905183908 | 78 | 200 | 4.0 | 8.0 | 0.00 | 0.00 | 0.00 | 79 | 1018.4 |
| 20260905183813 | 78 | 200 | 5.0 | 8.0 | 0.00 | 0.00 | 0.00 | 79 | 1018.3 |
| 20260905183659 | 78 | 190 | 4.0 | 8.0 | 0.00 | 0.00 | 0.00 | 80 | 1018.4 |
| 20260905183604 | 78 | 202 | 4.0 | 8.0 | 0.00 | 0.00 | 0.00 | 79 | 1018.4 |
| 20260905183508 | 78 | 180 | 4.0 | 8.0 | 0.00 | 0.00 | 0.00 | 79 | 1018.4 |
| 20260905183357 | 78 | 175 | 3.0 | 7.0 | 0.00 | 0.00 | 0.00 | 79 | 1018.5 |
| 20260905183321 | 78 | 173 | 4.0 | 7.0 | 0.00 | 0.00 | 0.00 | 80 | 1018.5 |
| 20260905183225 | 78 | 172 | 4.0 | 7.0 | 0.00 | 0.00 | 0.00 | 80 | 1018.5 |
| 20260905183109 | 78 | 177 | 3.0 | 7.0 | 0.00 | 0.00 | 0.00 | 81 | 1018.5 |
| 20260905183014 | 78 | 175 | 4.0 | 8.0 | 0.00 | 0.00 | 0.00 | 80 | 1018.5 |
| 20260905182859 | 78 | 176 | 6.0 | 9.0 | 0.00 | 0.00 | 0.00 | 80 | 1018.5 |
| 20260905182808 | 78 | 184 | 6.0 | 9.0 | 0.00 | 0.00 | 0.00 | 81 | 1018.5 |
| 20260905182733 | 78 | 219 | 6.0 | 9.0 | 0.00 | 0.00 | 0.00 | 80 | 1018.5 |
| 20260905182556 | 77 | 215 | 5.0 | 9.0 | 0.00 | 0.00 | 0.00 | 80 | 1018.5 |
| 20260905182522 | 77 | 180 | 5.0 | 9.0 | 0.00 | 0.00 | 0.00 | 80 | 1018.6 |
| 20260905182405 | 77 | 188 | 5.0 | 9.0 | 0.00 | 0.00 | 0.00 | 80 | 1018.6 |
| 20260905182310 | 77 | 191 | 6.0 | 9.0 | 0.00 | 0.00 | 0.00 | 81 | 1018.6 |
| 20260905182215 | 77 | 182 | 5.0 | 9.0 | 0.00 | 0.00 | 0.00 | 81 | 1018.6 |
| 20260905182102 | 77 | 198 | 2.0 | 7.0 | 0.00 | 0.00 | 0.00 | 81 | 1018.5 |
| 20260905182007 | 77 | 200 | 3.0 | 7.0 | 0.00 | 0.00 | 0.00 | 81 | 1018.5 |
| 20260905181913 | 77 | 200 | 5.0 | 7.0 | 0.00 | 0.00 | 0.00 | 81 | 1018.6 |
| 20260905181817 | 77 | 211 | 3.0 | 7.0 | 0.00 | 0.00 | 0.00 | 82 | 1018.7 |
| 20260905181701 | 77 | 198 | 2.0 | 5.0 | 0.00 | 0.00 | 0.00 | 82 | 1018.6 |
| 20260905181606 | 77 | 197 | 1.0 | 5.0 | 0.00 | 0.00 | 0.00 | 82 | 1018.5 |
| 20260905181511 | 77 | 197 | 1.0 | 8.0 | 0.00 | 0.00 | 0.00 | 81 | 1018.5 |
| 20260905181400 | 77 | 197 | 1.0 | 8.0 | 0.00 | 0.00 | 0.00 | 81 | 1018.6 |
| 20260905181304 | 77 | 197 | 1.0 | 8.0 | 0.00 | 0.00 | 0.00 | 81 | 1018.6 |
| 20260905181209 | 77 | 197 | 1.0 | 11.0 | 0.00 | 0.00 | 0.00 | 81 | 1018.6 |
| 20260905181113 | 77 | 197 | 1.0 | 11.0 | 0.00 | 0.00 | 0.00 | 81 | 1018.6 |
| 20260905180959 | 77 | 197 | 2.0 | 11.0 | 0.00 | 0.00 | 0.00 | 81 | 1018.7 |
| 20260905180907 | 77 | 197 | 2.0 | 11.0 | 0.00 | 0.00 | 0.00 | 81 | 1018.7 |
| 20260905180812 | 77 | 197 | 4.0 | 11.0 | 0.00 | 0.00 | 0.00 | 81 | 1018.7 |
| 20260905180715 | 77 | 197 | 5.0 | 11.0 | 0.00 | 0.00 | 0.00 | 81 | 1018.7 |
| 20260905180601 | 77 | 167 | 6.0 | 11.0 | 0.00 | 0.00 | 0.00 | 82 | 1018.7 |
| 20260905180505 | 77 | 173 | 7.0 | 11.0 | 0.00 | 0.00 | 0.00 | 82 | 1018.7 |
| 20260905180410 | 77 | 167 | 7.0 | 11.0 | 0.00 | 0.00 | 0.00 | 82 | 1018.7 |
| 20260905180258 | 77 | 196 | 7.0 | 9.0 | 0.00 | 0.00 | 0.00 | 83 | 1018.7 |
| 20260905180222 | 77 | 178 | 6.0 | 9.0 | 0.00 | 0.00 | 0.00 | 83 | 1018.7 |
| 20260905180100 | 77 | 186 | 5.0 | 8.0 | 0.00 | 0.00 | 0.00 | 83 | 1018.8 |
| 20260905180023 | 76 | 188 | 3.0 | 7.0 | 0.00 | 0.00 | 0.00 | 83 | 1018.8 |
| 20260905175900 | 76 | 211 | 3.0 | 7.0 | 0.00 | 0.00 | 0.00 | 83 | 1018.8 |
| 20260905175806 | 76 | 211 | 5.0 | 7.0 | 0.00 | 0.00 | 0.00 | 83 | 1018.8 |
| 20260905175710 | 76 | 201 | 5.0 | 7.0 | 0.00 | 0.00 | 0.00 | 83 | 1018.8 |
| 20260905175618 | 76 | 240 | 4.0 | 8.0 | 0.00 | 0.00 | 0.00 | 84 | 1018.8 |
| 20260905175522 | 76 | 236 | 4.0 | 8.0 | 0.00 | 0.00 | 0.00 | 84 | 1018.8 |
| 20260905175406 | 76 | 196 | 3.0 | 8.0 | 0.00 | 0.00 | 0.00 | 84 | 1018.8 |
| 20260905175311 | 76 | 161 | 2.0 | 8.0 | 0.00 | 0.00 | 0.00 | 84 | 1018.8 |
| 20260905175216 | 76 | 161 | 1.0 | 8.0 | 0.00 | 0.00 | 0.00 | 84 | 1018.8 |
| 20260905175101 | 76 | 180 | 2.0 | 8.0 | 0.00 | 0.00 | 0.00 | 84 | 1018.8 |
| 20260905175009 | 76 | 180 | 4.0 | 8.0 | 0.00 | 0.00 | 0.00 | 84 | 1018.8 |
| 20260905174934 | 76 | 180 | 5.0 | 8.0 | 0.00 | 0.00 | 0.00 | 85 | 1018.8 |
| 20260905174818 | 76 | 196 | 5.0 | 8.0 | 0.00 | 0.00 | 0.00 | 85 | 1018.8 |
| 20260905174721 | 76 | 202 | 4.0 | 9.0 | 0.00 | 0.00 | 0.00 | 85 | 1018.8 |
| 20260905174603 | 76 | 209 | 4.0 | 9.0 | 0.00 | 0.00 | 0.00 | 85 | 1018.8 |
| 20260905174508 | 75 | 155 | 3.0 | 9.0 | 0.00 | 0.00 | 0.00 | 85 | 1018.8 |
| 20260905174413 | 75 | 155 | 4.0 | 9.0 | 0.00 | 0.00 | 0.00 | 85 | 1018.8 |
| 20260905174318 | 75 | 146 | 5.0 | 9.0 | 0.00 | 0.00 | 0.00 | 85 | 1018.8 |
| 20260905174206 | 75 | 154 | 5.0 | 12.0 | 0.00 | 0.00 | 0.00 | 85 | 1018.8 |
| 20260905174110 | 75 | 171 | 5.0 | 12.0 | 0.00 | 0.00 | 0.00 | 85 | 1018.8 |
| 20260905174015 | 75 | 129 | 4.0 | 12.0 | 0.00 | 0.00 | 0.00 | 86 | 1018.8 |
| 20260905173920 | 75 | 178 | 4.0 | 12.0 | 0.00 | 0.00 | 0.00 | 85 | 1018.9 |
| 20260905173823 | 75 | 165 | 6.0 | 12.0 | 0.00 | 0.00 | 0.00 | 85 | 1018.9 |
| 20260905173727 | 75 | 193 | 6.0 | 12.0 | 0.00 | 0.00 | 0.00 | 86 | 1018.9 |
| 20260905173611 | 75 | 188 | 6.0 | 12.0 | 0.00 | 0.00 | 0.00 | 86 | 1018.9 |
| 20260905173535 | 75 | 184 | 8.0 | 12.0 | 0.00 | 0.00 | 0.00 | 86 | 1018.9 |
| 20260905173422 | 75 | 195 | 7.0 | 12.0 | 0.00 | 0.00 | 0.00 | 87 | 1018.9 |
| 20260905173300 | 75 | 198 | 6.0 | 8.0 | 0.00 | 0.00 | 0.00 | 87 | 1018.8 |
| 20260905173205 | 75 | 205 | 6.0 | 8.0 | 0.00 | 0.00 | 0.00 | 86 | 1018.8 |
| 20260905173109 | 75 | 202 | 4.0 | 7.0 | 0.00 | 0.00 | 0.00 | 87 | 1018.8 |
| 20260905173034 | 75 | 221 | 4.0 | 8.0 | 0.00 | 0.00 | 0.00 | 87 | 1018.8 |
| 20260905172857 | 75 | 173 | 4.0 | 7.0 | 0.00 | 0.00 | 0.00 | 88 | 1018.8 |
| 20260905172802 | 75 | 165 | 2.0 | 7.0 | 0.00 | 0.00 | 0.00 | 89 | 1018.7 |
| 20260905172730 | 74 | 120 | 2.0 | 7.0 | 0.00 | 0.00 | 0.00 | 88 | 1018.7 |
| 20260905172634 | 74 | 119 | 3.0 | 7.0 | 0.00 | 0.00 | 0.00 | 88 | 1018.7 |
| 20260905172518 | 74 | 118 | 5.0 | 7.0 | 0.00 | 0.00 | 0.00 | 88 | 1018.7 |
| 20260905172442 | 74 | 158 | 5.0 | 7.0 | 0.00 | 0.00 | 0.00 | 88 | 1018.7 |
| 20260905172257 | 74 | 180 | 4.0 | 9.0 | 0.00 | 0.00 | 0.00 | 88 | 1018.7 |
| 20260905172220 | 74 | 161 | 4.0 | 9.0 | 0.00 | 0.00 | 0.00 | 88 | 1018.7 |
| 20260905172057 | 74 | 166 | 4.0 | 9.0 | 0.00 | 0.00 | 0.00 | 88 | 1018.7 |
| 20260905172022 | 74 | 158 | 3.0 | 9.0 | 0.00 | 0.00 | 0.00 | 88 | 1018.8 |
| 20260905171929 | 74 | 169 | 5.0 | 9.0 | 0.00 | 0.00 | 0.00 | 88 | 1018.8 |
| 20260905171812 | 74 | 178 | 6.0 | 13.0 | 0.00 | 0.00 | 0.00 | 88 | 1018.8 |
| 20260905171716 | 74 | 164 | 6.0 | 13.0 | 0.00 | 0.00 | 0.00 | 88 | 1018.8 |
| 20260905171642 | 74 | 172 | 6.0 | 13.0 | 0.00 | 0.00 | 0.00 | 88 | 1018.8 |
| 20260905171457 | 74 | 163 | 6.0 | 13.0 | 0.00 | 0.00 | 0.00 | 88 | 1018.9 |
| 20260905171402 | 74 | 158 | 7.0 | 13.0 | 0.00 | 0.00 | 0.00 | 88 | 1018.8 |
| 20260905171307 | 74 | 198 | 7.0 | 13.0 | 0.00 | 0.00 | 0.00 | 88 | 1018.8 |
| 20260905171216 | 74 | 192 | 7.0 | 13.0 | 0.00 | 0.00 | 0.00 | 88 | 1018.8 |
| 20260905171118 | 74 | 175 | 8.0 | 13.0 | 0.00 | 0.00 | 0.00 | 88 | 1018.8 |
| 20260905171043 | 74 | 178 | 8.0 | 13.0 | 0.00 | 0.00 | 0.00 | 89 | 1018.8 |
| 20260905170859 | 74 | 205 | 6.0 | 9.0 | 0.00 | 0.00 | 0.00 | 89 | 1018.8 |
| 20260905170803 | 74 | 168 | 6.0 | 9.0 | 0.00 | 0.00 | 0.00 | 89 | 1018.8 |
| 20260905170727 | 74 | 178 | 7.0 | 9.0 | 0.00 | 0.00 | 0.00 | 89 | 1018.8 |
| 20260905170610 | 74 | 188 | 6.0 | 9.0 | 0.00 | 0.00 | 0.00 | 90 | 1018.8 |
| 20260905170459 | 73 | 209 | 5.0 | 7.0 | 0.00 | 0.00 | 0.00 | 89 | 1018.9 |
| 20260905170404 | 73 | 223 | 5.0 | 9.0 | 0.00 | 0.00 | 0.00 | 90 | 1018.9 |
| 20260905170309 | 73 | 221 | 4.0 | 9.0 | 0.00 | 0.00 | 0.00 | 90 | 1018.9 |
| 20260905170234 | 73 | 222 | 3.0 | 9.0 | 0.00 | 0.00 | 0.00 | 90 | 1019.0 |
| 20260905170118 | 73 | 217 | 4.0 | 9.0 | 0.00 | 0.00 | 0.00 | 90 | 1019.1 |
| 20260905165956 | 73 | 218 | 5.0 | 9.0 | 0.00 | 0.00 | 0.00 | 90 | 1019.2 |
| 20260905165921 | 73 | 219 | 4.0 | 9.0 | 0.00 | 0.00 | 0.00 | 90 | 1019.2 |
| 20260905165808 | 73 | 222 | 4.0 | 9.0 | 0.00 | 0.00 | 0.00 | 90 | 1019.2 |
| 20260905165733 | 73 | 224 | 5.0 | 9.0 | 0.00 | 0.00 | 0.00 | 90 | 1019.1 |
| 20260905165616 | 73 | 226 | 7.0 | 9.0 | 0.00 | 0.00 | 0.00 | 90 | 1019.2 |
| 20260905165520 | 73 | 248 | 7.0 | 9.0 | 0.00 | 0.00 | 0.00 | 90 | 1019.2 |